Wetterdaten: Samstag, 09.07.2016
Datum Zeit Temp. A. Feuchte A. Luftdruck Regen Wind Richtung Richtung Sonnenschein ET UV Solar Taupunkt Windchill Windben Empfang
09.07.2016 00:00 19,8 C 76 % 1015,0 hPa 0,0 l/m 6,2 km/h (2 Bft) S-SW 199 0 min 0,000 mm 0,0 UV-I 0 W/m 15,4 C 19,8 C 8,0 km/h (2 Bft) 100,00 %
09.07.2016 00:02 19,8 C 76 % 1015,0 hPa 0,0 l/m 5,9 km/h (2 Bft) S 182 0 min 0,000 mm 0,0 UV-I 0 W/m 15,4 C 19,8 C 9,7 km/h (2 Bft) 97,73 %
09.07.2016 00:04 19,7 C 77 % 1015,0 hPa 0,0 l/m 5,0 km/h (1 Bft) S-SW 209 0 min 0,000 mm 0,0 UV-I 0 W/m 15,5 C 19,7 C 6,4 km/h (2 Bft) 100,00 %
09.07.2016 00:06 19,7 C 77 % 1015,0 hPa 0,0 l/m 5,8 km/h (2 Bft) SW 217 0 min 0,000 mm 0,0 UV-I 0 W/m 15,5 C 19,7 C 8,0 km/h (2 Bft) 100,00 %
09.07.2016 00:08 19,6 C 78 % 1015,0 hPa 0,0 l/m 4,3 km/h (1 Bft) S-SW 209 0 min 0,000 mm 0,0 UV-I 0 W/m 15,7 C 19,6 C 6,4 km/h (2 Bft) 98,31 %
09.07.2016 00:10 19,5 C 78 % 1014,9 hPa 0,0 l/m 5,9 km/h (2 Bft) S-SW 200 0 min 0,000 mm 0,0 UV-I 0 W/m 15,6 C 19,5 C 8,0 km/h (2 Bft) 98,00 %
09.07.2016 00:12 19,5 C 78 % 1014,9 hPa 0,0 l/m 6,9 km/h (2 Bft) S-SW 193 0 min 0,000 mm 0,0 UV-I 0 W/m 15,6 C 19,3 C 9,7 km/h (2 Bft) 97,37 %
09.07.2016 00:14 19,4 C 79 % 1014,9 hPa 0,0 l/m 7,3 km/h (2 Bft) S 188 0 min 0,000 mm 0,0 UV-I 0 W/m 15,7 C 19,0 C 11,3 km/h (2 Bft) 96,23 %
09.07.2016 00:16 19,4 C 79 % 1014,9 hPa 0,0 l/m 6,8 km/h (2 Bft) S 183 0 min 0,000 mm 0,0 UV-I 0 W/m 15,7 C 19,2 C 9,7 km/h (2 Bft) 97,87 %
09.07.2016 00:18 19,4 C 78 % 1014,9 hPa 0,0 l/m 8,3 km/h (2 Bft) S-SW 198 0 min 0,000 mm 0,0 UV-I 0 W/m 15,5 C 18,6 C 11,3 km/h (2 Bft) 97,87 %
09.07.2016 00:20 19,5 C 78 % 1014,9 hPa 0,0 l/m 7,3 km/h (2 Bft) S 177 0 min 0,000 mm 0,0 UV-I 0 W/m 15,6 C 19,1 C 11,3 km/h (2 Bft) 97,62 %
09.07.2016 00:22 19,6 C 77 % 1014,9 hPa 0,0 l/m 8,7 km/h (2 Bft) S-SW 201 0 min 0,000 mm 0,0 UV-I 0 W/m 15,5 C 18,7 C 14,5 km/h (3 Bft) 98,21 %
09.07.2016 00:24 19,6 C 77 % 1015,0 hPa 0,0 l/m 6,8 km/h (2 Bft) SW 232 0 min 0,000 mm 0,0 UV-I 0 W/m 15,5 C 19,4 C 11,3 km/h (2 Bft) 97,62 %
09.07.2016 00:26 19,7 C 77 % 1015,0 hPa 0,0 l/m 6,7 km/h (2 Bft) SW 217 0 min 0,000 mm 0,0 UV-I 0 W/m 15,5 C 19,6 C 9,7 km/h (2 Bft) 97,56 %
09.07.2016 00:28 19,7 C 77 % 1015,0 hPa 0,0 l/m 6,8 km/h (2 Bft) SW 227 0 min 0,000 mm 0,0 UV-I 0 W/m 15,5 C 19,5 C 9,7 km/h (2 Bft) 98,11 %
09.07.2016 00:30 19,6 C 78 % 1015,0 hPa 0,0 l/m 5,9 km/h (2 Bft) S-SW 207 0 min 0,000 mm 0,0 UV-I 0 W/m 15,7 C 19,6 C 8,0 km/h (2 Bft) 97,87 %
09.07.2016 00:32 19,6 C 78 % 1015,0 hPa 0,0 l/m 6,8 km/h (2 Bft) SW 231 0 min 0,000 mm 0,0 UV-I 0 W/m 15,7 C 19,4 C 9,7 km/h (2 Bft) 97,62 %
09.07.2016 00:34 19,6 C 78 % 1015,0 hPa 0,0 l/m 5,4 km/h (1 Bft) SW 236 0 min 0,000 mm 0,0 UV-I 0 W/m 15,7 C 19,6 C 9,7 km/h (2 Bft) 98,31 %
09.07.2016 00:36 19,6 C 78 % 1015,1 hPa 0,0 l/m 8,7 km/h (2 Bft) SW 226 0 min 0,000 mm 0,0 UV-I 0 W/m 15,7 C 18,7 C 11,3 km/h (2 Bft) 97,37 %
09.07.2016 00:38 19,6 C 78 % 1015,1 hPa 0,0 l/m 9,0 km/h (2 Bft) W-SW 241 0 min 0,000 mm 0,0 UV-I 0 W/m 15,7 C 18,6 C 14,5 km/h (3 Bft) 98,11 %
09.07.2016 00:40 19,6 C 78 % 1015,1 hPa 0,0 l/m 8,8 km/h (2 Bft) SW 223 0 min 0,000 mm 0,0 UV-I 0 W/m 15,7 C 18,6 C 14,5 km/h (3 Bft) 97,37 %
09.07.2016 00:42 19,6 C 78 % 1015,1 hPa 0,0 l/m 7,7 km/h (2 Bft) W-SW 237 0 min 0,000 mm 0,0 UV-I 0 W/m 15,7 C 19,1 C 11,3 km/h (2 Bft) 100,00 %
09.07.2016 00:44 19,6 C 78 % 1015,1 hPa 0,0 l/m 8,5 km/h (2 Bft) SW 221 0 min 0,000 mm 0,0 UV-I 0 W/m 15,7 C 18,7 C 11,3 km/h (2 Bft) 92,68 %
09.07.2016 00:46 19,6 C 78 % 1015,2 hPa 0,0 l/m 7,3 km/h (2 Bft) SW 217 0 min 0,000 mm 0,0 UV-I 0 W/m 15,7 C 19,2 C 12,9 km/h (3 Bft) 100,00 %
09.07.2016 00:48 19,6 C 78 % 1015,2 hPa 0,0 l/m 9,8 km/h (2 Bft) S-SW 204 0 min 0,000 mm 0,0 UV-I 0 W/m 15,7 C 18,3 C 14,5 km/h (3 Bft) 93,62 %
09.07.2016 00:50 19,6 C 78 % 1015,2 hPa 0,0 l/m 8,9 km/h (2 Bft) W-SW 240 0 min 0,000 mm 0,0 UV-I 0 W/m 15,7 C 18,6 C 11,3 km/h (2 Bft) 100,00 %
09.07.2016 00:52 19,5 C 78 % 1015,3 hPa 0,0 l/m 6,9 km/h (2 Bft) W 263 0 min 0,000 mm 0,0 UV-I 0 W/m 15,6 C 19,3 C 12,9 km/h (3 Bft) 100,00 %
09.07.2016 00:54 19,5 C 78 % 1015,3 hPa 0,0 l/m 8,0 km/h (2 Bft) W-SW 258 0 min 0,000 mm 0,0 UV-I 0 W/m 15,6 C 18,8 C 11,3 km/h (2 Bft) 100,00 %
09.07.2016 00:56 19,6 C 78 % 1015,3 hPa 0,0 l/m 7,3 km/h (2 Bft) W-SW 256 0 min 0,000 mm 0,0 UV-I 0 W/m 15,7 C 19,2 C 11,3 km/h (2 Bft) 100,00 %
09.07.2016 00:58 19,6 C 78 % 1015,4 hPa 0,0 l/m 6,5 km/h (2 Bft) W-SW 252 0 min 0,000 mm 0,0 UV-I 0 W/m 15,7 C 19,6 C 9,7 km/h (2 Bft) 100,00 %
09.07.2016 01:00 19,6 C 78 % 1015,3 hPa 0,0 l/m 7,0 km/h (2 Bft) W-SW 252 0 min 0,025 mm 0,0 UV-I 0 W/m 15,7 C 19,3 C 9,7 km/h (2 Bft) 100,00 %
09.07.2016 01:02 19,6 C 78 % 1015,2 hPa 0,0 l/m 7,9 km/h (2 Bft) S-SW 211 0 min 0,000 mm 0,0 UV-I 0 W/m 15,7 C 19,0 C 12,9 km/h (3 Bft) 97,44 %
09.07.2016 01:04 19,7 C 78 % 1015,2 hPa 0,0 l/m 7,2 km/h (2 Bft) S 186 0 min 0,000 mm 0,0 UV-I 0 W/m 15,8 C 19,4 C 11,3 km/h (2 Bft) 100,00 %
09.07.2016 01:06 19,7 C 78 % 1015,2 hPa 0,0 l/m 6,0 km/h (2 Bft) SW 228 0 min 0,000 mm 0,0 UV-I 0 W/m 15,8 C 19,7 C 8,0 km/h (2 Bft) 95,45 %
09.07.2016 01:08 19,7 C 78 % 1015,3 hPa 0,0 l/m 6,4 km/h (2 Bft) SW 226 0 min 0,000 mm 0,0 UV-I 0 W/m 15,8 C 19,7 C 8,0 km/h (2 Bft) 100,00 %
09.07.2016 01:10 19,7 C 78 % 1015,3 hPa 0,0 l/m 7,5 km/h (2 Bft) SW 229 0 min 0,000 mm 0,0 UV-I 0 W/m 15,8 C 19,2 C 12,9 km/h (3 Bft) 100,00 %
09.07.2016 01:12 19,7 C 78 % 1015,4 hPa 0,0 l/m 8,1 km/h (2 Bft) SW 234 0 min 0,000 mm 0,0 UV-I 0 W/m 15,8 C 19,0 C 14,5 km/h (3 Bft) 98,00 %
09.07.2016 01:14 19,7 C 78 % 1015,4 hPa 0,0 l/m 9,3 km/h (2 Bft) SW 221 0 min 0,000 mm 0,0 UV-I 0 W/m 15,8 C 18,6 C 11,3 km/h (2 Bft) 98,00 %
09.07.2016 01:16 19,7 C 78 % 1015,4 hPa 0,0 l/m 8,6 km/h (2 Bft) SW 221 0 min 0,000 mm 0,0 UV-I 0 W/m 15,8 C 18,8 C 12,9 km/h (3 Bft) 100,00 %
09.07.2016 01:18 19,7 C 78 % 1015,4 hPa 0,0 l/m 9,1 km/h (2 Bft) SW 219 0 min 0,000 mm 0,0 UV-I 0 W/m 15,8 C 18,6 C 12,9 km/h (3 Bft) 97,37 %
09.07.2016 01:20 19,7 C 78 % 1015,5 hPa 0,0 l/m 7,0 km/h (2 Bft) SW 229 0 min 0,000 mm 0,0 UV-I 0 W/m 15,8 C 19,5 C 9,7 km/h (2 Bft) 100,00 %
09.07.2016 01:22 19,7 C 78 % 1015,5 hPa 0,0 l/m 7,6 km/h (2 Bft) S-SW 208 0 min 0,000 mm 0,0 UV-I 0 W/m 15,8 C 19,2 C 11,3 km/h (2 Bft) 100,00 %
09.07.2016 01:24 19,7 C 77 % 1015,5 hPa 0,0 l/m 6,9 km/h (2 Bft) S-SW 193 0 min 0,000 mm 0,0 UV-I 0 W/m 15,5 C 19,5 C 14,5 km/h (3 Bft) 100,00 %
09.07.2016 01:26 19,7 C 77 % 1015,5 hPa 0,0 l/m 6,4 km/h (2 Bft) S-SW 202 0 min 0,000 mm 0,0 UV-I 0 W/m 15,5 C 19,7 C 9,7 km/h (2 Bft) 100,00 %
09.07.2016 01:28 19,7 C 77 % 1015,6 hPa 0,0 l/m 6,0 km/h (2 Bft) SW 224 0 min 0,000 mm 0,0 UV-I 0 W/m 15,5 C 19,7 C 8,0 km/h (2 Bft) 100,00 %
09.07.2016 01:30 19,8 C 77 % 1015,6 hPa 0,0 l/m 7,9 km/h (2 Bft) W-SW 243 0 min 0,000 mm 0,0 UV-I 0 W/m 15,6 C 19,2 C 14,5 km/h (3 Bft) 100,00 %
09.07.2016 01:32 19,8 C 77 % 1015,6 hPa 0,0 l/m 7,4 km/h (2 Bft) S 171 0 min 0,000 mm 0,0 UV-I 0 W/m 15,6 C 19,4 C 11,3 km/h (2 Bft) 100,00 %
09.07.2016 01:34 19,8 C 77 % 1015,6 hPa 0,0 l/m 8,3 km/h (2 Bft) SW 225 0 min 0,000 mm 0,0 UV-I 0 W/m 15,6 C 19,0 C 12,9 km/h (3 Bft) 100,00 %
09.07.2016 01:36 19,8 C 76 % 1015,6 hPa 0,0 l/m 8,8 km/h (2 Bft) S-SW 200 0 min 0,000 mm 0,0 UV-I 0 W/m 15,4 C 18,8 C 12,9 km/h (3 Bft) 97,56 %
09.07.2016 01:38 19,8 C 76 % 1015,5 hPa 0,0 l/m 6,8 km/h (2 Bft) SW 215 0 min 0,000 mm 0,0 UV-I 0 W/m 15,4 C 19,6 C 12,9 km/h (3 Bft) 100,00 %
09.07.2016 01:40 19,8 C 76 % 1015,5 hPa 0,0 l/m 7,0 km/h (2 Bft) S 172 0 min 0,000 mm 0,0 UV-I 0 W/m 15,4 C 19,6 C 12,9 km/h (3 Bft) 100,00 %
09.07.2016 01:42 19,8 C 76 % 1015,5 hPa 0,0 l/m 9,4 km/h (2 Bft) S-SW 211 0 min 0,000 mm 0,0 UV-I 0 W/m 15,4 C 18,6 C 14,5 km/h (3 Bft) 100,00 %
09.07.2016 01:44 19,8 C 76 % 1015,5 hPa 0,0 l/m 6,5 km/h (2 Bft) SW 234 0 min 0,000 mm 0,0 UV-I 0 W/m 15,4 C 19,8 C 9,7 km/h (2 Bft) 100,00 %
09.07.2016 01:46 19,8 C 75 % 1015,5 hPa 0,0 l/m 7,3 km/h (2 Bft) W-SW 250 0 min 0,000 mm 0,0 UV-I 0 W/m 15,2 C 19,4 C 12,9 km/h (3 Bft) 97,62 %
09.07.2016 01:48 19,8 C 76 % 1015,5 hPa 0,0 l/m 7,6 km/h (2 Bft) S-SW 200 0 min 0,000 mm 0,0 UV-I 0 W/m 15,4 C 19,3 C 11,3 km/h (2 Bft) 100,00 %
09.07.2016 01:50 19,8 C 76 % 1015,6 hPa 0,0 l/m 7,1 km/h (2 Bft) SW 215 0 min 0,000 mm 0,0 UV-I 0 W/m 15,4 C 19,5 C 9,7 km/h (2 Bft) 100,00 %
09.07.2016 01:52 19,7 C 76 % 1015,6 hPa 0,0 l/m 6,8 km/h (2 Bft) S-SW 208 0 min 0,000 mm 0,0 UV-I 0 W/m 15,3 C 19,5 C 11,3 km/h (2 Bft) 100,00 %
09.07.2016 01:54 19,7 C 76 % 1015,5 hPa 0,0 l/m 8,4 km/h (2 Bft) S-SW 198 0 min 0,000 mm 0,0 UV-I 0 W/m 15,3 C 18,9 C 12,9 km/h (3 Bft) 100,00 %
09.07.2016 01:56 19,7 C 75 % 1015,6 hPa 0,0 l/m 7,8 km/h (2 Bft) S-SW 192 0 min 0,000 mm 0,0 UV-I 0 W/m 15,1 C 19,1 C 14,5 km/h (3 Bft) 98,00 %
09.07.2016 01:58 19,7 C 75 % 1015,6 hPa 0,0 l/m 8,4 km/h (2 Bft) S-SW 199 0 min 0,000 mm 0,0 UV-I 0 W/m 15,1 C 18,9 C 12,9 km/h (3 Bft) 98,11 %
09.07.2016 02:00 19,7 C 75 % 1015,7 hPa 0,0 l/m 7,1 km/h (2 Bft) SW 224 0 min 0,026 mm 0,0 UV-I 0 W/m 15,1 C 19,4 C 11,3 km/h (2 Bft) 100,00 %
09.07.2016 02:02 19,7 C 75 % 1015,6 hPa 0,0 l/m 7,3 km/h (2 Bft) SW 221 0 min 0,000 mm 0,0 UV-I 0 W/m 15,1 C 19,3 C 11,3 km/h (2 Bft) 100,00 %
09.07.2016 02:04 19,6 C 75 % 1015,6 hPa 0,0 l/m 7,4 km/h (2 Bft) SW 232 0 min 0,000 mm 0,0 UV-I 0 W/m 15,0 C 19,2 C 11,3 km/h (2 Bft) 100,00 %
09.07.2016 02:06 19,6 C 76 % 1015,6 hPa 0,0 l/m 6,8 km/h (2 Bft) SW 223 0 min 0,000 mm 0,0 UV-I 0 W/m 15,2 C 19,4 C 12,9 km/h (3 Bft) 100,00 %
09.07.2016 02:08 19,5 C 75 % 1015,6 hPa 0,0 l/m 7,0 km/h (2 Bft) SW 222 0 min 0,000 mm 0,0 UV-I 0 W/m 14,9 C 19,2 C 9,7 km/h (2 Bft) 97,56 %
09.07.2016 02:10 19,5 C 75 % 1015,6 hPa 0,0 l/m 8,9 km/h (2 Bft) S-SW 200 0 min 0,000 mm 0,0 UV-I 0 W/m 14,9 C 18,5 C 14,5 km/h (3 Bft) 98,00 %
09.07.2016 02:12 19,5 C 75 % 1015,6 hPa 0,0 l/m 11,0 km/h (2 Bft) W-SW 247 0 min 0,000 mm 0,0 UV-I 0 W/m 14,9 C 17,8 C 17,7 km/h (3 Bft) 98,11 %
09.07.2016 02:14 19,5 C 74 % 1015,6 hPa 0,0 l/m 9,6 km/h (2 Bft) S-SW 192 0 min 0,000 mm 0,0 UV-I 0 W/m 14,7 C 18,2 C 16,1 km/h (3 Bft) 95,74 %
09.07.2016 02:16 19,6 C 74 % 1015,6 hPa 0,0 l/m 9,2 km/h (2 Bft) SW 222 0 min 0,000 mm 0,0 UV-I 0 W/m 14,8 C 18,5 C 14,5 km/h (3 Bft) 98,00 %
09.07.2016 02:18 19,6 C 74 % 1015,6 hPa 0,0 l/m 9,7 km/h (2 Bft) SW 225 0 min 0,000 mm 0,0 UV-I 0 W/m 14,8 C 18,3 C 14,5 km/h (3 Bft) 95,12 %
09.07.2016 02:20 19,7 C 72 % 1015,6 hPa 0,0 l/m 9,4 km/h (2 Bft) S-SW 200 0 min 0,000 mm 0,0 UV-I 0 W/m 14,5 C 18,5 C 14,5 km/h (3 Bft) 100,00 %
09.07.2016 02:22 19,7 C 72 % 1015,7 hPa 0,0 l/m 10,4 km/h (2 Bft) SW 216 0 min 0,000 mm 0,0 UV-I 0 W/m 14,5 C 18,2 C 17,7 km/h (3 Bft) 95,89 %
09.07.2016 02:24 19,8 C 72 % 1015,7 hPa 0,0 l/m 10,0 km/h (2 Bft) SW 217 0 min 0,000 mm 0,0 UV-I 0 W/m 14,6 C 18,4 C 14,5 km/h (3 Bft) 97,62 %
09.07.2016 02:26 19,8 C 71 % 1015,8 hPa 0,0 l/m 9,4 km/h (2 Bft) W-SW 246 0 min 0,000 mm 0,0 UV-I 0 W/m 14,4 C 18,6 C 14,5 km/h (3 Bft) 98,00 %
09.07.2016 02:28 19,8 C 71 % 1015,8 hPa 0,0 l/m 9,7 km/h (2 Bft) S-SW 201 0 min 0,000 mm 0,0 UV-I 0 W/m 14,4 C 18,5 C 17,7 km/h (3 Bft) 97,37 %
09.07.2016 02:30 19,8 C 71 % 1015,8 hPa 0,0 l/m 8,7 km/h (2 Bft) S-SW 206 0 min 0,000 mm 0,0 UV-I 0 W/m 14,4 C 18,9 C 14,5 km/h (3 Bft) 98,00 %
09.07.2016 02:32 19,8 C 71 % 1015,8 hPa 0,0 l/m 6,9 km/h (2 Bft) S 175 0 min 0,000 mm 0,0 UV-I 0 W/m 14,4 C 19,6 C 9,7 km/h (2 Bft) 97,73 %
09.07.2016 02:34 19,9 C 70 % 1015,8 hPa 0,0 l/m 10,4 km/h (2 Bft) SW 236 0 min 0,000 mm 0,0 UV-I 0 W/m 14,3 C 18,4 C 14,5 km/h (3 Bft) 94,34 %
09.07.2016 02:36 19,9 C 70 % 1015,8 hPa 0,0 l/m 7,1 km/h (2 Bft) SW 217 0 min 0,000 mm 0,0 UV-I 0 W/m 14,3 C 19,6 C 8,0 km/h (2 Bft) 97,56 %
09.07.2016 02:38 19,9 C 70 % 1015,8 hPa 0,0 l/m 8,7 km/h (2 Bft) SW 224 0 min 0,000 mm 0,0 UV-I 0 W/m 14,3 C 19,0 C 14,5 km/h (3 Bft) 96,43 %
09.07.2016 02:40 19,9 C 70 % 1015,8 hPa 0,0 l/m 9,7 km/h (2 Bft) W-SW 238 0 min 0,000 mm 0,0 UV-I 0 W/m 14,3 C 18,6 C 14,5 km/h (3 Bft) 100,00 %
09.07.2016 02:42 19,9 C 70 % 1015,8 hPa 0,0 l/m 11,0 km/h (2 Bft) W-SW 246 0 min 0,000 mm 0,0 UV-I 0 W/m 14,3 C 18,2 C 16,1 km/h (3 Bft) 100,00 %
09.07.2016 02:44 19,9 C 70 % 1015,9 hPa 0,0 l/m 7,1 km/h (2 Bft) SW 220 0 min 0,000 mm 0,0 UV-I 0 W/m 14,3 C 19,6 C 9,7 km/h (2 Bft) 100,00 %
09.07.2016 02:46 19,9 C 71 % 1016,0 hPa 0,0 l/m 11,1 km/h (2 Bft) SW 223 0 min 0,000 mm 0,0 UV-I 0 W/m 14,5 C 18,2 C 14,5 km/h (3 Bft) 97,06 %
09.07.2016 02:48 19,9 C 71 % 1016,1 hPa 0,0 l/m 11,2 km/h (2 Bft) SW 227 0 min 0,000 mm 0,0 UV-I 0 W/m 14,5 C 18,2 C 16,1 km/h (3 Bft) 100,00 %
09.07.2016 02:50 19,9 C 72 % 1016,2 hPa 0,0 l/m 9,4 km/h (2 Bft) SW 217 0 min 0,000 mm 0,0 UV-I 0 W/m 14,7 C 18,7 C 14,5 km/h (3 Bft) 100,00 %
09.07.2016 02:52 19,9 C 72 % 1016,3 hPa 0,0 l/m 8,5 km/h (2 Bft) W-SW 249 0 min 0,000 mm 0,0 UV-I 0 W/m 14,7 C 19,1 C 14,5 km/h (3 Bft) 100,00 %
09.07.2016 02:54 19,8 C 74 % 1016,4 hPa 0,0 l/m 12,2 km/h (2 Bft) W-SW 254 0 min 0,000 mm 0,0 UV-I 0 W/m 15,0 C 17,7 C 16,1 km/h (3 Bft) 98,00 %
09.07.2016 02:56 19,8 C 74 % 1016,3 hPa 0,2 l/m 7,6 km/h (2 Bft) W-SW 248 0 min 0,000 mm 0,0 UV-I 0 W/m 15,0 C 19,3 C 11,3 km/h (2 Bft) 100,00 %
09.07.2016 02:58 19,7 C 75 % 1016,1 hPa 0,0 l/m 5,4 km/h (1 Bft) SW 221 0 min 0,000 mm 0,0 UV-I 0 W/m 15,1 C 19,7 C 8,0 km/h (2 Bft) 100,00 %
09.07.2016 03:00 19,5 C 76 % 1015,9 hPa 0,4 l/m 8,1 km/h (2 Bft) S-SW 203 0 min 0,000 mm 0,0 UV-I 0 W/m 15,2 C 18,8 C 11,3 km/h (2 Bft) 100,00 %
09.07.2016 03:02 19,4 C 76 % 1015,9 hPa 0,0 l/m 6,5 km/h (2 Bft) S-SW 192 0 min 0,051 mm 0,0 UV-I 0 W/m 15,1 C 19,4 C 9,7 km/h (2 Bft) 100,00 %
09.07.2016 03:04 19,3 C 77 % 1016,1 hPa 0,0 l/m 8,0 km/h (2 Bft) SW 231 0 min 0,000 mm 0,0 UV-I 0 W/m 15,2 C 18,6 C 16,1 km/h (3 Bft) 100,00 %
09.07.2016 03:06 19,2 C 78 % 1016,3 hPa 0,0 l/m 9,6 km/h (2 Bft) S-SW 198 0 min 0,000 mm 0,0 UV-I 0 W/m 15,3 C 17,9 C 14,5 km/h (3 Bft) 100,00 %
09.07.2016 03:08 19,0 C 80 % 1016,3 hPa 0,0 l/m 8,9 km/h (2 Bft) W-SW 246 0 min 0,000 mm 0,0 UV-I 0 W/m 15,5 C 17,9 C 14,5 km/h (3 Bft) 100,00 %
09.07.2016 03:10 18,9 C 79 % 1016,2 hPa 0,0 l/m 9,1 km/h (2 Bft) SW 230 0 min 0,000 mm 0,0 UV-I 0 W/m 15,2 C 17,8 C 14,5 km/h (3 Bft) 97,87 %
09.07.2016 03:12 18,8 C 79 % 1016,2 hPa 0,0 l/m 8,6 km/h (2 Bft) SW 221 0 min 0,000 mm 0,0 UV-I 0 W/m 15,1 C 17,8 C 14,5 km/h (3 Bft) 100,00 %
09.07.2016 03:14 18,8 C 78 % 1016,1 hPa 0,0 l/m 6,0 km/h (2 Bft) SW 232 0 min 0,000 mm 0,0 UV-I 0 W/m 14,9 C 18,8 C 9,7 km/h (2 Bft) 100,00 %
09.07.2016 03:16 18,8 C 79 % 1016,2 hPa 0,0 l/m 7,1 km/h (2 Bft) SW 227 0 min 0,000 mm 0,0 UV-I 0 W/m 15,1 C 18,5 C 11,3 km/h (2 Bft) 98,00 %
09.07.2016 03:18 18,8 C 80 % 1016,2 hPa 0,0 l/m 6,4 km/h (2 Bft) SW 227 0 min 0,000 mm 0,0 UV-I 0 W/m 15,3 C 18,8 C 11,3 km/h (2 Bft) 100,00 %
09.07.2016 03:20 18,7 C 80 % 1016,2 hPa 0,0 l/m 7,3 km/h (2 Bft) S-SW 198 0 min 0,000 mm 0,0 UV-I 0 W/m 15,2 C 18,3 C 12,9 km/h (3 Bft) 100,00 %
09.07.2016 03:22 18,6 C 81 % 1016,1 hPa 0,0 l/m 7,0 km/h (2 Bft) SW 221 0 min 0,000 mm 0,0 UV-I 0 W/m 15,3 C 18,3 C 9,7 km/h (2 Bft) 97,73 %
09.07.2016 03:24 18,6 C 81 % 1016,2 hPa 0,0 l/m 5,5 km/h (1 Bft) S-SW 212 0 min 0,000 mm 0,0 UV-I 0 W/m 15,3 C 18,6 C 8,0 km/h (2 Bft) 100,00 %
09.07.2016 03:26 18,5 C 81 % 1016,2 hPa 0,0 l/m 6,6 km/h (2 Bft) SW 234 0 min 0,000 mm 0,0 UV-I 0 W/m 15,2 C 18,4 C 9,7 km/h (2 Bft) 100,00 %
09.07.2016 03:28 18,4 C 82 % 1016,2 hPa 0,0 l/m 5,8 km/h (2 Bft) S-SW 204 0 min 0,000 mm 0,0 UV-I 0 W/m 15,3 C 18,4 C 8,0 km/h (2 Bft) 100,00 %
09.07.2016 03:30 18,4 C 82 % 1016,2 hPa 0,0 l/m 6,0 km/h (2 Bft) W-SW 240 0 min 0,000 mm 0,0 UV-I 0 W/m 15,3 C 18,4 C 9,7 km/h (2 Bft) 100,00 %
09.07.2016 03:32 18,4 C 82 % 1016,1 hPa 0,0 l/m 5,5 km/h (1 Bft) SW 226 0 min 0,000 mm 0,0 UV-I 0 W/m 15,3 C 18,4 C 9,7 km/h (2 Bft) 100,00 %
09.07.2016 03:34 18,3 C 82 % 1016,1 hPa 0,0 l/m 6,0 km/h (2 Bft) SW 226 0 min 0,000 mm 0,0 UV-I 0 W/m 15,2 C 18,3 C 8,0 km/h (2 Bft) 100,00 %
09.07.2016 03:36 18,3 C 83 % 1016,1 hPa 0,0 l/m 5,6 km/h (1 Bft) SW 216 0 min 0,000 mm 0,0 UV-I 0 W/m 15,4 C 18,3 C 8,0 km/h (2 Bft) 100,00 %
09.07.2016 03:38 18,3 C 83 % 1016,2 hPa 0,0 l/m 4,9 km/h (1 Bft) SW 217 0 min 0,000 mm 0,0 UV-I 0 W/m 15,4 C 18,3 C 6,4 km/h (2 Bft) 100,00 %
09.07.2016 03:40 18,2 C 83 % 1016,2 hPa 0,0 l/m 4,9 km/h (1 Bft) W-SW 257 0 min 0,000 mm 0,0 UV-I 0 W/m 15,3 C 18,2 C 6,4 km/h (2 Bft) 100,00 %
09.07.2016 03:42 18,3 C 84 % 1016,3 hPa 0,0 l/m 5,4 km/h (1 Bft) W-SW 250 0 min 0,000 mm 0,0 UV-I 0 W/m 15,5 C 18,3 C 9,7 km/h (2 Bft) 100,00 %
09.07.2016 03:44 18,2 C 84 % 1016,3 hPa 0,0 l/m 4,3 km/h (1 Bft) W 261 0 min 0,000 mm 0,0 UV-I 0 W/m 15,4 C 18,2 C 8,0 km/h (2 Bft) 100,00 %
09.07.2016 03:46 18,2 C 84 % 1016,4 hPa 0,0 l/m 4,0 km/h (1 Bft) W-SW 257 0 min 0,000 mm 0,0 UV-I 0 W/m 15,4 C 18,2 C 6,4 km/h (2 Bft) 100,00 %
09.07.2016 03:48 18,2 C 85 % 1016,4 hPa 0,0 l/m 4,5 km/h (1 Bft) W-SW 240 0 min 0,000 mm 0,0 UV-I 0 W/m 15,6 C 18,2 C 8,0 km/h (2 Bft) 100,00 %
09.07.2016 03:50 18,1 C 85 % 1016,5 hPa 0,0 l/m 11,6 km/h (2 Bft) W-SW 253 0 min 0,000 mm 0,0 UV-I 0 W/m 15,5 C 16,0 C 16,1 km/h (3 Bft) 100,00 %
09.07.2016 03:52 18,1 C 84 % 1016,5 hPa 0,0 l/m 12,5 km/h (3 Bft) W-SW 245 0 min 0,000 mm 0,0 UV-I 0 W/m 15,4 C 15,7 C 16,1 km/h (3 Bft) 100,00 %
09.07.2016 03:54 18,2 C 83 % 1016,4 hPa 0,0 l/m 9,3 km/h (2 Bft) W-SW 240 0 min 0,000 mm 0,0 UV-I 0 W/m 15,3 C 16,9 C 14,5 km/h (3 Bft) 100,00 %
09.07.2016 03:56 18,2 C 84 % 1016,4 hPa 0,0 l/m 12,6 km/h (3 Bft) SW 215 0 min 0,000 mm 0,0 UV-I 0 W/m 15,4 C 15,8 C 19,3 km/h (3 Bft) 100,00 %
09.07.2016 03:58 18,2 C 84 % 1016,2 hPa 0,0 l/m 9,5 km/h (2 Bft) S-SW 195 0 min 0,000 mm 0,0 UV-I 0 W/m 15,4 C 16,8 C 12,9 km/h (3 Bft) 97,56 %
09.07.2016 04:00 18,2 C 84 % 1016,2 hPa 0,0 l/m 12,2 km/h (2 Bft) SW 214 0 min 0,025 mm 0,0 UV-I 0 W/m 15,4 C 15,9 C 17,7 km/h (3 Bft) 96,23 %
09.07.2016 04:02 18,3 C 83 % 1016,3 hPa 0,0 l/m 12,5 km/h (3 Bft) S 189 0 min 0,000 mm 0,0 UV-I 0 W/m 15,4 C 15,9 C 17,7 km/h (3 Bft) 90,32 %
09.07.2016 04:04 18,3 C 82 % 1016,3 hPa 0,0 l/m 10,7 km/h (2 Bft) S-SW 200 0 min 0,000 mm 0,0 UV-I 0 W/m 15,2 C 16,5 C 16,1 km/h (3 Bft) 100,00 %
09.07.2016 04:06 18,3 C 82 % 1016,2 hPa 0,0 l/m 7,9 km/h (2 Bft) S-SW 213 0 min 0,000 mm 0,0 UV-I 0 W/m 15,2 C 17,6 C 14,5 km/h (3 Bft) 100,00 %
09.07.2016 04:08 18,3 C 82 % 1016,1 hPa 0,0 l/m 5,6 km/h (1 Bft) W 263 0 min 0,000 mm 0,0 UV-I 0 W/m 15,2 C 18,3 C 11,3 km/h (2 Bft) 94,34 %
09.07.2016 04:10 18,4 C 83 % 1015,9 hPa 0,0 l/m 5,4 km/h (1 Bft) SW 232 0 min 0,000 mm 0,0 UV-I 0 W/m 15,5 C 18,4 C 8,0 km/h (2 Bft) 97,56 %
09.07.2016 04:12 18,4 C 83 % 1015,8 hPa 0,0 l/m 6,1 km/h (2 Bft) S-SW 209 0 min 0,000 mm 0,0 UV-I 0 W/m 15,5 C 18,4 C 11,3 km/h (2 Bft) 95,74 %
09.07.2016 04:14 18,3 C 83 % 1015,9 hPa 0,0 l/m 6,9 km/h (2 Bft) S-SW 210 0 min 0,000 mm 0,0 UV-I 0 W/m 15,4 C 18,1 C 9,7 km/h (2 Bft) 95,74 %
09.07.2016 04:16 18,3 C 83 % 1015,9 hPa 0,0 l/m 7,9 km/h (2 Bft) S-SW 204 0 min 0,000 mm 0,0 UV-I 0 W/m 15,4 C 17,6 C 12,9 km/h (3 Bft) 97,62 %
09.07.2016 04:18 18,3 C 83 % 1015,9 hPa 0,0 l/m 7,6 km/h (2 Bft) S-SW 211 0 min 0,000 mm 0,0 UV-I 0 W/m 15,4 C 17,7 C 11,3 km/h (2 Bft) 94,55 %
09.07.2016 04:20 18,3 C 82 % 1015,9 hPa 0,0 l/m 9,0 km/h (2 Bft) SW 220 0 min 0,000 mm 0,0 UV-I 0 W/m 15,2 C 17,1 C 12,9 km/h (3 Bft) 97,62 %
09.07.2016 04:22 18,3 C 82 % 1015,9 hPa 0,0 l/m 9,0 km/h (2 Bft) W-SW 238 0 min 0,000 mm 0,0 UV-I 0 W/m 15,2 C 17,1 C 14,5 km/h (3 Bft) 96,00 %
09.07.2016 04:24 18,4 C 81 % 1015,8 hPa 0,0 l/m 10,6 km/h (2 Bft) S-SW 207 0 min 0,000 mm 0,0 UV-I 0 W/m 15,1 C 16,7 C 16,1 km/h (3 Bft) 98,00 %
09.07.2016 04:26 18,4 C 82 % 1015,9 hPa 0,0 l/m 11,5 km/h (2 Bft) SW 216 0 min 0,000 mm 0,0 UV-I 0 W/m 15,3 C 16,4 C 19,3 km/h (3 Bft) 97,96 %
09.07.2016 04:28 18,4 C 81 % 1015,9 hPa 0,0 l/m 10,1 km/h (2 Bft) SW 228 0 min 0,000 mm 0,0 UV-I 0 W/m 15,1 C 16,8 C 14,5 km/h (3 Bft) 97,73 %
09.07.2016 04:30 18,4 C 81 % 1015,9 hPa 0,0 l/m 9,6 km/h (2 Bft) SW 221 0 min 0,000 mm 0,0 UV-I 0 W/m 15,1 C 17,0 C 16,1 km/h (3 Bft) 98,00 %
09.07.2016 04:32 18,5 C 81 % 1015,9 hPa 0,0 l/m 10,1 km/h (2 Bft) S-SW 208 0 min 0,000 mm 0,0 UV-I 0 W/m 15,2 C 16,9 C 14,5 km/h (3 Bft) 97,56 %
09.07.2016 04:34 18,5 C 80 % 1015,9 hPa 0,0 l/m 11,7 km/h (2 Bft) SW 218 0 min 0,000 mm 0,0 UV-I 0 W/m 15,0 C 16,4 C 16,1 km/h (3 Bft) 95,74 %
09.07.2016 04:36 18,6 C 81 % 1015,9 hPa 0,0 l/m 10,7 km/h (2 Bft) SW 220 0 min 0,000 mm 0,0 UV-I 0 W/m 15,3 C 16,8 C 16,1 km/h (3 Bft) 98,00 %
09.07.2016 04:38 18,6 C 80 % 1016,0 hPa 0,0 l/m 9,2 km/h (2 Bft) S-SW 207 0 min 0,000 mm 0,0 UV-I 0 W/m 15,1 C 17,4 C 17,7 km/h (3 Bft) 97,87 %
09.07.2016 04:40 18,6 C 80 % 1015,9 hPa 0,0 l/m 9,7 km/h (2 Bft) SW 215 0 min 0,000 mm 0,0 UV-I 0 W/m 15,1 C 17,2 C 17,7 km/h (3 Bft) 97,87 %
09.07.2016 04:42 18,7 C 80 % 1016,0 hPa 0,0 l/m 9,7 km/h (2 Bft) SW 215 0 min 0,000 mm 0,0 UV-I 0 W/m 15,2 C 17,3 C 14,5 km/h (3 Bft) 97,56 %
09.07.2016 04:44 18,7 C 80 % 1016,1 hPa 0,0 l/m 11,3 km/h (2 Bft) S 171 0 min 0,000 mm 0,0 UV-I 0 W/m 15,2 C 16,8 C 24,1 km/h (4 Bft) 98,21 %
09.07.2016 04:46 18,7 C 80 % 1016,0 hPa 0,0 l/m 11,7 km/h (2 Bft) S-SW 200 0 min 0,000 mm 0,0 UV-I 0 W/m 15,2 C 16,6 C 24,1 km/h (4 Bft) 100,00 %
09.07.2016 04:48 18,7 C 80 % 1016,0 hPa 0,0 l/m 10,9 km/h (2 Bft) S-SW 198 0 min 0,000 mm 0,0 UV-I 0 W/m 15,2 C 16,9 C 14,5 km/h (3 Bft) 100,00 %
09.07.2016 04:50 18,7 C 80 % 1015,9 hPa 0,0 l/m 10,9 km/h (2 Bft) S-SW 198 0 min 0,000 mm 0,0 UV-I 0 W/m 15,2 C 16,9 C 16,1 km/h (3 Bft) 97,37 %
09.07.2016 04:52 18,7 C 80 % 1015,9 hPa 0,0 l/m 9,7 km/h (2 Bft) S 184 0 min 0,000 mm 0,0 UV-I 0 W/m 15,2 C 17,3 C 14,5 km/h (3 Bft) 97,87 %
09.07.2016 04:54 18,7 C 80 % 1015,9 hPa 0,0 l/m 8,9 km/h (2 Bft) S-SO 156 0 min 0,000 mm 0,0 UV-I 0 W/m 15,2 C 17,6 C 11,3 km/h (2 Bft) 100,00 %
09.07.2016 04:56 18,7 C 80 % 1015,9 hPa 0,0 l/m 8,7 km/h (2 Bft) S 178 0 min 0,000 mm 0,0 UV-I 0 W/m 15,2 C 17,7 C 14,5 km/h (3 Bft) 100,00 %
09.07.2016 04:58 18,7 C 80 % 1015,9 hPa 0,0 l/m 9,3 km/h (2 Bft) S 175 0 min 0,000 mm 0,0 UV-I 0 W/m 15,2 C 17,5 C 14,5 km/h (3 Bft) 98,11 %
09.07.2016 05:00 18,7 C 80 % 1015,9 hPa 0,0 l/m 8,9 km/h (2 Bft) S-SW 200 0 min 0,025 mm 0,0 UV-I 0 W/m 15,2 C 17,6 C 12,9 km/h (3 Bft) 100,00 %
09.07.2016 05:02 18,7 C 80 % 1016,0 hPa 0,0 l/m 9,4 km/h (2 Bft) S 173 0 min 0,000 mm 0,0 UV-I 0 W/m 15,2 C 17,4 C 14,5 km/h (3 Bft) 97,73 %
09.07.2016 05:04 18,7 C 80 % 1016,1 hPa 0,0 l/m 9,4 km/h (2 Bft) W-SW 250 0 min 0,000 mm 0,0 UV-I 0 W/m 15,2 C 17,4 C 14,5 km/h (3 Bft) 98,21 %
09.07.2016 05:06 18,7 C 81 % 1016,1 hPa 0,0 l/m 8,2 km/h (2 Bft) S-SW 201 0 min 0,000 mm 0,0 UV-I 0 W/m 15,4 C 17,9 C 12,9 km/h (3 Bft) 100,00 %
09.07.2016 05:08 18,7 C 81 % 1016,1 hPa 0,0 l/m 9,0 km/h (2 Bft) S-SW 209 0 min 0,000 mm 0,0 UV-I 0 W/m 15,4 C 17,6 C 12,9 km/h (3 Bft) 100,00 %
09.07.2016 05:10 18,6 C 82 % 1016,1 hPa 0,2 l/m 9,7 km/h (2 Bft) S-SW 205 0 min 0,000 mm 0,0 UV-I 0 W/m 15,5 C 17,2 C 12,9 km/h (3 Bft) 100,00 %
09.07.2016 05:12 18,5 C 82 % 1016,1 hPa 0,0 l/m 8,4 km/h (2 Bft) S 186 0 min 0,000 mm 0,0 UV-I 0 W/m 15,4 C 17,6 C 11,3 km/h (2 Bft) 100,00 %
09.07.2016 05:14 18,4 C 82 % 1016,0 hPa 0,0 l/m 8,8 km/h (2 Bft) S 178 0 min 0,000 mm 0,0 UV-I 0 W/m 15,3 C 17,3 C 16,1 km/h (3 Bft) 100,00 %
09.07.2016 05:16 18,4 C 82 % 1015,9 hPa 0,0 l/m 8,4 km/h (2 Bft) S-SW 192 0 min 0,000 mm 0,0 UV-I 0 W/m 15,3 C 17,5 C 16,1 km/h (3 Bft) 100,00 %
09.07.2016 05:18 18,4 C 83 % 1016,0 hPa 0,0 l/m 9,8 km/h (2 Bft) S 173 0 min 0,000 mm 0,0 UV-I 0 W/m 15,5 C 16,9 C 14,5 km/h (3 Bft) 100,00 %
09.07.2016 05:20 18,3 C 83 % 1015,8 hPa 0,0 l/m 9,2 km/h (2 Bft) S 171 0 min 0,000 mm 0,0 UV-I 0 W/m 15,4 C 17,1 C 12,9 km/h (3 Bft) 98,46 %
09.07.2016 05:22 18,3 C 83 % 1015,8 hPa 0,0 l/m 8,2 km/h (2 Bft) S-SW 212 0 min 0,000 mm 0,0 UV-I 0 W/m 15,4 C 17,5 C 14,5 km/h (3 Bft) 100,00 %
09.07.2016 05:24 18,3 C 83 % 1015,8 hPa 0,0 l/m 7,9 km/h (2 Bft) S 173 0 min 0,000 mm 0,0 UV-I 0 W/m 15,4 C 17,6 C 11,3 km/h (2 Bft) 100,00 %
09.07.2016 05:26 18,3 C 83 % 1015,8 hPa 0,0 l/m 7,4 km/h (2 Bft) S-SO 167 0 min 0,000 mm 0,0 UV-I 0 W/m 15,4 C 17,8 C 11,3 km/h (2 Bft) 100,00 %
09.07.2016 05:28 18,3 C 83 % 1015,8 hPa 0,0 l/m 5,4 km/h (1 Bft) S 190 0 min 0,000 mm 0,0 UV-I 0 W/m 15,4 C 18,3 C 8,0 km/h (2 Bft) 100,00 %
09.07.2016 05:30 18,3 C 83 % 1015,7 hPa 0,0 l/m 5,3 km/h (1 Bft) S 169 0 min 0,000 mm 0,0 UV-I 0 W/m 15,4 C 18,3 C 9,7 km/h (2 Bft) 100,00 %
09.07.2016 05:32 18,3 C 83 % 1015,7 hPa 0,0 l/m 6,8 km/h (2 Bft) S-SO 159 0 min 0,000 mm 0,0 UV-I 0 W/m 15,4 C 18,1 C 12,9 km/h (3 Bft) 100,00 %
09.07.2016 05:34 18,3 C 83 % 1015,7 hPa 0,0 l/m 7,5 km/h (2 Bft) S-SO 166 0 min 0,000 mm 0,0 UV-I 0 W/m 15,4 C 17,8 C 12,9 km/h (3 Bft) 100,00 %
09.07.2016 05:36 18,3 C 83 % 1015,7 hPa 0,0 l/m 6,0 km/h (2 Bft) S 182 0 min 0,000 mm 0,0 UV-I 0 W/m 15,4 C 18,3 C 8,0 km/h (2 Bft) 100,00 %
09.07.2016 05:38 18,3 C 83 % 1015,8 hPa 0,0 l/m 4,9 km/h (1 Bft) S 186 0 min 0,000 mm 0,0 UV-I 0 W/m 15,4 C 18,3 C 8,0 km/h (2 Bft) 100,00 %
09.07.2016 05:40 18,3 C 84 % 1015,8 hPa 0,0 l/m 5,0 km/h (1 Bft) S-SW 192 0 min 0,000 mm 0,0 UV-I 0 W/m 15,5 C 18,3 C 8,0 km/h (2 Bft) 100,00 %
09.07.2016 05:42 18,2 C 84 % 1015,8 hPa 0,0 l/m 4,9 km/h (1 Bft) S 188 0 min 0,000 mm 0,0 UV-I 0 W/m 15,4 C 18,2 C 6,4 km/h (2 Bft) 97,44 %
09.07.2016 05:44 18,2 C 84 % 1015,9 hPa 0,0 l/m 5,9 km/h (2 Bft) S-SW 196 0 min 0,000 mm 0,0 UV-I 0 W/m 15,4 C 18,2 C 8,0 km/h (2 Bft) 100,00 %
09.07.2016 05:46 18,2 C 85 % 1015,9 hPa 0,0 l/m 4,5 km/h (1 Bft) S-SW 211 0 min 0,000 mm 0,0 UV-I 0 W/m 15,6 C 18,2 C 8,0 km/h (2 Bft) 100,00 %
09.07.2016 05:48 18,2 C 85 % 1016,1 hPa 0,0 l/m 3,5 km/h (1 Bft) SW 233 0 min 0,000 mm 0,0 UV-I 0 W/m 15,6 C 18,2 C 6,4 km/h (2 Bft) 100,00 %
09.07.2016 05:50 18,2 C 85 % 1016,4 hPa 0,0 l/m 4,7 km/h (1 Bft) N 360 0 min 0,000 mm 0,0 UV-I 0 W/m 15,6 C 18,2 C 8,0 km/h (2 Bft) 94,00 %
09.07.2016 05:52 18,1 C 86 % 1016,5 hPa 0,0 l/m 4,4 km/h (1 Bft) NW 319 0 min 0,000 mm 0,0 UV-I 0 W/m 15,7 C 18,1 C 8,0 km/h (2 Bft) 98,00 %
09.07.2016 05:54 17,9 C 86 % 1016,6 hPa 0,0 l/m 6,2 km/h (2 Bft) N 9 0 min 0,000 mm 0,0 UV-I 5 W/m 15,5 C 17,9 C 9,7 km/h (2 Bft) 100,00 %
09.07.2016 05:56 17,8 C 87 % 1016,7 hPa 0,0 l/m 5,9 km/h (2 Bft) N-NW 339 0 min 0,000 mm 0,0 UV-I 6 W/m 15,6 C 17,8 C 14,5 km/h (3 Bft) 100,00 %
09.07.2016 05:58 17,8 C 87 % 1016,7 hPa 0,0 l/m 4,4 km/h (1 Bft) N-NW 329 0 min 0,000 mm 0,0 UV-I 7 W/m 15,6 C 17,8 C 11,3 km/h (2 Bft) 98,53 %
09.07.2016 06:00 17,7 C 87 % 1016,7 hPa 0,0 l/m 2,5 km/h (1 Bft) NW 320 0 min 0,026 mm 0,0 UV-I 8 W/m 15,5 C 17,7 C 4,8 km/h (1 Bft) 97,56 %
09.07.2016 06:02 17,6 C 88 % 1016,7 hPa 0,0 l/m 4,1 km/h (1 Bft) N 5 0 min 0,000 mm 0,0 UV-I 9 W/m 15,6 C 17,6 C 9,7 km/h (2 Bft) 100,00 %
09.07.2016 06:04 17,6 C 88 % 1016,7 hPa 0,0 l/m 2,1 km/h (1 Bft) N-NW 346 0 min 0,000 mm 0,0 UV-I 9 W/m 15,6 C 17,6 C 4,8 km/h (1 Bft) 100,00 %
09.07.2016 06:06 17,5 C 89 % 1016,7 hPa 0,0 l/m 4,8 km/h (1 Bft) W 259 0 min 0,000 mm 0,0 UV-I 10 W/m 15,7 C 17,5 C 9,7 km/h (2 Bft) 100,00 %
09.07.2016 06:08 17,5 C 89 % 1016,7 hPa 0,0 l/m 5,8 km/h (2 Bft) W 265 0 min 0,000 mm 0,0 UV-I 11 W/m 15,7 C 17,5 C 11,3 km/h (2 Bft) 97,14 %
09.07.2016 06:10 17,5 C 89 % 1016,8 hPa 0,0 l/m 6,9 km/h (2 Bft) W-NW 285 0 min 0,000 mm 0,0 UV-I 10 W/m 15,7 C 17,3 C 14,5 km/h (3 Bft) 97,56 %
09.07.2016 06:12 17,6 C 89 % 1016,8 hPa 0,0 l/m 5,7 km/h (1 Bft) W-SW 244 0 min 0,000 mm 0,0 UV-I 9 W/m 15,8 C 17,6 C 11,3 km/h (2 Bft) 96,23 %
09.07.2016 06:14 17,6 C 89 % 1016,8 hPa 0,0 l/m 9,7 km/h (2 Bft) W-SW 251 0 min 0,000 mm 0,0 UV-I 9 W/m 15,8 C 16,1 C 16,1 km/h (3 Bft) 92,59 %
09.07.2016 06:16 17,6 C 89 % 1016,8 hPa 0,2 l/m 7,1 km/h (2 Bft) S-SW 209 0 min 0,000 mm 0,0 UV-I 9 W/m 15,8 C 17,3 C 11,3 km/h (2 Bft) 94,92 %
09.07.2016 06:18 17,6 C 89 % 1016,8 hPa 0,0 l/m 8,1 km/h (2 Bft) W-SW 248 0 min 0,000 mm 0,0 UV-I 9 W/m 15,8 C 16,8 C 12,9 km/h (3 Bft) 96,00 %
09.07.2016 06:20 17,6 C 89 % 1016,9 hPa 0,0 l/m 7,9 km/h (2 Bft) W-SW 242 0 min 0,000 mm 0,0 UV-I 9 W/m 15,8 C 16,9 C 11,3 km/h (2 Bft) 97,37 %
09.07.2016 06:22 17,6 C 89 % 1016,9 hPa 0,0 l/m 7,9 km/h (2 Bft) W-SW 254 0 min 0,000 mm 0,0 UV-I 10 W/m 15,8 C 16,9 C 11,3 km/h (2 Bft) 97,73 %
09.07.2016 06:24 17,5 C 90 % 1016,8 hPa 0,0 l/m 6,6 km/h (2 Bft) S-SW 207 0 min 0,000 mm 0,0 UV-I 11 W/m 15,8 C 17,4 C 11,3 km/h (2 Bft) 98,00 %
09.07.2016 06:26 17,4 C 90 % 1016,9 hPa 0,0 l/m 7,1 km/h (2 Bft) SW 221 0 min 0,000 mm 0,0 UV-I 9 W/m 15,7 C 17,1 C 11,3 km/h (2 Bft) 98,21 %
09.07.2016 06:28 17,4 C 90 % 1016,8 hPa 0,0 l/m 6,0 km/h (2 Bft) W-SW 238 0 min 0,000 mm 0,0 UV-I 9 W/m 15,7 C 17,4 C 9,7 km/h (2 Bft) 97,73 %
09.07.2016 06:30 17,4 C 90 % 1016,9 hPa 0,0 l/m 6,2 km/h (2 Bft) W 261 0 min 0,000 mm 0,0 UV-I 9 W/m 15,7 C 17,4 C 8,0 km/h (2 Bft) 98,11 %
09.07.2016 06:32 17,4 C 90 % 1017,0 hPa 0,0 l/m 6,5 km/h (2 Bft) W-SW 241 0 min 0,000 mm 0,0 UV-I 7 W/m 15,7 C 17,4 C 9,7 km/h (2 Bft) 92,68 %
09.07.2016 06:34 17,4 C 91 % 1017,0 hPa 0,0 l/m 5,4 km/h (1 Bft) S-SW 207 0 min 0,000 mm 0,0 UV-I 7 W/m 15,9 C 17,4 C 8,0 km/h (2 Bft) 94,00 %
09.07.2016 06:36 17,4 C 91 % 1017,1 hPa 0,0 l/m 7,1 km/h (2 Bft) S-SW 202 0 min 0,000 mm 0,0 UV-I 7 W/m 15,9 C 17,1 C 11,3 km/h (2 Bft) 98,00 %
09.07.2016 06:38 17,3 C 91 % 1017,0 hPa 0,0 l/m 5,5 km/h (1 Bft) W-SW 245 0 min 0,000 mm 0,0 UV-I 10 W/m 15,8 C 17,3 C 8,0 km/h (2 Bft) 97,87 %
09.07.2016 06:40 17,3 C 91 % 1017,0 hPa 0,0 l/m 4,5 km/h (1 Bft) W-SW 255 0 min 0,000 mm 0,0 UV-I 17 W/m 15,8 C 17,3 C 6,4 km/h (2 Bft) 97,37 %
09.07.2016 06:42 17,3 C 91 % 1017,1 hPa 0,0 l/m 2,7 km/h (1 Bft) W-SW 252 0 min 0,000 mm 0,0 UV-I 25 W/m 15,8 C 17,3 C 4,8 km/h (1 Bft) 100,00 %
09.07.2016 06:44 17,3 C 91 % 1017,1 hPa 0,0 l/m 3,7 km/h (1 Bft) W-SW 239 0 min 0,000 mm 0,0 UV-I 31 W/m 15,8 C 17,3 C 6,4 km/h (2 Bft) 97,87 %
09.07.2016 06:46 17,3 C 92 % 1017,0 hPa 0,0 l/m 4,0 km/h (1 Bft) SW 230 0 min 0,000 mm 0,0 UV-I 27 W/m 16,0 C 17,3 C 6,4 km/h (2 Bft) 100,00 %
09.07.2016 06:48 17,3 C 92 % 1017,0 hPa 0,0 l/m 3,5 km/h (1 Bft) S-SW 201 0 min 0,000 mm 0,0 UV-I 18 W/m 16,0 C 17,3 C 6,4 km/h (2 Bft) 98,00 %
09.07.2016 06:50 17,2 C 92 % 1017,0 hPa 0,0 l/m 2,2 km/h (1 Bft) S-SW 200 0 min 0,000 mm 0,0 UV-I 16 W/m 15,9 C 17,2 C 3,2 km/h (1 Bft) 100,00 %
09.07.2016 06:52 17,2 C 92 % 1017,0 hPa 0,0 l/m 2,8 km/h (1 Bft) S-SW 198 0 min 0,000 mm 0,0 UV-I 18 W/m 15,9 C 17,2 C 4,8 km/h (1 Bft) 100,00 %
09.07.2016 06:54 17,2 C 92 % 1017,0 hPa 0,0 l/m 3,7 km/h (1 Bft) S-SW 201 0 min 0,000 mm 0,0 UV-I 16 W/m 15,9 C 17,2 C 4,8 km/h (1 Bft) 100,00 %
09.07.2016 06:56 17,2 C 92 % 1017,1 hPa 0,0 l/m 1,0 km/h (0 Bft) S-SW 201 0 min 0,000 mm 0,0 UV-I 13 W/m 15,9 C 17,2 C 3,2 km/h (1 Bft) 100,00 %
09.07.2016 06:58 17,2 C 92 % 1017,1 hPa 0,0 l/m 0,8 km/h (0 Bft) S-SW 201 0 min 0,000 mm 0,0 UV-I 12 W/m 15,9 C 17,2 C 1,6 km/h (1 Bft) 100,00 %
09.07.2016 07:00 17,2 C 92 % 1017,1 hPa 0,0 l/m 1,3 km/h (1 Bft) S-SW 201 0 min 0,000 mm 0,0 UV-I 12 W/m 15,9 C 17,2 C 3,2 km/h (1 Bft) 100,00 %
09.07.2016 07:02 17,3 C 92 % 1017,3 hPa 0,0 l/m 1,7 km/h (1 Bft) S-SW 201 0 min 0,025 mm 0,0 UV-I 13 W/m 16,0 C 17,3 C 3,2 km/h (1 Bft) 100,00 %
09.07.2016 07:04 17,3 C 92 % 1017,3 hPa 0,0 l/m 3,4 km/h (1 Bft) S-SW 201 0 min 0,000 mm 0,0 UV-I 15 W/m 16,0 C 17,3 C 4,8 km/h (1 Bft) 100,00 %
09.07.2016 07:06 17,3 C 92 % 1017,4 hPa 0,0 l/m 3,2 km/h (1 Bft) S-SW 201 0 min 0,000 mm 0,0 UV-I 19 W/m 16,0 C 17,3 C 4,8 km/h (1 Bft) 97,87 %
09.07.2016 07:08 17,3 C 92 % 1017,4 hPa 0,0 l/m 3,0 km/h (1 Bft) S-SW 211 0 min 0,000 mm 0,0 UV-I 28 W/m 16,0 C 17,3 C 4,8 km/h (1 Bft) 100,00 %
09.07.2016 07:10 17,3 C 93 % 1017,5 hPa 0,0 l/m 1,3 km/h (1 Bft) S-SW 211 0 min 0,000 mm 0,0 UV-I 38 W/m 16,2 C 17,3 C 4,8 km/h (1 Bft) 100,00 %
09.07.2016 07:12 17,3 C 93 % 1017,5 hPa 0,0 l/m 2,9 km/h (1 Bft) S-SW 211 0 min 0,000 mm 0,0 UV-I 52 W/m 16,2 C 17,3 C 4,8 km/h (1 Bft) 100,00 %
09.07.2016 07:14 17,3 C 93 % 1017,5 hPa 0,0 l/m 2,6 km/h (1 Bft) S 185 0 min 0,000 mm 0,0 UV-I 76 W/m 16,2 C 17,3 C 6,4 km/h (2 Bft) 100,00 %
09.07.2016 07:16 17,3 C 93 % 1017,5 hPa 0,0 l/m 3,9 km/h (1 Bft) S 183 0 min 0,000 mm 0,0 UV-I 81 W/m 16,2 C 17,3 C 6,4 km/h (2 Bft) 100,00 %
09.07.2016 07:18 17,3 C 93 % 1017,5 hPa 0,0 l/m 4,5 km/h (1 Bft) S-SW 213 0 min 0,000 mm 0,0 UV-I 71 W/m 16,2 C 17,3 C 6,4 km/h (2 Bft) 95,74 %
09.07.2016 07:20 17,3 C 92 % 1017,4 hPa 0,0 l/m 4,4 km/h (1 Bft) SW 216 0 min 0,000 mm 0,0 UV-I 74 W/m 16,0 C 17,3 C 6,4 km/h (2 Bft) 100,00 %
09.07.2016 07:22 17,3 C 92 % 1017,4 hPa 0,0 l/m 2,0 km/h (1 Bft) SW 216 0 min 0,000 mm 0,0 UV-I 76 W/m 16,0 C 17,3 C 3,2 km/h (1 Bft) 100,00 %
09.07.2016 07:24 17,4 C 92 % 1017,4 hPa 0,0 l/m 1,4 km/h (1 Bft) SW 216 0 min 0,000 mm 0,0 UV-I 76 W/m 16,1 C 17,4 C 1,6 km/h (1 Bft) 98,00 %
09.07.2016 07:26 17,4 C 92 % 1017,3 hPa 0,0 l/m 3,5 km/h (1 Bft) S-SW 207 0 min 0,000 mm 0,0 UV-I 84 W/m 16,1 C 17,4 C 6,4 km/h (2 Bft) 100,00 %
09.07.2016 07:28 17,4 C 92 % 1017,4 hPa 0,0 l/m 2,4 km/h (1 Bft) S-SW 207 0 min 0,000 mm 0,0 UV-I 93 W/m 16,1 C 17,4 C 6,4 km/h (2 Bft) 98,00 %
09.07.2016 07:30 17,5 C 91 % 1017,4 hPa 0,0 l/m 1,9 km/h (1 Bft) S-SW 196 0 min 0,000 mm 0,0 UV-I 77 W/m 16,0 C 17,5 C 3,2 km/h (1 Bft) 100,00 %
09.07.2016 07:32 17,6 C 92 % 1017,4 hPa 0,0 l/m 3,5 km/h (1 Bft) S-SW 198 0 min 0,000 mm 0,0 UV-I 69 W/m 16,3 C 17,6 C 4,8 km/h (1 Bft) 100,00 %
09.07.2016 07:34 17,6 C 92 % 1017,4 hPa 0,0 l/m 3,6 km/h (1 Bft) S 180 0 min 0,000 mm 0,0 UV-I 76 W/m 16,3 C 17,6 C 6,4 km/h (2 Bft) 100,00 %
09.07.2016 07:36 17,6 C 91 % 1017,4 hPa 0,0 l/m 1,6 km/h (1 Bft) S 180 0 min 0,000 mm 0,0 UV-I 78 W/m 16,1 C 17,6 C 4,8 km/h (1 Bft) 100,00 %
09.07.2016 07:38 17,6 C 92 % 1017,4 hPa 0,0 l/m 2,4 km/h (1 Bft) S-SW 209 0 min 0,000 mm 0,0 UV-I 91 W/m 16,3 C 17,6 C 4,8 km/h (1 Bft) 100,00 %
09.07.2016 07:40 17,7 C 92 % 1017,5 hPa 0,0 l/m 4,0 km/h (1 Bft) SW 225 0 min 0,000 mm 0,0 UV-I 114 W/m 16,4 C 17,7 C 6,4 km/h (2 Bft) 100,00 %
09.07.2016 07:42 17,7 C 92 % 1017,5 hPa 0,0 l/m 3,1 km/h (1 Bft) SW 225 0 min 0,000 mm 0,0 UV-I 132 W/m 16,4 C 17,7 C 4,8 km/h (1 Bft) 97,50 %
09.07.2016 07:44 17,8 C 91 % 1017,5 hPa 0,0 l/m 3,2 km/h (1 Bft) S-SW 209 0 min 0,000 mm 0,0 UV-I 136 W/m 16,3 C 17,8 C 6,4 km/h (2 Bft) 98,00 %
09.07.2016 07:46 17,9 C 92 % 1017,5 hPa 0,0 l/m 5,1 km/h (1 Bft) S 181 0 min 0,000 mm 0,0 UV-I 99 W/m 16,6 C 17,9 C 6,4 km/h (2 Bft) 100,00 %
09.07.2016 07:48 17,9 C 91 % 1017,5 hPa 0,0 l/m 4,1 km/h (1 Bft) S 180 0 min 0,000 mm 0,0 UV-I 67 W/m 16,4 C 17,9 C 8,0 km/h (2 Bft) 100,00 %
09.07.2016 07:50 17,9 C 91 % 1017,5 hPa 0,0 l/m 7,7 km/h (2 Bft) S-SO 153 0 min 0,000 mm 0,0 UV-I 80 W/m 16,4 C 17,3 C 11,3 km/h (2 Bft) 100,00 %
09.07.2016 07:52 17,9 C 92 % 1017,5 hPa 0,0 l/m 5,7 km/h (1 Bft) S-SW 208 0 min 0,000 mm 0,0 UV-I 127 W/m 16,6 C 17,9 C 8,0 km/h (2 Bft) 100,00 %
09.07.2016 07:54 17,9 C 91 % 1017,5 hPa 0,0 l/m 6,4 km/h (2 Bft) SW 215 0 min 0,000 mm 0,0 UV-I 138 W/m 16,4 C 17,9 C 9,7 km/h (2 Bft) 100,00 %
09.07.2016 07:56 18,1 C 91 % 1017,4 hPa 0,0 l/m 5,1 km/h (1 Bft) S-SW 201 0 min 0,000 mm 0,0 UV-I 137 W/m 16,6 C 18,1 C 11,3 km/h (2 Bft) 100,00 %
09.07.2016 07:58 18,1 C 90 % 1017,4 hPa 0,0 l/m 4,9 km/h (1 Bft) S-SW 213 0 min 0,000 mm 0,5 UV-I 126 W/m 16,4 C 18,1 C 8,0 km/h (2 Bft) 100,00 %
09.07.2016 08:00 18,1 C 91 % 1017,4 hPa 0,0 l/m 5,2 km/h (1 Bft) S 175 0 min 0,051 mm 0,5 UV-I 132 W/m 16,6 C 18,1 C 6,4 km/h (2 Bft) 100,00 %
09.07.2016 08:02 18,2 C 90 % 1017,4 hPa 0,0 l/m 5,5 km/h (1 Bft) S-SW 205 0 min 0,000 mm 0,6 UV-I 152 W/m 16,5 C 18,2 C 6,4 km/h (2 Bft) 100,00 %
09.07.2016 08:04 18,2 C 90 % 1017,3 hPa 0,0 l/m 4,9 km/h (1 Bft) S 187 0 min 0,000 mm 0,7 UV-I 165 W/m 16,5 C 18,2 C 8,0 km/h (2 Bft) 100,00 %
09.07.2016 08:06 18,3 C 90 % 1017,4 hPa 0,0 l/m 5,9 km/h (2 Bft) S 181 0 min 0,000 mm 0,6 UV-I 164 W/m 16,6 C 18,3 C 9,7 km/h (2 Bft) 97,37 %
09.07.2016 08:08 18,3 C 90 % 1017,4 hPa 0,0 l/m 5,1 km/h (1 Bft) SW 224 0 min 0,000 mm 0,5 UV-I 140 W/m 16,6 C 18,3 C 8,0 km/h (2 Bft) 98,00 %
09.07.2016 08:10 18,3 C 90 % 1017,5 hPa 0,0 l/m 8,2 km/h (2 Bft) SW 236 0 min 0,000 mm 0,2 UV-I 126 W/m 16,6 C 17,5 C 12,9 km/h (3 Bft) 96,23 %
09.07.2016 08:12 18,3 C 89 % 1017,5 hPa 0,0 l/m 7,5 km/h (2 Bft) W-SW 243 0 min 0,000 mm 0,0 UV-I 103 W/m 16,5 C 17,8 C 11,3 km/h (2 Bft) 95,12 %
09.07.2016 08:14 18,3 C 89 % 1017,6 hPa 0,0 l/m 5,3 km/h (1 Bft) W-SW 249 0 min 0,000 mm 0,0 UV-I 86 W/m 16,5 C 18,3 C 9,7 km/h (2 Bft) 97,62 %
09.07.2016 08:16 18,3 C 89 % 1017,6 hPa 0,0 l/m 3,7 km/h (1 Bft) W-SW 252 0 min 0,000 mm 0,0 UV-I 93 W/m 16,5 C 18,3 C 8,0 km/h (2 Bft) 98,00 %
09.07.2016 08:18 18,3 C 89 % 1017,6 hPa 0,0 l/m 6,0 km/h (2 Bft) W-SW 245 0 min 0,000 mm 0,4 UV-I 111 W/m 16,5 C 18,3 C 8,0 km/h (2 Bft) 96,00 %
09.07.2016 08:20 18,3 C 89 % 1017,6 hPa 0,0 l/m 4,9 km/h (1 Bft) W 269 0 min 0,000 mm 0,7 UV-I 141 W/m 16,5 C 18,3 C 6,4 km/h (2 Bft) 98,08 %
09.07.2016 08:22 18,3 C 89 % 1017,6 hPa 0,0 l/m 5,3 km/h (1 Bft) SW 232 0 min 0,000 mm 0,8 UV-I 171 W/m 16,5 C 18,3 C 8,0 km/h (2 Bft) 97,37 %
09.07.2016 08:24 18,4 C 90 % 1017,6 hPa 0,0 l/m 4,5 km/h (1 Bft) W 269 0 min 0,000 mm 0,9 UV-I 205 W/m 16,7 C 18,4 C 6,4 km/h (2 Bft) 97,87 %
09.07.2016 08:26 18,6 C 90 % 1017,7 hPa 0,0 l/m 6,0 km/h (2 Bft) W-SW 238 0 min 0,000 mm 0,8 UV-I 219 W/m 16,9 C 18,6 C 9,7 km/h (2 Bft) 98,11 %
09.07.2016 08:28 18,7 C 89 % 1017,9 hPa 0,0 l/m 5,5 km/h (1 Bft) W-SW 245 0 min 0,000 mm 0,2 UV-I 129 W/m 16,8 C 18,7 C 11,3 km/h (2 Bft) 97,73 %
09.07.2016 08:30 18,7 C 89 % 1017,8 hPa 0,0 l/m 5,8 km/h (2 Bft) W 263 0 min 0,000 mm 0,0 UV-I 78 W/m 16,8 C 18,7 C 11,3 km/h (2 Bft) 95,74 %
09.07.2016 08:32 18,7 C 88 % 1017,9 hPa 0,0 l/m 7,6 km/h (2 Bft) W-SW 256 0 min 0,000 mm 0,0 UV-I 64 W/m 16,7 C 18,2 C 12,9 km/h (3 Bft) 97,87 %
09.07.2016 08:34 18,6 C 88 % 1017,9 hPa 0,0 l/m 6,9 km/h (2 Bft) W-SW 252 0 min 0,000 mm 0,0 UV-I 42 W/m 16,6 C 18,4 C 11,3 km/h (2 Bft) 97,56 %
09.07.2016 08:36 18,6 C 89 % 1017,9 hPa 0,0 l/m 8,5 km/h (2 Bft) W-SW 241 0 min 0,000 mm 0,0 UV-I 35 W/m 16,7 C 17,7 C 14,5 km/h (3 Bft) 96,23 %
09.07.2016 08:38 18,5 C 89 % 1017,9 hPa 0,0 l/m 6,5 km/h (2 Bft) S 182 0 min 0,000 mm 0,0 UV-I 43 W/m 16,7 C 18,5 C 9,7 km/h (2 Bft) 97,56 %
09.07.2016 08:40 18,5 C 89 % 1017,8 hPa 0,0 l/m 6,9 km/h (2 Bft) S 189 0 min 0,000 mm 0,1 UV-I 75 W/m 16,7 C 18,3 C 9,7 km/h (2 Bft) 96,00 %
09.07.2016 08:42 18,4 C 89 % 1017,6 hPa 0,0 l/m 7,6 km/h (2 Bft) S-SW 205 0 min 0,000 mm 0,5 UV-I 99 W/m 16,6 C 17,8 C 11,3 km/h (2 Bft) 97,87 %
09.07.2016 08:44 18,4 C 89 % 1017,7 hPa 0,0 l/m 6,0 km/h (2 Bft) SW 229 0 min 0,000 mm 0,5 UV-I 106 W/m 16,6 C 18,4 C 11,3 km/h (2 Bft) 98,00 %
09.07.2016 08:46 18,4 C 89 % 1017,7 hPa 0,0 l/m 6,6 km/h (2 Bft) SW 227 0 min 0,000 mm 0,6 UV-I 114 W/m 16,6 C 18,3 C 11,3 km/h (2 Bft) 100,00 %
09.07.2016 08:48 18,4 C 89 % 1017,7 hPa 0,0 l/m 5,4 km/h (1 Bft) SW 214 0 min 0,000 mm 0,7 UV-I 135 W/m 16,6 C 18,4 C 9,7 km/h (2 Bft) 100,00 %
09.07.2016 08:50 18,4 C 89 % 1017,6 hPa 0,0 l/m 6,3 km/h (2 Bft) S-SW 209 0 min 0,000 mm 0,9 UV-I 168 W/m 16,6 C 18,4 C 9,7 km/h (2 Bft) 97,62 %
09.07.2016 08:52 18,5 C 89 % 1017,5 hPa 0,0 l/m 5,4 km/h (1 Bft) S 186 0 min 0,000 mm 1,0 UV-I 191 W/m 16,7 C 18,5 C 8,0 km/h (2 Bft) 98,00 %
09.07.2016 08:54 18,6 C 89 % 1017,5 hPa 0,0 l/m 6,6 km/h (2 Bft) S 182 0 min 0,000 mm 1,1 UV-I 204 W/m 16,7 C 18,5 C 9,7 km/h (2 Bft) 92,11 %
09.07.2016 08:56 18,7 C 88 % 1017,5 hPa 0,0 l/m 7,9 km/h (2 Bft) S-SW 208 0 min 0,000 mm 1,2 UV-I 207 W/m 16,7 C 18,0 C 11,3 km/h (2 Bft) 97,56 %
09.07.2016 08:58 18,8 C 89 % 1017,5 hPa 0,0 l/m 4,4 km/h (1 Bft) S-SW 208 0 min 0,000 mm 1,3 UV-I 210 W/m 16,9 C 18,8 C 8,0 km/h (2 Bft) 100,00 %
09.07.2016 09:00 18,9 C 89 % 1017,4 hPa 0,0 l/m 6,1 km/h (2 Bft) W-SW 244 0 min 0,076 mm 1,3 UV-I 215 W/m 17,0 C 18,9 C 11,3 km/h (2 Bft) 100,00 %
09.07.2016 09:02 18,9 C 88 % 1017,5 hPa 0,0 l/m 5,6 km/h (1 Bft) S-SW 194 0 min 0,000 mm 1,4 UV-I 217 W/m 16,9 C 18,9 C 8,0 km/h (2 Bft) 100,00 %
09.07.2016 09:04 19,0 C 89 % 1017,5 hPa 0,0 l/m 4,2 km/h (1 Bft) S 182 0 min 0,000 mm 1,4 UV-I 220 W/m 17,1 C 19,0 C 6,4 km/h (2 Bft) 98,00 %
09.07.2016 09:06 19,1 C 88 % 1017,5 hPa 0,0 l/m 6,0 km/h (2 Bft) SW 224 0 min 0,000 mm 1,4 UV-I 197 W/m 17,1 C 19,1 C 9,7 km/h (2 Bft) 100,00 %
09.07.2016 09:08 19,1 C 87 % 1017,5 hPa 0,0 l/m 8,3 km/h (2 Bft) SW 229 0 min 0,000 mm 1,7 UV-I 242 W/m 16,9 C 18,3 C 14,5 km/h (3 Bft) 100,00 %
09.07.2016 09:10 19,2 C 87 % 1017,5 hPa 0,0 l/m 8,4 km/h (2 Bft) SW 228 0 min 0,000 mm 1,8 UV-I 250 W/m 17,0 C 18,4 C 14,5 km/h (3 Bft) 100,00 %
09.07.2016 09:12 19,2 C 86 % 1017,5 hPa 0,0 l/m 9,1 km/h (2 Bft) SW 227 0 min 0,000 mm 1,7 UV-I 258 W/m 16,8 C 18,1 C 14,5 km/h (3 Bft) 97,56 %
09.07.2016 09:14 19,3 C 86 % 1017,6 hPa 0,0 l/m 8,2 km/h (2 Bft) SW 220 2 min 0,000 mm 2,0 UV-I 343 W/m 16,9 C 18,5 C 14,5 km/h (3 Bft) 98,00 %
09.07.2016 09:16 19,4 C 86 % 1017,6 hPa 0,0 l/m 5,4 km/h (1 Bft) S 186 2 min 0,000 mm 2,1 UV-I 492 W/m 17,0 C 19,4 C 9,7 km/h (2 Bft) 100,00 %
09.07.2016 09:18 19,5 C 86 % 1017,6 hPa 0,0 l/m 5,2 km/h (1 Bft) SW 217 2 min 0,000 mm 1,8 UV-I 355 W/m 17,1 C 19,5 C 11,3 km/h (2 Bft) 97,87 %
09.07.2016 09:20 19,6 C 85 % 1017,6 hPa 0,0 l/m 10,8 km/h (2 Bft) SW 231 0 min 0,000 mm 2,0 UV-I 286 W/m 17,0 C 17,9 C 16,1 km/h (3 Bft) 100,00 %
09.07.2016 09:22 19,7 C 85 % 1017,6 hPa 0,0 l/m 9,3 km/h (2 Bft) S 171 2 min 0,000 mm 2,4 UV-I 386 W/m 17,1 C 18,6 C 17,7 km/h (3 Bft) 100,00 %
09.07.2016 09:24 19,7 C 84 % 1017,6 hPa 0,0 l/m 10,5 km/h (2 Bft) S 190 2 min 0,000 mm 2,2 UV-I 426 W/m 16,9 C 18,1 C 16,1 km/h (3 Bft) 100,00 %
09.07.2016 09:26 19,8 C 85 % 1017,6 hPa 0,0 l/m 5,8 km/h (2 Bft) S-SW 195 2 min 0,000 mm 2,5 UV-I 406 W/m 17,2 C 19,8 C 9,7 km/h (2 Bft) 100,00 %
09.07.2016 09:28 19,9 C 86 % 1017,6 hPa 0,0 l/m 7,6 km/h (2 Bft) SW 224 2 min 0,000 mm 2,5 UV-I 459 W/m 17,5 C 19,4 C 12,9 km/h (3 Bft) 100,00 %
09.07.2016 09:30 20,2 C 84 % 1017,7 hPa 0,0 l/m 9,0 km/h (2 Bft) SW 236 2 min 0,000 mm 2,7 UV-I 537 W/m 17,4 C 19,2 C 11,3 km/h (2 Bft) 100,00 %
09.07.2016 09:32 20,3 C 82 % 1017,6 hPa 0,0 l/m 8,8 km/h (2 Bft) SW 216 2 min 0,000 mm 2,5 UV-I 506 W/m 17,1 C 19,4 C 14,5 km/h (3 Bft) 98,00 %
09.07.2016 09:34 20,3 C 81 % 1017,7 hPa 0,0 l/m 7,3 km/h (2 Bft) W-SW 257 2 min 0,000 mm 2,4 UV-I 381 W/m 16,9 C 19,9 C 11,3 km/h (2 Bft) 100,00 %
09.07.2016 09:36 20,3 C 80 % 1017,6 hPa 0,0 l/m 6,8 km/h (2 Bft) SW 224 0 min 0,000 mm 2,1 UV-I 283 W/m 16,7 C 20,1 C 9,7 km/h (2 Bft) 100,00 %
09.07.2016 09:38 20,2 C 82 % 1017,6 hPa 0,0 l/m 7,3 km/h (2 Bft) SW 234 0 min 0,000 mm 2,6 UV-I 330 W/m 17,0 C 19,8 C 11,3 km/h (2 Bft) 100,00 %
09.07.2016 09:40 20,3 C 80 % 1017,7 hPa 0,0 l/m 11,7 km/h (2 Bft) W-SW 239 2 min 0,000 mm 2,8 UV-I 660 W/m 16,7 C 18,5 C 16,1 km/h (3 Bft) 100,00 %
09.07.2016 09:42 20,3 C 80 % 1017,7 hPa 0,0 l/m 9,0 km/h (2 Bft) SW 214 2 min 0,000 mm 2,4 UV-I 639 W/m 16,7 C 19,3 C 14,5 km/h (3 Bft) 100,00 %
09.07.2016 09:44 20,3 C 78 % 1017,7 hPa 0,0 l/m 8,5 km/h (2 Bft) S-SW 193 2 min 0,000 mm 2,7 UV-I 373 W/m 16,3 C 19,5 C 12,9 km/h (3 Bft) 100,00 %
09.07.2016 09:46 20,4 C 80 % 1017,7 hPa 0,0 l/m 8,4 km/h (2 Bft) W-SW 240 2 min 0,000 mm 3,2 UV-I 431 W/m 16,8 C 19,6 C 16,1 km/h (3 Bft) 100,00 %
09.07.2016 09:48 20,5 C 79 % 1017,7 hPa 0,0 l/m 9,1 km/h (2 Bft) SW 227 2 min 0,000 mm 3,1 UV-I 485 W/m 16,7 C 19,5 C 12,9 km/h (3 Bft) 97,73 %
09.07.2016 09:50 20,7 C 79 % 1017,7 hPa 0,0 l/m 5,3 km/h (1 Bft) W 275 2 min 0,000 mm 3,2 UV-I 493 W/m 16,9 C 20,7 C 9,7 km/h (2 Bft) 100,00 %
09.07.2016 09:52 20,9 C 77 % 1017,6 hPa 0,0 l/m 5,5 km/h (1 Bft) W 261 2 min 0,000 mm 3,3 UV-I 480 W/m 16,7 C 20,9 C 11,3 km/h (2 Bft) 100,00 %
09.07.2016 09:54 21,2 C 79 % 1017,7 hPa 0,0 l/m 5,0 km/h (1 Bft) S-SW 204 2 min 0,000 mm 3,4 UV-I 707 W/m 17,4 C 21,2 C 11,3 km/h (2 Bft) 100,00 %
09.07.2016 09:56 21,2 C 75 % 1017,7 hPa 0,0 l/m 6,6 km/h (2 Bft) S 185 2 min 0,000 mm 3,5 UV-I 686 W/m 16,6 C 21,1 C 9,7 km/h (2 Bft) 100,00 %
09.07.2016 09:58 21,3 C 75 % 1017,6 hPa 0,0 l/m 11,0 km/h (2 Bft) W-SW 242 2 min 0,000 mm 3,5 UV-I 671 W/m 16,7 C 19,8 C 16,1 km/h (3 Bft) 100,00 %
09.07.2016 10:00 21,3 C 75 % 1017,6 hPa 0,0 l/m 9,6 km/h (2 Bft) SW 217 2 min 0,280 mm 3,5 UV-I 654 W/m 16,7 C 20,2 C 14,5 km/h (3 Bft) 100,00 %
09.07.2016 10:02 21,3 C 73 % 1017,7 hPa 0,0 l/m 13,3 km/h (3 Bft) S-SW 199 2 min 0,000 mm 3,5 UV-I 673 W/m 16,3 C 19,2 C 20,9 km/h (4 Bft) 98,21 %
09.07.2016 10:04 21,2 C 73 % 1017,6 hPa 0,0 l/m 7,9 km/h (2 Bft) S-SW 196 2 min 0,000 mm 3,7 UV-I 709 W/m 16,2 C 20,6 C 14,5 km/h (3 Bft) 98,00 %
09.07.2016 10:06 21,3 C 74 % 1017,6 hPa 0,0 l/m 9,1 km/h (2 Bft) SW 231 2 min 0,000 mm 3,4 UV-I 763 W/m 16,5 C 20,4 C 14,5 km/h (3 Bft) 97,56 %
09.07.2016 10:08 21,3 C 73 % 1017,6 hPa 0,0 l/m 8,3 km/h (2 Bft) W 263 2 min 0,000 mm 3,2 UV-I 763 W/m 16,3 C 20,6 C 14,5 km/h (3 Bft) 98,11 %
09.07.2016 10:10 21,3 C 75 % 1017,6 hPa 0,0 l/m 11,4 km/h (2 Bft) W 266 2 min 0,000 mm 3,8 UV-I 516 W/m 16,7 C 19,7 C 14,5 km/h (3 Bft) 97,73 %
09.07.2016 10:12 21,4 C 74 % 1017,6 hPa 0,0 l/m 9,2 km/h (2 Bft) W-SW 254 2 min 0,000 mm 3,4 UV-I 770 W/m 16,6 C 20,4 C 16,1 km/h (3 Bft) 97,50 %
09.07.2016 10:14 21,3 C 75 % 1017,6 hPa 0,0 l/m 10,1 km/h (2 Bft) S-SO 165 2 min 0,000 mm 3,6 UV-I 608 W/m 16,7 C 20,0 C 14,5 km/h (3 Bft) 97,87 %
09.07.2016 10:16 21,4 C 74 % 1017,6 hPa 0,0 l/m 6,8 km/h (2 Bft) W-SW 238 2 min 0,000 mm 3,3 UV-I 529 W/m 16,6 C 21,3 C 12,9 km/h (3 Bft) 98,00 %
09.07.2016 10:18 21,3 C 75 % 1017,6 hPa 0,0 l/m 12,8 km/h (3 Bft) W-SW 246 2 min 0,000 mm 2,8 UV-I 408 W/m 16,7 C 19,3 C 17,7 km/h (3 Bft) 98,00 %
09.07.2016 10:20 21,3 C 73 % 1017,7 hPa 0,0 l/m 11,1 km/h (2 Bft) W-SW 245 0 min 0,000 mm 3,0 UV-I 273 W/m 16,3 C 19,8 C 17,7 km/h (3 Bft) 95,12 %
09.07.2016 10:22 21,3 C 74 % 1017,7 hPa 0,0 l/m 9,7 km/h (2 Bft) W 269 0 min 0,000 mm 3,7 UV-I 274 W/m 16,5 C 20,2 C 17,7 km/h (3 Bft) 95,45 %
09.07.2016 10:24 21,4 C 73 % 1017,7 hPa 0,0 l/m 10,9 km/h (2 Bft) S-SW 207 2 min 0,000 mm 4,0 UV-I 576 W/m 16,4 C 19,9 C 17,7 km/h (3 Bft) 96,61 %
09.07.2016 10:26 21,6 C 72 % 1017,7 hPa 0,0 l/m 12,9 km/h (3 Bft) W 265 2 min 0,000 mm 3,9 UV-I 837 W/m 16,3 C 19,7 C 19,3 km/h (3 Bft) 94,74 %
09.07.2016 10:28 21,7 C 72 % 1017,7 hPa 0,0 l/m 11,8 km/h (2 Bft) S 186 2 min 0,000 mm 3,6 UV-I 907 W/m 16,4 C 20,0 C 17,7 km/h (3 Bft) 96,00 %
09.07.2016 10:30 21,7 C 72 % 1017,7 hPa 0,0 l/m 12,3 km/h (3 Bft) W-SW 244 2 min 0,000 mm 3,0 UV-I 990 W/m 16,4 C 19,9 C 17,7 km/h (3 Bft) 98,00 %
09.07.2016 10:32 21,7 C 71 % 1017,7 hPa 0,0 l/m 9,5 km/h (2 Bft) SW 223 2 min 0,000 mm 3,0 UV-I 990 W/m 16,2 C 20,7 C 17,7 km/h (3 Bft) 94,74 %
09.07.2016 10:34 21,7 C 72 % 1017,7 hPa 0,0 l/m 13,1 km/h (3 Bft) SW 232 2 min 0,000 mm 2,6 UV-I 507 W/m 16,4 C 19,7 C 17,7 km/h (3 Bft) 98,31 %
09.07.2016 10:36 21,7 C 71 % 1017,7 hPa 0,0 l/m 12,6 km/h (3 Bft) S-SW 200 0 min 0,000 mm 2,0 UV-I 355 W/m 16,2 C 19,8 C 20,9 km/h (4 Bft) 97,37 %
09.07.2016 10:38 21,6 C 71 % 1017,7 hPa 0,0 l/m 6,5 km/h (2 Bft) SW 218 0 min 0,000 mm 2,0 UV-I 293 W/m 16,1 C 21,6 C 11,3 km/h (2 Bft) 100,00 %
09.07.2016 10:40 21,5 C 72 % 1017,7 hPa 0,0 l/m 7,8 km/h (2 Bft) W 271 0 min 0,000 mm 2,6 UV-I 347 W/m 16,2 C 21,0 C 14,5 km/h (3 Bft) 98,51 %
09.07.2016 10:42 21,7 C 75 % 1017,7 hPa 0,0 l/m 5,7 km/h (1 Bft) W-SW 249 2 min 0,000 mm 3,5 UV-I 654 W/m 17,1 C 21,7 C 8,0 km/h (2 Bft) 95,74 %
09.07.2016 10:44 22,0 C 72 % 1017,7 hPa 0,0 l/m 7,0 km/h (2 Bft) NW 322 2 min 0,000 mm 3,3 UV-I 571 W/m 16,7 C 21,8 C 14,5 km/h (3 Bft) 100,00 %
09.07.2016 10:46 21,8 C 71 % 1017,7 hPa 0,0 l/m 6,2 km/h (2 Bft) W-NW 288 0 min 0,000 mm 2,7 UV-I 301 W/m 16,3 C 21,8 C 9,7 km/h (2 Bft) 98,18 %
09.07.2016 10:48 21,8 C 73 % 1017,7 hPa 0,0 l/m 4,8 km/h (1 Bft) W 259 0 min 0,000 mm 4,1 UV-I 306 W/m 16,7 C 21,8 C 8,0 km/h (2 Bft) 100,00 %
09.07.2016 10:50 21,9 C 72 % 1017,7 hPa 0,0 l/m 9,7 km/h (2 Bft) S 190 0 min 0,000 mm 3,7 UV-I 306 W/m 16,6 C 20,8 C 16,1 km/h (3 Bft) 97,96 %
09.07.2016 10:52 21,9 C 72 % 1017,8 hPa 0,0 l/m 8,4 km/h (2 Bft) W-NW 295 0 min 0,000 mm 2,9 UV-I 352 W/m 16,6 C 21,2 C 11,3 km/h (2 Bft) 100,00 %
09.07.2016 10:54 21,9 C 72 % 1017,7 hPa 0,0 l/m 10,4 km/h (2 Bft) W-SW 242 0 min 0,000 mm 3,3 UV-I 303 W/m 16,6 C 20,6 C 17,7 km/h (3 Bft) 100,00 %
09.07.2016 10:56 21,8 C 73 % 1017,7 hPa 0,0 l/m 7,9 km/h (2 Bft) S 180 0 min 0,000 mm 3,1 UV-I 258 W/m 16,7 C 21,3 C 16,1 km/h (3 Bft) 98,00 %
09.07.2016 10:58 21,9 C 74 % 1017,7 hPa 0,0 l/m 6,1 km/h (2 Bft) W-SW 239 0 min 0,000 mm 4,8 UV-I 251 W/m 17,0 C 21,9 C 14,5 km/h (3 Bft) 100,00 %
09.07.2016 11:00 22,2 C 71 % 1017,7 hPa 0,0 l/m 10,5 km/h (2 Bft) W-NW 290 0 min 0,355 mm 4,6 UV-I 416 W/m 16,7 C 20,9 C 16,1 km/h (3 Bft) 98,21 %
09.07.2016 11:02 22,3 C 72 % 1017,7 hPa 0,0 l/m 7,0 km/h (2 Bft) W-SW 257 2 min 0,000 mm 5,1 UV-I 933 W/m 17,0 C 22,1 C 12,9 km/h (3 Bft) 100,00 %
09.07.2016 11:04 22,6 C 71 % 1017,7 hPa 0,0 l/m 7,4 km/h (2 Bft) SW 230 2 min 0,000 mm 4,6 UV-I 1011 W/m 17,1 C 22,3 C 11,3 km/h (2 Bft) 100,00 %
09.07.2016 11:06 22,9 C 71 % 1017,7 hPa 0,0 l/m 4,5 km/h (1 Bft) W-SW 248 2 min 0,000 mm 3,4 UV-I 1030 W/m 17,4 C 22,9 C 12,9 km/h (3 Bft) 100,00 %
09.07.2016 11:08 22,9 C 70 % 1017,7 hPa 0,0 l/m 7,9 km/h (2 Bft) W-SW 246 2 min 0,000 mm 3,2 UV-I 475 W/m 17,1 C 22,4 C 17,7 km/h (3 Bft) 100,00 %
09.07.2016 11:10 22,8 C 70 % 1017,7 hPa 0,0 l/m 7,3 km/h (2 Bft) W 267 0 min 0,000 mm 4,4 UV-I 355 W/m 17,0 C 22,5 C 14,5 km/h (3 Bft) 98,00 %
09.07.2016 11:12 22,7 C 73 % 1017,7 hPa 0,0 l/m 7,6 km/h (2 Bft) SW 217 0 min 0,000 mm 2,6 UV-I 318 W/m 17,6 C 22,3 C 12,9 km/h (3 Bft) 97,87 %
09.07.2016 11:14 22,7 C 71 % 1017,8 hPa 0,0 l/m 7,9 km/h (2 Bft) SW 229 0 min 0,000 mm 2,5 UV-I 260 W/m 17,2 C 22,2 C 16,1 km/h (3 Bft) 100,00 %
09.07.2016 11:16 22,6 C 70 % 1017,8 hPa 0,0 l/m 6,0 km/h (2 Bft) SW 217 0 min 0,000 mm 3,3 UV-I 260 W/m 16,8 C 22,6 C 11,3 km/h (2 Bft) 97,87 %
09.07.2016 11:18 22,7 C 72 % 1017,8 hPa 0,0 l/m 6,8 km/h (2 Bft) W-NW 302 0 min 0,000 mm 4,7 UV-I 260 W/m 17,4 C 22,6 C 14,5 km/h (3 Bft) 97,56 %
09.07.2016 11:20 22,8 C 72 % 1017,8 hPa 0,0 l/m 8,7 km/h (2 Bft) W-SW 241 0 min 0,000 mm 4,4 UV-I 265 W/m 17,5 C 22,1 C 17,7 km/h (3 Bft) 100,00 %
09.07.2016 11:22 22,8 C 70 % 1017,8 hPa 0,0 l/m 11,2 km/h (2 Bft) W-SW 252 0 min 0,000 mm 3,4 UV-I 316 W/m 17,0 C 21,4 C 19,3 km/h (3 Bft) 100,00 %
09.07.2016 11:24 22,7 C 69 % 1017,8 hPa 0,0 l/m 8,0 km/h (2 Bft) W-SW 251 0 min 0,000 mm 2,9 UV-I 285 W/m 16,7 C 22,2 C 16,1 km/h (3 Bft) 100,00 %
09.07.2016 11:26 22,6 C 72 % 1017,8 hPa 0,0 l/m 7,7 km/h (2 Bft) W-NW 282 0 min 0,000 mm 3,9 UV-I 253 W/m 17,3 C 22,2 C 11,3 km/h (2 Bft) 100,00 %
09.07.2016 11:28 22,6 C 70 % 1017,8 hPa 0,0 l/m 5,3 km/h (1 Bft) W-SW 250 2 min 0,000 mm 5,5 UV-I 676 W/m 16,8 C 22,6 C 9,7 km/h (2 Bft) 100,00 %
09.07.2016 11:30 22,9 C 72 % 1017,9 hPa 0,0 l/m 5,9 km/h (2 Bft) W-SW 246 2 min 0,000 mm 5,3 UV-I 904 W/m 17,6 C 22,9 C 12,9 km/h (3 Bft) 100,00 %
09.07.2016 11:32 23,1 C 69 % 1017,8 hPa 0,0 l/m 6,6 km/h (2 Bft) W-SW 257 2 min 0,000 mm 5,8 UV-I 901 W/m 17,1 C 23,0 C 14,5 km/h (3 Bft) 100,00 %
09.07.2016 11:34 23,3 C 70 % 1017,8 hPa 0,0 l/m 2,4 km/h (1 Bft) N-NW 340 2 min 0,000 mm 5,6 UV-I 980 W/m 17,5 C 23,3 C 6,4 km/h (2 Bft) 100,00 %
09.07.2016 11:36 23,5 C 69 % 1017,8 hPa 0,0 l/m 5,7 km/h (1 Bft) W-NW 296 2 min 0,000 mm 5,6 UV-I 993 W/m 17,5 C 23,5 C 14,5 km/h (3 Bft) 100,00 %
09.07.2016 11:38 23,3 C 66 % 1017,8 hPa 0,0 l/m 4,5 km/h (1 Bft) W-NW 287 2 min 0,000 mm 3,9 UV-I 993 W/m 16,6 C 23,3 C 12,9 km/h (3 Bft) 100,00 %
09.07.2016 11:40 23,2 C 69 % 1017,9 hPa 0,0 l/m 10,1 km/h (2 Bft) W-SW 237 2 min 0,000 mm 4,7 UV-I 973 W/m 17,2 C 22,2 C 20,9 km/h (4 Bft) 100,00 %
09.07.2016 11:42 23,3 C 68 % 1017,8 hPa 0,0 l/m 9,1 km/h (2 Bft) W-SW 250 2 min 0,000 mm 5,8 UV-I 898 W/m 17,1 C 22,5 C 16,1 km/h (3 Bft) 100,00 %
09.07.2016 11:44 23,4 C 69 % 1017,8 hPa 0,0 l/m 7,0 km/h (2 Bft) W-SW 244 2 min 0,000 mm 6,1 UV-I 897 W/m 17,4 C 23,2 C 11,3 km/h (2 Bft) 97,73 %
09.07.2016 11:46 23,6 C 67 % 1017,8 hPa 0,0 l/m 10,9 km/h (2 Bft) SW 220 2 min 0,000 mm 6,1 UV-I 913 W/m 17,1 C 22,4 C 17,7 km/h (3 Bft) 100,00 %
09.07.2016 11:48 23,7 C 68 % 1017,7 hPa 0,0 l/m 15,4 km/h (3 Bft) W-SW 240 2 min 0,000 mm 5,6 UV-I 942 W/m 17,4 C 21,7 C 22,5 km/h (4 Bft) 100,00 %
09.07.2016 11:50 23,6 C 67 % 1017,7 hPa 0,0 l/m 9,9 km/h (2 Bft) W-SW 257 2 min 0,000 mm 4,9 UV-I 634 W/m 17,1 C 22,6 C 19,3 km/h (3 Bft) 100,00 %
09.07.2016 11:52 23,7 C 66 % 1017,7 hPa 0,0 l/m 8,4 km/h (2 Bft) W-SW 237 2 min 0,000 mm 5,8 UV-I 619 W/m 17,0 C 23,1 C 16,1 km/h (3 Bft) 97,37 %
09.07.2016 11:54 23,8 C 67 % 1017,7 hPa 0,0 l/m 3,7 km/h (1 Bft) W 268 2 min 0,000 mm 6,1 UV-I 928 W/m 17,3 C 23,8 C 11,3 km/h (2 Bft) 100,00 %
09.07.2016 11:56 24,1 C 66 % 1017,6 hPa 0,0 l/m 12,0 km/h (2 Bft) W-NW 286 2 min 0,000 mm 6,2 UV-I 966 W/m 17,3 C 22,8 C 17,7 km/h (3 Bft) 100,00 %
09.07.2016 11:58 24,2 C 65 % 1017,6 hPa 0,0 l/m 11,4 km/h (2 Bft) W 259 2 min 0,000 mm 6,1 UV-I 961 W/m 17,2 C 23,0 C 19,3 km/h (3 Bft) 97,56 %
09.07.2016 12:00 24,5 C 64 % 1017,6 hPa 0,0 l/m 9,8 km/h (2 Bft) NO 44 2 min 0,457 mm 6,2 UV-I 957 W/m 17,2 C 23,7 C 17,7 km/h (3 Bft) 100,00 %
09.07.2016 12:02 24,5 C 64 % 1017,7 hPa 0,0 l/m 6,8 km/h (2 Bft) W-SW 240 2 min 0,000 mm 6,3 UV-I 941 W/m 17,2 C 24,4 C 16,1 km/h (3 Bft) 98,21 %
09.07.2016 12:04 24,6 C 63 % 1017,6 hPa 0,0 l/m 15,1 km/h (3 Bft) W 274 2 min 0,000 mm 6,0 UV-I 971 W/m 17,1 C 22,8 C 25,7 km/h (4 Bft) 96,00 %
09.07.2016 12:06 24,4 C 62 % 1017,6 hPa 0,0 l/m 10,2 km/h (2 Bft) W-NW 290 2 min 0,000 mm 3,8 UV-I 697 W/m 16,6 C 23,5 C 16,1 km/h (3 Bft) 97,56 %
09.07.2016 12:08 24,2 C 62 % 1017,6 hPa 0,0 l/m 8,5 km/h (2 Bft) SW 221 2 min 0,000 mm 6,0 UV-I 647 W/m 16,4 C 23,6 C 17,7 km/h (3 Bft) 94,87 %
09.07.2016 12:10 24,3 C 67 % 1017,6 hPa 0,0 l/m 5,8 km/h (2 Bft) N-NO 19 2 min 0,000 mm 6,4 UV-I 962 W/m 17,8 C 24,3 C 16,1 km/h (3 Bft) 96,23 %
09.07.2016 12:12 24,7 C 62 % 1017,6 hPa 0,0 l/m 8,4 km/h (2 Bft) W 279 2 min 0,000 mm 6,4 UV-I 946 W/m 16,9 C 24,2 C 17,7 km/h (3 Bft) 95,45 %
09.07.2016 12:14 24,6 C 61 % 1017,6 hPa 0,0 l/m 7,0 km/h (2 Bft) W 267 2 min 0,000 mm 6,6 UV-I 970 W/m 16,6 C 24,4 C 12,9 km/h (3 Bft) 96,49 %
09.07.2016 12:16 24,4 C 63 % 1017,7 hPa 0,0 l/m 9,5 km/h (2 Bft) W-NW 296 2 min 0,000 mm 6,2 UV-I 984 W/m 16,9 C 23,6 C 19,3 km/h (3 Bft) 97,37 %
09.07.2016 12:18 24,5 C 60 % 1017,6 hPa 0,0 l/m 12,9 km/h (3 Bft) SW 226 2 min 0,000 mm 6,4 UV-I 1020 W/m 16,2 C 23,0 C 22,5 km/h (4 Bft) 96,23 %
09.07.2016 12:20 24,8 C 58 % 1017,6 hPa 0,0 l/m 12,8 km/h (3 Bft) SW 218 2 min 0,000 mm 6,4 UV-I 1034 W/m 16,0 C 23,4 C 19,3 km/h (3 Bft) 95,12 %
09.07.2016 12:22 24,9 C 58 % 1017,6 hPa 0,0 l/m 14,1 km/h (3 Bft) W 259 2 min 0,000 mm 6,0 UV-I 1013 W/m 16,1 C 23,3 C 19,3 km/h (3 Bft) 96,00 %
09.07.2016 12:24 25,1 C 58 % 1017,6 hPa 0,0 l/m 9,1 km/h (2 Bft) W 269 2 min 0,000 mm 6,5 UV-I 1010 W/m 16,2 C 24,5 C 17,7 km/h (3 Bft) 97,56 %
09.07.2016 12:26 25,1 C 59 % 1017,6 hPa 0,0 l/m 8,6 km/h (2 Bft) W-SW 253 2 min 0,000 mm 6,5 UV-I 991 W/m 16,5 C 24,6 C 17,7 km/h (3 Bft) 97,87 %
09.07.2016 12:28 25,1 C 57 % 1017,6 hPa 0,0 l/m 11,2 km/h (2 Bft) W-SW 237 2 min 0,000 mm 6,6 UV-I 950 W/m 16,0 C 24,0 C 20,9 km/h (4 Bft) 95,74 %
09.07.2016 12:30 25,1 C 57 % 1017,5 hPa 0,0 l/m 12,6 km/h (3 Bft) SW 234 2 min 0,000 mm 6,8 UV-I 951 W/m 16,0 C 23,8 C 25,7 km/h (4 Bft) 97,56 %
09.07.2016 12:32 25,1 C 57 % 1017,5 hPa 0,0 l/m 15,1 km/h (3 Bft) W-NW 286 2 min 0,000 mm 5,9 UV-I 961 W/m 16,0 C 23,4 C 22,5 km/h (4 Bft) 98,15 %
09.07.2016 12:34 25,0 C 58 % 1017,5 hPa 0,0 l/m 5,7 km/h (1 Bft) W 262 2 min 0,000 mm 6,5 UV-I 902 W/m 16,1 C 25,0 C 16,1 km/h (3 Bft) 96,23 %
09.07.2016 12:36 24,9 C 57 % 1017,5 hPa 0,0 l/m 7,9 km/h (2 Bft) W-SW 252 2 min 0,000 mm 6,5 UV-I 918 W/m 15,8 C 24,5 C 12,9 km/h (3 Bft) 98,00 %
09.07.2016 12:38 25,2 C 58 % 1017,4 hPa 0,0 l/m 12,3 km/h (3 Bft) W-SW 238 2 min 0,000 mm 6,8 UV-I 967 W/m 16,3 C 24,0 C 17,7 km/h (3 Bft) 100,00 %
09.07.2016 12:40 25,3 C 53 % 1017,4 hPa 0,0 l/m 15,0 km/h (3 Bft) W-SW 254 2 min 0,000 mm 6,1 UV-I 1000 W/m 15,0 C 23,7 C 25,7 km/h (4 Bft) 97,87 %
09.07.2016 12:42 25,5 C 55 % 1017,4 hPa 0,0 l/m 11,9 km/h (2 Bft) W 277 2 min 0,000 mm 6,3 UV-I 1028 W/m 15,8 C 24,4 C 20,9 km/h (4 Bft) 100,00 %
09.07.2016 12:44 25,4 C 54 % 1017,4 hPa 0,0 l/m 10,4 km/h (2 Bft) SW 233 2 min 0,000 mm 6,1 UV-I 1048 W/m 15,4 C 24,5 C 22,5 km/h (4 Bft) 100,00 %
09.07.2016 12:46 25,6 C 53 % 1017,4 hPa 0,0 l/m 13,7 km/h (3 Bft) W-NW 294 2 min 0,000 mm 6,5 UV-I 1072 W/m 15,3 C 24,2 C 19,3 km/h (3 Bft) 97,87 %
09.07.2016 12:48 25,6 C 55 % 1017,4 hPa 0,0 l/m 8,7 km/h (2 Bft) SW 232 2 min 0,000 mm 5,6 UV-I 819 W/m 15,9 C 25,1 C 16,1 km/h (3 Bft) 100,00 %
09.07.2016 12:50 25,5 C 56 % 1017,4 hPa 0,0 l/m 13,5 km/h (3 Bft) SW 229 2 min 0,000 mm 4,3 UV-I 509 W/m 16,1 C 24,1 C 19,3 km/h (3 Bft) 97,56 %
09.07.2016 12:52 25,3 C 55 % 1017,4 hPa 0,0 l/m 12,0 km/h (2 Bft) W 262 0 min 0,000 mm 2,3 UV-I 268 W/m 15,6 C 24,1 C 17,7 km/h (3 Bft) 98,11 %
09.07.2016 12:54 24,9 C 54 % 1017,5 hPa 0,0 l/m 12,9 km/h (3 Bft) W-SW 258 0 min 0,000 mm 2,1 UV-I 252 W/m 14,9 C 23,5 C 19,3 km/h (3 Bft) 100,00 %
09.07.2016 12:56 24,7 C 55 % 1017,5 hPa 0,0 l/m 9,5 km/h (2 Bft) W 277 0 min 0,000 mm 1,9 UV-I 243 W/m 15,0 C 23,9 C 14,5 km/h (3 Bft) 97,37 %
09.07.2016 12:58 24,4 C 57 % 1017,4 hPa 0,0 l/m 12,7 km/h (3 Bft) W-NW 299 0 min 0,000 mm 2,0 UV-I 262 W/m 15,3 C 23,0 C 19,3 km/h (3 Bft) 95,45 %
09.07.2016 13:00 24,2 C 58 % 1017,5 hPa 0,0 l/m 11,0 km/h (2 Bft) W-SW 253 0 min 0,559 mm 2,4 UV-I 304 W/m 15,4 C 23,1 C 16,1 km/h (3 Bft) 98,11 %
09.07.2016 13:02 24,2 C 57 % 1017,5 hPa 0,0 l/m 9,4 km/h (2 Bft) W-SW 250 0 min 0,000 mm 2,8 UV-I 343 W/m 15,1 C 23,4 C 14,5 km/h (3 Bft) 100,00 %
09.07.2016 13:04 24,3 C 59 % 1017,4 hPa 0,0 l/m 7,5 km/h (2 Bft) W-NW 285 0 min 0,000 mm 3,8 UV-I 400 W/m 15,8 C 24,0 C 14,5 km/h (3 Bft) 100,00 %
09.07.2016 13:06 24,6 C 57 % 1017,4 hPa 0,0 l/m 8,1 km/h (2 Bft) W-SW 257 2 min 0,000 mm 5,6 UV-I 563 W/m 15,5 C 24,2 C 14,5 km/h (3 Bft) 97,37 %
09.07.2016 13:08 24,8 C 57 % 1017,4 hPa 0,0 l/m 9,6 km/h (2 Bft) W-SW 257 2 min 0,000 mm 6,3 UV-I 655 W/m 15,7 C 24,0 C 16,1 km/h (3 Bft) 95,74 %
09.07.2016 13:10 24,9 C 56 % 1017,4 hPa 0,0 l/m 14,3 km/h (3 Bft) W-SW 246 2 min 0,000 mm 4,7 UV-I 547 W/m 15,5 C 23,3 C 24,1 km/h (4 Bft) 100,00 %
09.07.2016 13:12 24,9 C 56 % 1017,5 hPa 0,0 l/m 17,3 km/h (3 Bft) W 277 2 min 0,000 mm 6,8 UV-I 1003 W/m 15,5 C 22,9 C 25,7 km/h (4 Bft) 100,00 %
09.07.2016 13:14 25,1 C 56 % 1017,5 hPa 0,0 l/m 8,9 km/h (2 Bft) W-SW 250 2 min 0,000 mm 6,4 UV-I 1012 W/m 15,7 C 24,5 C 16,1 km/h (3 Bft) 100,00 %
09.07.2016 13:16 25,4 C 58 % 1017,5 hPa 0,0 l/m 12,9 km/h (3 Bft) SW 227 2 min 0,000 mm 5,4 UV-I 1002 W/m 16,5 C 24,1 C 19,3 km/h (3 Bft) 100,00 %
09.07.2016 13:18 25,6 C 55 % 1017,4 hPa 0,0 l/m 14,0 km/h (3 Bft) W-SW 256 2 min 0,000 mm 6,0 UV-I 994 W/m 15,9 C 24,2 C 22,5 km/h (4 Bft) 97,56 %
09.07.2016 13:20 25,6 C 54 % 1017,4 hPa 0,0 l/m 10,9 km/h (2 Bft) NW 304 2 min 0,000 mm 6,5 UV-I 944 W/m 15,6 C 24,7 C 20,9 km/h (4 Bft) 100,00 %
09.07.2016 13:22 25,5 C 57 % 1017,4 hPa 0,0 l/m 9,7 km/h (2 Bft) W-NW 286 2 min 0,000 mm 6,6 UV-I 908 W/m 16,3 C 24,8 C 17,7 km/h (3 Bft) 98,00 %
09.07.2016 13:24 25,6 C 58 % 1017,4 hPa 0,0 l/m 3,4 km/h (1 Bft) S-SW 194 2 min 0,000 mm 6,7 UV-I 922 W/m 16,7 C 25,6 C 11,3 km/h (2 Bft) 97,22 %
09.07.2016 13:26 25,7 C 61 % 1017,4 hPa 0,0 l/m 4,8 km/h (1 Bft) W 279 2 min 0,000 mm 6,6 UV-I 786 W/m 17,6 C 25,7 C 12,9 km/h (3 Bft) 100,00 %
09.07.2016 13:28 25,7 C 58 % 1017,4 hPa 0,0 l/m 9,1 km/h (2 Bft) W 281 2 min 0,000 mm 6,7 UV-I 772 W/m 16,8 C 25,1 C 19,3 km/h (3 Bft) 97,87 %
09.07.2016 13:30 25,4 C 57 % 1017,4 hPa 0,0 l/m 5,5 km/h (1 Bft) W-SW 254 2 min 0,000 mm 6,3 UV-I 791 W/m 16,2 C 25,4 C 12,9 km/h (3 Bft) 98,11 %
09.07.2016 13:32 25,2 C 56 % 1017,4 hPa 0,0 l/m 7,5 km/h (2 Bft) W-NW 288 2 min 0,000 mm 6,1 UV-I 812 W/m 15,8 C 24,9 C 12,9 km/h (3 Bft) 100,00 %
09.07.2016 13:34 25,0 C 57 % 1017,3 hPa 0,0 l/m 5,6 km/h (1 Bft) N 9 2 min 0,000 mm 6,3 UV-I 853 W/m 15,9 C 25,0 C 17,7 km/h (3 Bft) 100,00 %
09.07.2016 13:36 24,9 C 61 % 1017,3 hPa 0,0 l/m 5,6 km/h (1 Bft) W-NW 292 2 min 0,000 mm 6,5 UV-I 880 W/m 16,8 C 24,9 C 17,7 km/h (3 Bft) 100,00 %
09.07.2016 13:38 24,9 C 59 % 1017,2 hPa 0,0 l/m 6,9 km/h (2 Bft) W-NW 303 2 min 0,000 mm 5,7 UV-I 946 W/m 16,3 C 24,8 C 16,1 km/h (3 Bft) 96,00 %
09.07.2016 13:40 25,0 C 61 % 1017,1 hPa 0,0 l/m 3,5 km/h (1 Bft) W 281 2 min 0,000 mm 5,4 UV-I 946 W/m 16,9 C 25,0 C 9,7 km/h (2 Bft) 97,87 %
09.07.2016 13:42 25,3 C 60 % 1017,2 hPa 0,0 l/m 3,3 km/h (1 Bft) SW 233 2 min 0,000 mm 6,8 UV-I 946 W/m 17,0 C 25,3 C 11,3 km/h (2 Bft) 98,11 %
09.07.2016 13:44 25,4 C 56 % 1017,2 hPa 0,0 l/m 7,4 km/h (2 Bft) W-SW 244 2 min 0,000 mm 6,3 UV-I 944 W/m 16,0 C 25,2 C 14,5 km/h (3 Bft) 100,00 %
09.07.2016 13:46 25,2 C 56 % 1017,1 hPa 0,0 l/m 6,0 km/h (2 Bft) S-SW 210 2 min 0,000 mm 6,4 UV-I 864 W/m 15,8 C 25,2 C 11,3 km/h (2 Bft) 98,00 %
09.07.2016 13:48 25,1 C 56 % 1017,1 hPa 0,0 l/m 8,4 km/h (2 Bft) W 271 2 min 0,000 mm 6,1 UV-I 837 W/m 15,7 C 24,6 C 16,1 km/h (3 Bft) 100,00 %
09.07.2016 13:50 25,1 C 58 % 1017,1 hPa 0,0 l/m 8,2 km/h (2 Bft) W 267 2 min 0,000 mm 6,6 UV-I 775 W/m 16,2 C 24,7 C 16,1 km/h (3 Bft) 100,00 %
09.07.2016 13:52 25,2 C 59 % 1017,0 hPa 0,0 l/m 8,7 km/h (2 Bft) W 265 2 min 0,000 mm 6,6 UV-I 900 W/m 16,6 C 24,7 C 14,5 km/h (3 Bft) 100,00 %
09.07.2016 13:54 25,4 C 56 % 1017,0 hPa 0,0 l/m 8,7 km/h (2 Bft) W-SW 252 2 min 0,000 mm 6,5 UV-I 878 W/m 16,0 C 24,9 C 19,3 km/h (3 Bft) 98,00 %
09.07.2016 13:56 25,5 C 55 % 1017,0 hPa 0,0 l/m 5,3 km/h (1 Bft) N-NW 333 2 min 0,000 mm 6,5 UV-I 882 W/m 15,8 C 25,5 C 12,9 km/h (3 Bft) 100,00 %
09.07.2016 13:58 25,5 C 55 % 1017,0 hPa 0,0 l/m 7,3 km/h (2 Bft) NW 325 2 min 0,000 mm 6,5 UV-I 875 W/m 15,8 C 25,3 C 14,5 km/h (3 Bft) 100,00 %
09.07.2016 14:00 25,6 C 54 % 1016,9 hPa 0,0 l/m 7,5 km/h (2 Bft) W 278 2 min 0,000 mm 6,4 UV-I 871 W/m 15,6 C 25,3 C 16,1 km/h (3 Bft) 100,00 %
09.07.2016 14:02 25,4 C 55 % 1017,0 hPa 0,0 l/m 9,7 km/h (2 Bft) SW 224 2 min 0,584 mm 6,4 UV-I 848 W/m 15,7 C 24,7 C 19,3 km/h (3 Bft) 98,18 %
09.07.2016 14:04 25,4 C 56 % 1016,9 hPa 0,0 l/m 6,7 km/h (2 Bft) W 259 2 min 0,000 mm 6,1 UV-I 795 W/m 16,0 C 25,3 C 14,5 km/h (3 Bft) 95,24 %
09.07.2016 14:06 25,4 C 56 % 1016,9 hPa 0,0 l/m 9,3 km/h (2 Bft) W-NW 303 2 min 0,000 mm 6,4 UV-I 878 W/m 16,0 C 24,7 C 25,7 km/h (4 Bft) 97,87 %
09.07.2016 14:08 25,5 C 55 % 1016,9 hPa 0,0 l/m 5,9 km/h (2 Bft) W-NW 294 2 min 0,000 mm 6,4 UV-I 881 W/m 15,8 C 25,5 C 17,7 km/h (3 Bft) 96,23 %
09.07.2016 14:10 25,6 C 57 % 1016,8 hPa 0,0 l/m 5,2 km/h (1 Bft) NW 319 2 min 0,000 mm 6,3 UV-I 843 W/m 16,4 C 25,6 C 14,5 km/h (3 Bft) 97,37 %
09.07.2016 14:12 25,7 C 56 % 1016,8 hPa 0,0 l/m 3,7 km/h (1 Bft) W-NW 282 2 min 0,000 mm 6,3 UV-I 856 W/m 16,2 C 25,7 C 11,3 km/h (2 Bft) 98,21 %
09.07.2016 14:14 25,9 C 53 % 1016,9 hPa 0,0 l/m 14,6 km/h (3 Bft) SW 236 2 min 0,000 mm 6,2 UV-I 863 W/m 15,6 C 24,5 C 20,9 km/h (4 Bft) 97,56 %
09.07.2016 14:16 26,1 C 52 % 1016,9 hPa 0,0 l/m 6,2 km/h (2 Bft) S-SW 212 2 min 0,000 mm 6,1 UV-I 897 W/m 15,5 C 26,1 C 9,7 km/h (2 Bft) 98,11 %
09.07.2016 14:18 26,1 C 53 % 1016,9 hPa 0,0 l/m 4,1 km/h (1 Bft) W 270 2 min 0,000 mm 5,4 UV-I 916 W/m 15,8 C 26,1 C 9,7 km/h (2 Bft) 95,74 %
09.07.2016 14:20 25,9 C 54 % 1016,9 hPa 0,0 l/m 4,5 km/h (1 Bft) SW 235 2 min 0,000 mm 4,8 UV-I 634 W/m 15,9 C 25,9 C 12,9 km/h (3 Bft) 97,37 %
09.07.2016 14:22 25,8 C 54 % 1016,9 hPa 0,0 l/m 7,6 km/h (2 Bft) W-NW 290 0 min 0,000 mm 4,8 UV-I 225 W/m 15,8 C 25,5 C 19,3 km/h (3 Bft) 96,00 %
09.07.2016 14:24 25,7 C 56 % 1016,9 hPa 0,0 l/m 10,4 km/h (2 Bft) W 269 2 min 0,000 mm 5,1 UV-I 696 W/m 16,2 C 24,9 C 19,3 km/h (3 Bft) 97,73 %
09.07.2016 14:26 25,7 C 53 % 1016,8 hPa 0,0 l/m 12,5 km/h (3 Bft) SW 223 2 min 0,000 mm 5,5 UV-I 923 W/m 15,4 C 24,5 C 25,7 km/h (4 Bft) 96,23 %
09.07.2016 14:28 25,8 C 54 % 1016,8 hPa 0,0 l/m 9,6 km/h (2 Bft) N-NO 15 2 min 0,000 mm 6,2 UV-I 892 W/m 15,8 C 25,1 C 12,9 km/h (3 Bft) 96,00 %
09.07.2016 14:30 25,8 C 53 % 1016,8 hPa 0,0 l/m 3,7 km/h (1 Bft) W 275 2 min 0,000 mm 4,7 UV-I 889 W/m 15,5 C 25,8 C 6,4 km/h (2 Bft) 94,29 %
09.07.2016 14:32 25,9 C 53 % 1016,8 hPa 0,0 l/m 2,9 km/h (1 Bft) O 86 2 min 0,000 mm 5,9 UV-I 881 W/m 15,6 C 25,9 C 4,8 km/h (1 Bft) 98,11 %
09.07.2016 14:34 26,2 C 53 % 1016,9 hPa 0,0 l/m 5,5 km/h (1 Bft) SW 220 2 min 0,000 mm 5,9 UV-I 868 W/m 15,8 C 26,2 C 11,3 km/h (2 Bft) 98,11 %
09.07.2016 14:36 26,4 C 52 % 1016,9 hPa 0,0 l/m 11,9 km/h (2 Bft) W-SW 240 2 min 0,000 mm 6,0 UV-I 869 W/m 15,7 C 25,4 C 20,9 km/h (4 Bft) 100,00 %
09.07.2016 14:38 26,4 C 51 % 1016,8 hPa 0,0 l/m 8,2 km/h (2 Bft) W-SW 253 2 min 0,000 mm 6,0 UV-I 871 W/m 15,4 C 26,0 C 17,7 km/h (3 Bft) 98,00 %
09.07.2016 14:40 26,4 C 52 % 1016,8 hPa 0,0 l/m 5,1 km/h (1 Bft) SW 229 2 min 0,000 mm 5,8 UV-I 867 W/m 15,7 C 26,4 C 11,3 km/h (2 Bft) 100,00 %
09.07.2016 14:42 26,3 C 52 % 1016,7 hPa 0,0 l/m 10,5 km/h (2 Bft) SW 223 0 min 0,000 mm 3,0 UV-I 398 W/m 15,6 C 25,5 C 19,3 km/h (3 Bft) 96,23 %
09.07.2016 14:44 26,1 C 54 % 1016,7 hPa 0,0 l/m 4,2 km/h (1 Bft) W-NW 290 0 min 0,000 mm 4,8 UV-I 454 W/m 16,0 C 26,1 C 9,7 km/h (2 Bft) 100,00 %
09.07.2016 14:46 26,1 C 51 % 1016,7 hPa 0,0 l/m 8,2 km/h (2 Bft) W-SW 240 2 min 0,000 mm 5,1 UV-I 911 W/m 15,2 C 25,7 C 12,9 km/h (3 Bft) 100,00 %
09.07.2016 14:48 26,2 C 51 % 1016,7 hPa 0,0 l/m 17,4 km/h (3 Bft) W-SW 250 2 min 0,000 mm 5,5 UV-I 865 W/m 15,2 C 24,5 C 25,7 km/h (4 Bft) 100,00 %
09.07.2016 14:50 26,3 C 51 % 1016,7 hPa 0,0 l/m 12,2 km/h (2 Bft) SW 236 2 min 0,000 mm 5,8 UV-I 868 W/m 15,3 C 25,3 C 17,7 km/h (3 Bft) 100,00 %
09.07.2016 14:52 26,4 C 49 % 1016,6 hPa 0,0 l/m 10,2 km/h (2 Bft) SW 231 2 min 0,000 mm 5,7 UV-I 834 W/m 14,8 C 25,7 C 16,1 km/h (3 Bft) 100,00 %
09.07.2016 14:54 26,4 C 50 % 1016,6 hPa 0,0 l/m 9,9 km/h (2 Bft) W-NW 290 2 min 0,000 mm 5,8 UV-I 861 W/m 15,1 C 25,7 C 20,9 km/h (4 Bft) 98,00 %
09.07.2016 14:56 26,4 C 49 % 1016,5 hPa 0,0 l/m 6,9 km/h (2 Bft) NW 326 2 min 0,000 mm 5,6 UV-I 836 W/m 14,8 C 26,3 C 19,3 km/h (3 Bft) 97,73 %
09.07.2016 14:58 26,4 C 49 % 1016,6 hPa 0,0 l/m 8,5 km/h (2 Bft) NW 320 2 min 0,000 mm 5,6 UV-I 841 W/m 14,8 C 26,0 C 16,1 km/h (3 Bft) 98,00 %
09.07.2016 15:00 26,4 C 50 % 1016,6 hPa 0,0 l/m 9,7 km/h (2 Bft) NW 325 2 min 0,559 mm 5,5 UV-I 839 W/m 15,1 C 25,8 C 20,9 km/h (4 Bft) 97,87 %
09.07.2016 15:02 26,4 C 48 % 1016,6 hPa 0,0 l/m 10,6 km/h (2 Bft) W-NW 284 2 min 0,000 mm 5,5 UV-I 839 W/m 14,5 C 25,6 C 19,3 km/h (3 Bft) 100,00 %
09.07.2016 15:04 26,4 C 47 % 1016,6 hPa 0,0 l/m 15,9 km/h (3 Bft) W-SW 256 2 min 0,000 mm 5,3 UV-I 829 W/m 14,2 C 24,9 C 25,7 km/h (4 Bft) 100,00 %
09.07.2016 15:06 26,6 C 47 % 1016,6 hPa 0,0 l/m 13,2 km/h (3 Bft) SW 236 2 min 0,000 mm 5,3 UV-I 864 W/m 14,3 C 25,5 C 19,3 km/h (3 Bft) 100,00 %
09.07.2016 15:08 26,6 C 48 % 1016,6 hPa 0,0 l/m 4,9 km/h (1 Bft) NW 325 2 min 0,000 mm 3,3 UV-I 884 W/m 14,7 C 26,6 C 9,7 km/h (2 Bft) 100,00 %
09.07.2016 15:10 26,4 C 52 % 1016,6 hPa 0,0 l/m 5,3 km/h (1 Bft) SW 232 0 min 0,000 mm 2,5 UV-I 178 W/m 15,7 C 26,4 C 14,5 km/h (3 Bft) 100,00 %
09.07.2016 15:12 26,1 C 50 % 1016,6 hPa 0,0 l/m 4,6 km/h (1 Bft) N 5 0 min 0,000 mm 2,3 UV-I 165 W/m 14,8 C 26,1 C 11,3 km/h (2 Bft) 100,00 %
09.07.2016 15:14 25,6 C 52 % 1016,6 hPa 0,0 l/m 5,2 km/h (1 Bft) W-SW 248 0 min 0,000 mm 2,5 UV-I 185 W/m 15,0 C 25,6 C 9,7 km/h (2 Bft) 100,00 %
09.07.2016 15:16 25,5 C 53 % 1016,6 hPa 0,0 l/m 4,7 km/h (1 Bft) W 280 0 min 0,000 mm 3,8 UV-I 258 W/m 15,2 C 25,5 C 6,4 km/h (2 Bft) 97,44 %
09.07.2016 15:18 25,6 C 52 % 1016,5 hPa 0,0 l/m 5,4 km/h (1 Bft) W-SW 250 2 min 0,000 mm 5,1 UV-I 686 W/m 15,0 C 25,6 C 9,7 km/h (2 Bft) 100,00 %
09.07.2016 15:20 25,9 C 51 % 1016,5 hPa 0,0 l/m 10,8 km/h (2 Bft) W-SW 243 2 min 0,000 mm 5,0 UV-I 799 W/m 15,0 C 25,0 C 16,1 km/h (3 Bft) 98,18 %
09.07.2016 15:22 26,2 C 50 % 1016,5 hPa 0,0 l/m 5,5 km/h (1 Bft) W-SW 252 2 min 0,000 mm 4,9 UV-I 790 W/m 14,9 C 26,2 C 11,3 km/h (2 Bft) 100,00 %
09.07.2016 15:24 26,3 C 52 % 1016,5 hPa 0,0 l/m 2,4 km/h (1 Bft) W-SW 246 2 min 0,000 mm 4,9 UV-I 767 W/m 15,6 C 26,3 C 6,4 km/h (2 Bft) 100,00 %
09.07.2016 15:26 26,4 C 51 % 1016,4 hPa 0,0 l/m 6,0 km/h (2 Bft) SW 234 2 min 0,000 mm 4,9 UV-I 773 W/m 15,4 C 26,4 C 17,7 km/h (3 Bft) 97,62 %
09.07.2016 15:28 26,8 C 54 % 1016,5 hPa 0,0 l/m 4,5 km/h (1 Bft) W-SW 240 2 min 0,000 mm 3,7 UV-I 767 W/m 16,7 C 26,8 C 16,1 km/h (3 Bft) 100,00 %
09.07.2016 15:30 26,8 C 47 % 1016,4 hPa 0,0 l/m 14,0 km/h (3 Bft) W-SW 243 2 min 0,000 mm 4,4 UV-I 742 W/m 14,5 C 25,6 C 24,1 km/h (4 Bft) 98,00 %
09.07.2016 15:32 26,6 C 48 % 1016,5 hPa 0,0 l/m 14,5 km/h (3 Bft) W 281 2 min 0,000 mm 4,7 UV-I 767 W/m 14,7 C 25,3 C 22,5 km/h (4 Bft) 100,00 %
09.07.2016 15:34 26,6 C 48 % 1016,5 hPa 0,0 l/m 9,1 km/h (2 Bft) W-NW 293 2 min 0,000 mm 3,5 UV-I 768 W/m 14,7 C 26,1 C 20,9 km/h (4 Bft) 100,00 %
09.07.2016 15:36 26,6 C 49 % 1016,5 hPa 0,0 l/m 10,0 km/h (2 Bft) W-SW 254 2 min 0,000 mm 4,2 UV-I 751 W/m 15,0 C 25,9 C 17,7 km/h (3 Bft) 100,00 %
09.07.2016 15:38 26,6 C 48 % 1016,5 hPa 0,0 l/m 9,8 km/h (2 Bft) SW 235 2 min 0,000 mm 4,6 UV-I 751 W/m 14,7 C 26,0 C 17,7 km/h (3 Bft) 100,00 %
09.07.2016 15:40 26,6 C 48 % 1016,4 hPa 0,0 l/m 10,0 km/h (2 Bft) W 260 2 min 0,000 mm 4,5 UV-I 759 W/m 14,7 C 25,9 C 16,1 km/h (3 Bft) 100,00 %
09.07.2016 15:42 26,8 C 48 % 1016,4 hPa 0,0 l/m 8,0 km/h (2 Bft) SW 218 2 min 0,000 mm 4,4 UV-I 749 W/m 14,9 C 26,5 C 16,1 km/h (3 Bft) 100,00 %
09.07.2016 15:44 27,1 C 49 % 1016,5 hPa 0,0 l/m 11,3 km/h (2 Bft) SW 236 2 min 0,000 mm 4,1 UV-I 779 W/m 15,4 C 26,3 C 17,7 km/h (3 Bft) 97,37 %
09.07.2016 15:46 27,0 C 47 % 1016,5 hPa 0,0 l/m 11,6 km/h (2 Bft) W 262 2 min 0,000 mm 2,5 UV-I 637 W/m 14,7 C 26,1 C 17,7 km/h (3 Bft) 100,00 %
09.07.2016 15:48 26,7 C 48 % 1016,5 hPa 0,0 l/m 8,8 km/h (2 Bft) W-SW 243 0 min 0,000 mm 1,6 UV-I 226 W/m 14,8 C 26,2 C 12,9 km/h (3 Bft) 100,00 %
09.07.2016 15:50 26,5 C 48 % 1016,5 hPa 0,0 l/m 5,9 km/h (2 Bft) N-NO 33 2 min 0,000 mm 3,9 UV-I 769 W/m 14,6 C 26,5 C 14,5 km/h (3 Bft) 97,87 %
09.07.2016 15:52 26,5 C 48 % 1016,5 hPa 0,0 l/m 6,3 km/h (2 Bft) W 280 2 min 0,000 mm 4,2 UV-I 744 W/m 14,6 C 26,5 C 17,7 km/h (3 Bft) 100,00 %
09.07.2016 15:54 26,8 C 50 % 1016,4 hPa 0,0 l/m 10,4 km/h (2 Bft) SW 235 2 min 0,000 mm 4,2 UV-I 731 W/m 15,5 C 26,1 C 20,9 km/h (4 Bft) 98,11 %
09.07.2016 15:56 26,8 C 46 % 1016,4 hPa 0,0 l/m 12,4 km/h (3 Bft) W-NW 298 2 min 0,000 mm 4,1 UV-I 721 W/m 14,2 C 25,8 C 17,7 km/h (3 Bft) 100,00 %
09.07.2016 15:58 26,7 C 47 % 1016,5 hPa 0,0 l/m 10,2 km/h (2 Bft) W-NW 284 2 min 0,000 mm 3,7 UV-I 728 W/m 14,4 C 26,0 C 14,5 km/h (3 Bft) 98,11 %
09.07.2016 16:00 26,7 C 50 % 1016,5 hPa 0,0 l/m 6,4 km/h (2 Bft) N-NO 16 2 min 0,483 mm 4,0 UV-I 676 W/m 15,4 C 26,7 C 12,9 km/h (3 Bft) 97,62 %
09.07.2016 16:02 26,7 C 50 % 1016,4 hPa 0,0 l/m 11,5 km/h (2 Bft) W-NW 288 2 min 0,000 mm 4,0 UV-I 694 W/m 15,4 C 25,8 C 25,7 km/h (4 Bft) 94,44 %
09.07.2016 16:04 26,7 C 48 % 1016,5 hPa 0,0 l/m 9,3 km/h (2 Bft) SW 230 2 min 0,000 mm 3,7 UV-I 695 W/m 14,8 C 26,2 C 19,3 km/h (3 Bft) 98,39 %
09.07.2016 16:06 26,8 C 46 % 1016,5 hPa 0,0 l/m 10,3 km/h (2 Bft) W 261 2 min 0,000 mm 3,5 UV-I 695 W/m 14,2 C 26,1 C 17,7 km/h (3 Bft) 97,37 %
09.07.2016 16:08 26,9 C 46 % 1016,5 hPa 0,0 l/m 10,8 km/h (2 Bft) W-SW 254 2 min 0,000 mm 3,8 UV-I 692 W/m 14,3 C 26,1 C 17,7 km/h (3 Bft) 97,56 %
09.07.2016 16:10 27,0 C 46 % 1016,5 hPa 0,0 l/m 8,4 km/h (2 Bft) S-SW 192 2 min 0,000 mm 3,8 UV-I 688 W/m 14,4 C 26,6 C 16,1 km/h (3 Bft) 96,43 %
09.07.2016 16:12 27,1 C 45 % 1016,5 hPa 0,0 l/m 6,6 km/h (2 Bft) S-SW 210 2 min 0,000 mm 3,8 UV-I 687 W/m 14,1 C 27,1 C 14,5 km/h (3 Bft) 97,62 %
09.07.2016 16:14 27,2 C 49 % 1016,5 hPa 0,0 l/m 3,9 km/h (1 Bft) W 269 2 min 0,000 mm 3,7 UV-I 676 W/m 15,5 C 27,2 C 11,3 km/h (2 Bft) 95,45 %
09.07.2016 16:16 27,1 C 45 % 1016,5 hPa 0,0 l/m 9,7 km/h (2 Bft) W-NW 286 2 min 0,000 mm 3,6 UV-I 667 W/m 14,1 C 26,5 C 20,9 km/h (4 Bft) 98,31 %
09.07.2016 16:18 26,9 C 44 % 1016,5 hPa 0,0 l/m 13,7 km/h (3 Bft) N-NW 348 2 min 0,000 mm 3,6 UV-I 669 W/m 13,6 C 25,8 C 20,9 km/h (4 Bft) 97,14 %
09.07.2016 16:20 26,9 C 44 % 1016,5 hPa 0,0 l/m 9,7 km/h (2 Bft) W-NW 296 2 min 0,000 mm 3,5 UV-I 668 W/m 13,6 C 26,3 C 19,3 km/h (3 Bft) 96,61 %
09.07.2016 16:22 26,9 C 44 % 1016,5 hPa 0,0 l/m 10,1 km/h (2 Bft) W 261 2 min 0,000 mm 3,4 UV-I 674 W/m 13,6 C 26,2 C 17,7 km/h (3 Bft) 95,45 %
09.07.2016 16:24 26,9 C 46 % 1016,4 hPa 0,0 l/m 8,9 km/h (2 Bft) W-NW 284 2 min 0,000 mm 3,5 UV-I 677 W/m 14,3 C 26,4 C 20,9 km/h (4 Bft) 95,12 %
09.07.2016 16:26 27,1 C 46 % 1016,4 hPa 0,0 l/m 6,0 km/h (2 Bft) N-NW 333 2 min 0,000 mm 3,4 UV-I 672 W/m 14,5 C 27,1 C 19,3 km/h (3 Bft) 96,23 %
09.07.2016 16:28 27,1 C 46 % 1016,4 hPa 0,0 l/m 4,1 km/h (1 Bft) NW 307 2 min 0,000 mm 3,3 UV-I 685 W/m 14,5 C 27,1 C 14,5 km/h (3 Bft) 94,00 %
09.07.2016 16:30 27,1 C 45 % 1016,5 hPa 0,0 l/m 8,9 km/h (2 Bft) W-SW 238 2 min 0,000 mm 3,3 UV-I 707 W/m 14,1 C 26,7 C 16,1 km/h (3 Bft) 97,56 %
09.07.2016 16:32 27,1 C 46 % 1016,4 hPa 0,0 l/m 8,0 km/h (2 Bft) W-SW 254 2 min 0,000 mm 3,2 UV-I 685 W/m 14,5 C 26,8 C 16,1 km/h (3 Bft) 94,34 %
09.07.2016 16:34 27,3 C 47 % 1016,4 hPa 0,0 l/m 8,4 km/h (2 Bft) S-SW 208 2 min 0,000 mm 3,1 UV-I 678 W/m 15,0 C 26,9 C 16,1 km/h (3 Bft) 100,00 %
09.07.2016 16:36 27,3 C 46 % 1016,4 hPa 0,0 l/m 6,6 km/h (2 Bft) W 275 2 min 0,000 mm 3,2 UV-I 671 W/m 14,6 C 27,3 C 16,1 km/h (3 Bft) 100,00 %
09.07.2016 16:38 27,2 C 46 % 1016,4 hPa 0,0 l/m 5,7 km/h (1 Bft) W 262 2 min 0,000 mm 2,8 UV-I 634 W/m 14,6 C 27,2 C 12,9 km/h (3 Bft) 100,00 %
09.07.2016 16:40 26,9 C 48 % 1016,4 hPa 0,0 l/m 5,6 km/h (1 Bft) N 5 2 min 0,000 mm 2,8 UV-I 606 W/m 14,9 C 26,9 C 16,1 km/h (3 Bft) 97,73 %
09.07.2016 16:42 26,6 C 47 % 1016,3 hPa 0,0 l/m 5,8 km/h (2 Bft) N-NW 346 2 min 0,000 mm 2,8 UV-I 629 W/m 14,3 C 26,6 C 14,5 km/h (3 Bft) 100,00 %
09.07.2016 16:44 26,6 C 49 % 1016,3 hPa 0,0 l/m 5,2 km/h (1 Bft) W-NW 302 2 min 0,000 mm 2,9 UV-I 640 W/m 15,0 C 26,6 C 12,9 km/h (3 Bft) 100,00 %
09.07.2016 16:46 26,7 C 49 % 1016,3 hPa 0,0 l/m 2,6 km/h (1 Bft) W-SW 255 2 min 0,000 mm 2,8 UV-I 654 W/m 15,1 C 26,7 C 6,4 km/h (2 Bft) 98,11 %
09.07.2016 16:48 26,8 C 51 % 1016,3 hPa 0,0 l/m 3,3 km/h (1 Bft) W 266 0 min 0,000 mm 2,4 UV-I 207 W/m 15,8 C 26,8 C 4,8 km/h (1 Bft) 100,00 %
09.07.2016 16:50 26,9 C 49 % 1016,2 hPa 0,0 l/m 3,1 km/h (1 Bft) N-NW 333 2 min 0,000 mm 2,5 UV-I 510 W/m 15,3 C 26,9 C 6,4 km/h (2 Bft) 100,00 %
09.07.2016 16:52 26,9 C 48 % 1016,3 hPa 0,0 l/m 6,5 km/h (2 Bft) SW 226 2 min 0,000 mm 2,3 UV-I 540 W/m 14,9 C 26,9 C 14,5 km/h (3 Bft) 100,00 %
09.07.2016 16:54 26,9 C 50 % 1016,3 hPa 0,0 l/m 6,8 km/h (2 Bft) SW 225 0 min 0,000 mm 2,7 UV-I 237 W/m 15,6 C 26,8 C 14,5 km/h (3 Bft) 100,00 %
09.07.2016 16:56 26,9 C 48 % 1016,2 hPa 0,0 l/m 9,8 km/h (2 Bft) S 184 0 min 0,000 mm 2,2 UV-I 219 W/m 14,9 C 26,3 C 16,1 km/h (3 Bft) 100,00 %
09.07.2016 16:58 26,7 C 46 % 1016,3 hPa 0,0 l/m 9,0 km/h (2 Bft) W-SW 246 0 min 0,000 mm 1,9 UV-I 161 W/m 14,1 C 26,2 C 14,5 km/h (3 Bft) 97,73 %
09.07.2016 17:00 26,4 C 48 % 1016,3 hPa 0,0 l/m 5,2 km/h (1 Bft) W-NW 293 0 min 0,432 mm 1,7 UV-I 149 W/m 14,5 C 26,4 C 12,9 km/h (3 Bft) 100,00 %
09.07.2016 17:02 26,2 C 49 % 1016,3 hPa 0,0 l/m 5,2 km/h (1 Bft) S-SO 159 0 min 0,000 mm 1,8 UV-I 169 W/m 14,6 C 26,2 C 9,7 km/h (2 Bft) 100,00 %
09.07.2016 17:04 26,1 C 50 % 1016,3 hPa 0,0 l/m 4,6 km/h (1 Bft) S-SW 202 0 min 0,000 mm 1,7 UV-I 163 W/m 14,8 C 26,1 C 12,9 km/h (3 Bft) 100,00 %
09.07.2016 17:06 26,0 C 49 % 1016,2 hPa 0,0 l/m 2,8 km/h (1 Bft) W-SW 237 0 min 0,000 mm 1,7 UV-I 197 W/m 14,4 C 26,0 C 4,8 km/h (1 Bft) 95,74 %
09.07.2016 17:08 26,1 C 52 % 1016,2 hPa 0,0 l/m 3,2 km/h (1 Bft) W-SW 252 2 min 0,000 mm 2,3 UV-I 499 W/m 15,5 C 26,1 C 16,1 km/h (3 Bft) 100,00 %
09.07.2016 17:10 26,3 C 50 % 1016,2 hPa 0,0 l/m 3,5 km/h (1 Bft) W-NW 289 2 min 0,000 mm 2,3 UV-I 591 W/m 15,0 C 26,3 C 8,0 km/h (2 Bft) 98,18 %
09.07.2016 17:12 26,5 C 49 % 1016,2 hPa 0,0 l/m 5,4 km/h (1 Bft) N-NW 333 2 min 0,000 mm 2,3 UV-I 559 W/m 14,9 C 26,5 C 14,5 km/h (3 Bft) 100,00 %
09.07.2016 17:14 26,7 C 51 % 1016,2 hPa 0,0 l/m 5,7 km/h (1 Bft) W-NW 284 2 min 0,000 mm 2,2 UV-I 545 W/m 15,7 C 26,7 C 14,5 km/h (3 Bft) 97,87 %
09.07.2016 17:16 26,7 C 48 % 1016,2 hPa 0,0 l/m 5,8 km/h (2 Bft) N-NO 12 2 min 0,000 mm 2,2 UV-I 547 W/m 14,8 C 26,7 C 14,5 km/h (3 Bft) 98,00 %
09.07.2016 17:18 26,8 C 51 % 1016,1 hPa 0,0 l/m 2,2 km/h (1 Bft) W-NW 300 2 min 0,000 mm 2,1 UV-I 531 W/m 15,8 C 26,8 C 4,8 km/h (1 Bft) 100,00 %
09.07.2016 17:20 26,9 C 49 % 1016,1 hPa 0,0 l/m 4,1 km/h (1 Bft) W-NW 292 2 min 0,000 mm 2,1 UV-I 525 W/m 15,3 C 26,9 C 6,4 km/h (2 Bft) 100,00 %
09.07.2016 17:22 26,9 C 50 % 1016,1 hPa 0,0 l/m 7,4 km/h (2 Bft) N-NW 337 2 min 0,000 mm 2,1 UV-I 520 W/m 15,6 C 26,7 C 16,1 km/h (3 Bft) 100,00 %
09.07.2016 17:24 26,9 C 47 % 1016,1 hPa 0,0 l/m 3,6 km/h (1 Bft) W-NW 285 2 min 0,000 mm 2,0 UV-I 516 W/m 14,6 C 26,9 C 12,9 km/h (3 Bft) 100,00 %
09.07.2016 17:26 27,0 C 47 % 1016,1 hPa 0,0 l/m 3,1 km/h (1 Bft) NW 325 2 min 0,000 mm 1,9 UV-I 500 W/m 14,7 C 27,0 C 6,4 km/h (2 Bft) 100,00 %
09.07.2016 17:28 26,8 C 50 % 1016,1 hPa 0,0 l/m 3,7 km/h (1 Bft) W-NW 300 2 min 0,000 mm 1,9 UV-I 493 W/m 15,5 C 26,8 C 8,0 km/h (2 Bft) 100,00 %
09.07.2016 17:30 26,6 C 48 % 1016,0 hPa 0,0 l/m 4,5 km/h (1 Bft) W 280 2 min 0,000 mm 1,9 UV-I 498 W/m 14,7 C 26,6 C 16,1 km/h (3 Bft) 97,87 %
09.07.2016 17:32 26,6 C 48 % 1016,0 hPa 0,0 l/m 5,6 km/h (1 Bft) W 281 2 min 0,000 mm 1,7 UV-I 499 W/m 14,7 C 26,6 C 14,5 km/h (3 Bft) 100,00 %
09.07.2016 17:34 26,4 C 48 % 1016,1 hPa 0,0 l/m 6,4 km/h (2 Bft) W-SW 244 2 min 0,000 mm 1,6 UV-I 300 W/m 14,5 C 26,4 C 14,5 km/h (3 Bft) 96,00 %
09.07.2016 17:36 26,3 C 48 % 1016,1 hPa 0,0 l/m 8,7 km/h (2 Bft) W 269 2 min 0,000 mm 1,6 UV-I 285 W/m 14,4 C 25,8 C 16,1 km/h (3 Bft) 97,73 %
09.07.2016 17:38 26,2 C 51 % 1016,0 hPa 0,0 l/m 3,5 km/h (1 Bft) SW 214 2 min 0,000 mm 1,6 UV-I 334 W/m 15,2 C 26,2 C 11,3 km/h (2 Bft) 100,00 %
09.07.2016 17:40 26,4 C 50 % 1016,0 hPa 0,0 l/m 3,0 km/h (1 Bft) W-SW 249 2 min 0,000 mm 1,7 UV-I 507 W/m 15,1 C 26,4 C 9,7 km/h (2 Bft) 97,56 %
09.07.2016 17:42 26,8 C 49 % 1016,0 hPa 0,0 l/m 4,0 km/h (1 Bft) W-SW 244 2 min 0,000 mm 1,7 UV-I 536 W/m 15,2 C 26,8 C 8,0 km/h (2 Bft) 100,00 %
09.07.2016 17:44 26,8 C 47 % 1015,9 hPa 0,0 l/m 9,3 km/h (2 Bft) W-NW 286 2 min 0,000 mm 1,7 UV-I 525 W/m 14,5 C 26,3 C 16,1 km/h (3 Bft) 98,11 %
09.07.2016 17:46 26,8 C 50 % 1016,0 hPa 0,0 l/m 4,0 km/h (1 Bft) SW 234 2 min 0,000 mm 1,7 UV-I 489 W/m 15,5 C 26,8 C 11,3 km/h (2 Bft) 100,00 %
09.07.2016 17:48 26,8 C 50 % 1015,9 hPa 0,0 l/m 3,3 km/h (1 Bft) W-SW 256 2 min 0,000 mm 1,6 UV-I 457 W/m 15,5 C 26,8 C 4,8 km/h (1 Bft) 100,00 %
09.07.2016 17:50 26,8 C 49 % 1015,9 hPa 0,0 l/m 5,1 km/h (1 Bft) W-SW 254 2 min 0,000 mm 1,5 UV-I 438 W/m 15,2 C 26,8 C 12,9 km/h (3 Bft) 95,74 %
09.07.2016 17:52 26,7 C 47 % 1015,9 hPa 0,0 l/m 6,3 km/h (2 Bft) NW 306 2 min 0,000 mm 1,4 UV-I 425 W/m 14,4 C 26,7 C 11,3 km/h (2 Bft) 94,34 %
09.07.2016 17:54 26,7 C 49 % 1016,0 hPa 0,0 l/m 3,9 km/h (1 Bft) W 265 2 min 0,000 mm 1,4 UV-I 425 W/m 15,1 C 26,7 C 9,7 km/h (2 Bft) 96,30 %
09.07.2016 17:56 26,7 C 46 % 1015,9 hPa 0,0 l/m 9,8 km/h (2 Bft) W 269 2 min 0,000 mm 1,4 UV-I 419 W/m 14,1 C 26,1 C 20,9 km/h (4 Bft) 97,14 %
09.07.2016 17:58 26,6 C 48 % 1015,9 hPa 0,0 l/m 5,9 km/h (2 Bft) W-SW 245 2 min 0,000 mm 1,3 UV-I 409 W/m 14,7 C 26,6 C 16,1 km/h (3 Bft) 97,62 %
09.07.2016 18:00 26,6 C 49 % 1015,9 hPa 0,0 l/m 6,6 km/h (2 Bft) W 274 2 min 0,000 mm 1,3 UV-I 406 W/m 15,0 C 26,6 C 14,5 km/h (3 Bft) 96,00 %
09.07.2016 18:02 26,6 C 48 % 1015,9 hPa 0,0 l/m 7,8 km/h (2 Bft) W-SW 245 2 min 0,330 mm 1,3 UV-I 400 W/m 14,7 C 26,3 C 14,5 km/h (3 Bft) 98,00 %
09.07.2016 18:04 26,6 C 46 % 1015,9 hPa 0,0 l/m 8,4 km/h (2 Bft) W-SW 242 2 min 0,000 mm 1,2 UV-I 392 W/m 14,0 C 26,2 C 14,5 km/h (3 Bft) 95,00 %
09.07.2016 18:06 26,6 C 46 % 1016,0 hPa 0,0 l/m 8,8 km/h (2 Bft) SW 229 2 min 0,000 mm 1,2 UV-I 385 W/m 14,0 C 26,1 C 20,9 km/h (4 Bft) 98,00 %
09.07.2016 18:08 26,5 C 46 % 1015,9 hPa 0,0 l/m 9,0 km/h (2 Bft) SW 219 2 min 0,000 mm 1,2 UV-I 382 W/m 13,9 C 26,0 C 16,1 km/h (3 Bft) 96,00 %
09.07.2016 18:10 26,4 C 47 % 1015,9 hPa 0,0 l/m 8,1 km/h (2 Bft) W 264 2 min 0,000 mm 1,1 UV-I 376 W/m 14,2 C 26,1 C 14,5 km/h (3 Bft) 97,37 %
09.07.2016 18:12 26,5 C 48 % 1015,9 hPa 0,0 l/m 4,9 km/h (1 Bft) NW 324 2 min 0,000 mm 1,1 UV-I 369 W/m 14,6 C 26,5 C 12,9 km/h (3 Bft) 98,11 %
09.07.2016 18:14 26,5 C 48 % 1015,8 hPa 0,0 l/m 2,1 km/h (1 Bft) W-SW 252 2 min 0,000 mm 1,1 UV-I 362 W/m 14,6 C 26,5 C 6,4 km/h (2 Bft) 97,56 %
09.07.2016 18:16 26,4 C 49 % 1015,8 hPa 0,0 l/m 5,5 km/h (1 Bft) NW 323 2 min 0,000 mm 1,0 UV-I 354 W/m 14,8 C 26,4 C 11,3 km/h (2 Bft) 97,87 %
09.07.2016 18:18 26,2 C 49 % 1015,8 hPa 0,0 l/m 4,1 km/h (1 Bft) W 267 2 min 0,000 mm 1,0 UV-I 348 W/m 14,6 C 26,2 C 9,7 km/h (2 Bft) 98,11 %
09.07.2016 18:20 26,2 C 50 % 1015,8 hPa 0,0 l/m 3,3 km/h (1 Bft) W-NW 298 2 min 0,000 mm 1,0 UV-I 347 W/m 14,9 C 26,2 C 6,4 km/h (2 Bft) 97,37 %
09.07.2016 18:22 26,2 C 48 % 1015,7 hPa 0,0 l/m 3,5 km/h (1 Bft) W 273 2 min 0,000 mm 0,9 UV-I 348 W/m 14,3 C 26,2 C 9,7 km/h (2 Bft) 96,43 %
09.07.2016 18:24 26,2 C 51 % 1015,8 hPa 0,0 l/m 0,9 km/h (0 Bft) W 269 2 min 0,000 mm 0,9 UV-I 341 W/m 15,2 C 26,2 C 1,6 km/h (1 Bft) 100,00 %
09.07.2016 18:26 26,3 C 49 % 1015,8 hPa 0,0 l/m 4,1 km/h (1 Bft) W 259 2 min 0,000 mm 0,9 UV-I 335 W/m 14,7 C 26,3 C 12,9 km/h (3 Bft) 98,31 %
09.07.2016 18:28 26,3 C 48 % 1015,7 hPa 0,0 l/m 3,9 km/h (1 Bft) W 271 2 min 0,000 mm 0,8 UV-I 327 W/m 14,4 C 26,3 C 11,3 km/h (2 Bft) 100,00 %
09.07.2016 18:30 26,3 C 48 % 1015,7 hPa 0,0 l/m 5,6 km/h (1 Bft) W 279 2 min 0,000 mm 0,8 UV-I 319 W/m 14,4 C 26,3 C 12,9 km/h (3 Bft) 100,00 %
09.07.2016 18:32 26,3 C 49 % 1015,8 hPa 0,0 l/m 2,6 km/h (1 Bft) W-SW 246 2 min 0,000 mm 0,8 UV-I 317 W/m 14,7 C 26,3 C 4,8 km/h (1 Bft) 100,00 %
09.07.2016 18:34 26,2 C 49 % 1015,8 hPa 0,0 l/m 1,0 km/h (0 Bft) W-SW 242 2 min 0,000 mm 0,8 UV-I 311 W/m 14,6 C 26,2 C 4,8 km/h (1 Bft) 100,00 %
09.07.2016 18:36 26,2 C 49 % 1015,8 hPa 0,0 l/m 2,3 km/h (1 Bft) W 268 2 min 0,000 mm 0,8 UV-I 309 W/m 14,6 C 26,2 C 4,8 km/h (1 Bft) 98,11 %
09.07.2016 18:38 26,2 C 49 % 1015,8 hPa 0,0 l/m 5,7 km/h (1 Bft) W 259 2 min 0,000 mm 0,8 UV-I 306 W/m 14,6 C 26,2 C 11,3 km/h (2 Bft) 100,00 %
09.07.2016 18:40 26,2 C 49 % 1015,8 hPa 0,0 l/m 4,2 km/h (1 Bft) W-SW 244 2 min 0,000 mm 0,7 UV-I 301 W/m 14,6 C 26,2 C 9,7 km/h (2 Bft) 98,11 %
09.07.2016 18:42 26,2 C 49 % 1015,7 hPa 0,0 l/m 6,6 km/h (2 Bft) W-NW 298 2 min 0,000 mm 0,7 UV-I 298 W/m 14,6 C 26,2 C 14,5 km/h (3 Bft) 98,11 %
09.07.2016 18:44 26,1 C 49 % 1015,7 hPa 0,0 l/m 4,0 km/h (1 Bft) W 276 2 min 0,000 mm 0,7 UV-I 297 W/m 14,5 C 26,1 C 8,0 km/h (2 Bft) 100,00 %
09.07.2016 18:46 26,2 C 48 % 1015,7 hPa 0,0 l/m 4,0 km/h (1 Bft) SW 232 2 min 0,000 mm 0,7 UV-I 294 W/m 14,3 C 26,2 C 11,3 km/h (2 Bft) 100,00 %
09.07.2016 18:48 26,1 C 48 % 1015,8 hPa 0,0 l/m 8,5 km/h (2 Bft) W-NW 300 2 min 0,000 mm 0,6 UV-I 290 W/m 14,2 C 25,7 C 16,1 km/h (3 Bft) 97,56 %
09.07.2016 18:50 26,1 C 48 % 1015,7 hPa 0,0 l/m 5,5 km/h (1 Bft) W-SW 251 2 min 0,000 mm 0,6 UV-I 284 W/m 14,2 C 26,1 C 16,1 km/h (3 Bft) 100,00 %
09.07.2016 18:52 26,2 C 48 % 1015,8 hPa 0,0 l/m 9,4 km/h (2 Bft) W-SW 237 2 min 0,000 mm 0,6 UV-I 273 W/m 14,3 C 25,6 C 17,7 km/h (3 Bft) 100,00 %
09.07.2016 18:54 26,2 C 48 % 1015,8 hPa 0,0 l/m 9,7 km/h (2 Bft) W-SW 240 2 min 0,000 mm 0,6 UV-I 265 W/m 14,3 C 25,5 C 16,1 km/h (3 Bft) 97,37 %
09.07.2016 18:56 26,1 C 49 % 1015,7 hPa 0,0 l/m 6,5 km/h (2 Bft) N-NW 336 2 min 0,000 mm 0,5 UV-I 255 W/m 14,5 C 26,1 C 12,9 km/h (3 Bft) 100,00 %
09.07.2016 18:58 26,1 C 48 % 1015,7 hPa 0,0 l/m 4,7 km/h (1 Bft) W-SW 241 2 min 0,000 mm 0,5 UV-I 244 W/m 14,2 C 26,1 C 9,7 km/h (2 Bft) 100,00 %
09.07.2016 19:00 26,1 C 49 % 1015,8 hPa 0,0 l/m 6,0 km/h (2 Bft) W-NW 303 2 min 0,000 mm 0,5 UV-I 236 W/m 14,5 C 26,1 C 12,9 km/h (3 Bft) 97,87 %
09.07.2016 19:02 26,1 C 50 % 1015,7 hPa 0,0 l/m 3,4 km/h (1 Bft) W-SW 248 2 min 0,254 mm 0,5 UV-I 232 W/m 14,8 C 26,1 C 8,0 km/h (2 Bft) 100,00 %
09.07.2016 19:04 26,1 C 50 % 1015,7 hPa 0,0 l/m 4,8 km/h (1 Bft) W 279 2 min 0,000 mm 0,5 UV-I 224 W/m 14,8 C 26,1 C 11,3 km/h (2 Bft) 98,00 %
09.07.2016 19:06 26,0 C 48 % 1015,7 hPa 0,0 l/m 5,2 km/h (1 Bft) W-NW 292 2 min 0,000 mm 0,2 UV-I 218 W/m 14,1 C 26,0 C 16,1 km/h (3 Bft) 100,00 %
09.07.2016 19:08 25,9 C 49 % 1015,6 hPa 0,0 l/m 5,2 km/h (1 Bft) S-SW 208 2 min 0,000 mm 0,0 UV-I 214 W/m 14,4 C 25,9 C 11,3 km/h (2 Bft) 100,00 %
09.07.2016 19:10 25,9 C 49 % 1015,6 hPa 0,0 l/m 7,0 km/h (2 Bft) SW 232 2 min 0,000 mm 0,0 UV-I 207 W/m 14,4 C 25,8 C 14,5 km/h (3 Bft) 100,00 %
09.07.2016 19:12 25,9 C 50 % 1015,6 hPa 0,0 l/m 6,9 km/h (2 Bft) W-SW 251 2 min 0,000 mm 0,0 UV-I 200 W/m 14,7 C 25,8 C 14,5 km/h (3 Bft) 97,92 %
09.07.2016 19:14 25,8 C 49 % 1015,6 hPa 0,0 l/m 5,0 km/h (1 Bft) W 266 2 min 0,000 mm 0,0 UV-I 191 W/m 14,3 C 25,8 C 11,3 km/h (2 Bft) 100,00 %
09.07.2016 19:16 25,8 C 49 % 1015,6 hPa 0,0 l/m 3,9 km/h (1 Bft) W 273 2 min 0,000 mm 0,0 UV-I 186 W/m 14,3 C 25,8 C 9,7 km/h (2 Bft) 100,00 %
09.07.2016 19:18 25,8 C 50 % 1015,6 hPa 0,0 l/m 5,7 km/h (1 Bft) W-SW 241 2 min 0,000 mm 0,0 UV-I 184 W/m 14,6 C 25,8 C 12,9 km/h (3 Bft) 97,78 %
09.07.2016 19:20 25,8 C 48 % 1015,6 hPa 0,0 l/m 4,9 km/h (1 Bft) W-NW 290 2 min 0,000 mm 0,0 UV-I 178 W/m 13,9 C 25,8 C 14,5 km/h (3 Bft) 100,00 %
09.07.2016 19:22 25,8 C 49 % 1015,7 hPa 0,0 l/m 6,6 km/h (2 Bft) SW 222 2 min 0,000 mm 0,0 UV-I 174 W/m 14,3 C 25,8 C 11,3 km/h (2 Bft) 100,00 %
09.07.2016 19:24 25,8 C 49 % 1015,6 hPa 0,0 l/m 4,2 km/h (1 Bft) W 259 2 min 0,000 mm 0,0 UV-I 168 W/m 14,3 C 25,8 C 6,4 km/h (2 Bft) 100,00 %
09.07.2016 19:26 25,8 C 52 % 1015,7 hPa 0,0 l/m 1,7 km/h (1 Bft) W-SW 253 2 min 0,000 mm 0,0 UV-I 162 W/m 15,2 C 25,8 C 3,2 km/h (1 Bft) 98,46 %
09.07.2016 19:28 25,7 C 50 % 1015,7 hPa 0,0 l/m 1,1 km/h (1 Bft) W-NW 299 2 min 0,000 mm 0,0 UV-I 155 W/m 14,5 C 25,7 C 3,2 km/h (1 Bft) 100,00 %
09.07.2016 19:30 25,7 C 52 % 1015,7 hPa 0,0 l/m 3,3 km/h (1 Bft) NW 307 2 min 0,000 mm 0,0 UV-I 153 W/m 15,1 C 25,7 C 4,8 km/h (1 Bft) 98,00 %
09.07.2016 19:32 25,6 C 52 % 1015,7 hPa 0,0 l/m 1,7 km/h (1 Bft) W 259 2 min 0,000 mm 0,0 UV-I 141 W/m 15,0 C 25,6 C 9,7 km/h (2 Bft) 95,12 %
09.07.2016 19:34 25,6 C 52 % 1015,7 hPa 0,0 l/m 1,0 km/h (0 Bft) W-SW 254 2 min 0,000 mm 0,0 UV-I 143 W/m 15,0 C 25,6 C 3,2 km/h (1 Bft) 100,00 %
09.07.2016 19:36 25,5 C 53 % 1015,7 hPa 0,0 l/m 1,4 km/h (1 Bft) W-SW 255 2 min 0,000 mm 0,0 UV-I 141 W/m 15,2 C 25,5 C 4,8 km/h (1 Bft) 100,00 %
09.07.2016 19:38 25,5 C 52 % 1015,7 hPa 0,0 l/m 1,0 km/h (0 Bft) W-SW 255 2 min 0,000 mm 0,0 UV-I 136 W/m 14,9 C 25,5 C 3,2 km/h (1 Bft) 100,00 %
09.07.2016 19:40 25,4 C 53 % 1015,7 hPa 0,0 l/m 2,0 km/h (1 Bft) NW 313 2 min 0,000 mm 0,0 UV-I 135 W/m 15,1 C 25,4 C 3,2 km/h (1 Bft) 100,00 %
09.07.2016 19:42 25,4 C 52 % 1015,8 hPa 0,0 l/m 1,9 km/h (1 Bft) W-NW 302 2 min 0,000 mm 0,0 UV-I 133 W/m 14,8 C 25,4 C 3,2 km/h (1 Bft) 100,00 %
09.07.2016 19:44 25,4 C 54 % 1015,8 hPa 0,0 l/m 0,5 km/h (0 Bft) W-NW 302 2 min 0,000 mm 0,0 UV-I 122 W/m 15,4 C 25,4 C 1,6 km/h (1 Bft) 97,37 %
09.07.2016 19:46 25,3 C 54 % 1015,7 hPa 0,0 l/m 1,0 km/h (0 Bft) W-NW 285 0 min 0,000 mm 0,0 UV-I 76 W/m 15,3 C 25,3 C 3,2 km/h (1 Bft) 96,23 %
09.07.2016 19:48 25,2 C 55 % 1015,8 hPa 0,0 l/m 0,8 km/h (0 Bft) W-SW 244 0 min 0,000 mm 0,0 UV-I 75 W/m 15,5 C 25,2 C 3,2 km/h (1 Bft) 97,14 %
09.07.2016 19:50 25,1 C 55 % 1015,8 hPa 0,0 l/m 2,3 km/h (1 Bft) W-SW 250 0 min 0,000 mm 0,0 UV-I 71 W/m 15,4 C 25,1 C 4,8 km/h (1 Bft) 94,92 %
09.07.2016 19:52 24,9 C 54 % 1015,8 hPa 0,0 l/m 1,6 km/h (1 Bft) W 271 0 min 0,000 mm 0,0 UV-I 70 W/m 14,9 C 24,9 C 4,8 km/h (1 Bft) 100,00 %
09.07.2016 19:54 24,8 C 55 % 1015,8 hPa 0,0 l/m 2,1 km/h (1 Bft) W 264 0 min 0,000 mm 0,0 UV-I 71 W/m 15,1 C 24,8 C 6,4 km/h (2 Bft) 97,37 %
09.07.2016 19:56 24,8 C 55 % 1015,8 hPa 0,0 l/m 0,8 km/h (0 Bft) W 264 2 min 0,000 mm 0,0 UV-I 89 W/m 15,1 C 24,8 C 1,6 km/h (1 Bft) 95,16 %
09.07.2016 19:58 24,7 C 56 % 1015,8 hPa 0,0 l/m 0,5 km/h (0 Bft) W 268 2 min 0,000 mm 0,0 UV-I 108 W/m 15,3 C 24,7 C 1,6 km/h (1 Bft) 98,00 %
09.07.2016 20:00 24,7 C 59 % 1015,8 hPa 0,0 l/m 1,6 km/h (1 Bft) W 269 2 min 0,127 mm 0,0 UV-I 109 W/m 16,1 C 24,7 C 3,2 km/h (1 Bft) 97,87 %
09.07.2016 20:02 24,8 C 55 % 1015,8 hPa 0,0 l/m 1,8 km/h (1 Bft) W 279 2 min 0,000 mm 0,0 UV-I 104 W/m 15,1 C 24,8 C 6,4 km/h (2 Bft) 97,87 %
09.07.2016 20:04 24,8 C 56 % 1015,9 hPa 0,0 l/m 0,7 km/h (0 Bft) W-NW 284 2 min 0,000 mm 0,0 UV-I 99 W/m 15,4 C 24,8 C 1,6 km/h (1 Bft) 97,73 %
09.07.2016 20:06 24,8 C 57 % 1015,9 hPa 0,0 l/m 1,1 km/h (1 Bft) W-NW 292 2 min 0,000 mm 0,0 UV-I 92 W/m 15,7 C 24,8 C 3,2 km/h (1 Bft) 97,87 %
09.07.2016 20:08 24,7 C 56 % 1015,9 hPa 0,0 l/m 3,1 km/h (1 Bft) W 280 2 min 0,000 mm 0,0 UV-I 86 W/m 15,3 C 24,7 C 9,7 km/h (2 Bft) 96,00 %
09.07.2016 20:10 24,7 C 57 % 1015,9 hPa 0,0 l/m 1,4 km/h (1 Bft) W-SW 248 2 min 0,000 mm 0,0 UV-I 82 W/m 15,6 C 24,7 C 3,2 km/h (1 Bft) 97,87 %
09.07.2016 20:12 24,6 C 57 % 1015,9 hPa 0,0 l/m 0,9 km/h (0 Bft) N-NW 328 2 min 0,000 mm 0,0 UV-I 72 W/m 15,5 C 24,6 C 3,2 km/h (1 Bft) 96,00 %
09.07.2016 20:14 24,6 C 57 % 1015,9 hPa 0,0 l/m 2,2 km/h (1 Bft) W-NW 296 0 min 0,000 mm 0,0 UV-I 56 W/m 15,5 C 24,6 C 4,8 km/h (1 Bft) 97,37 %
09.07.2016 20:16 24,5 C 57 % 1015,9 hPa 0,0 l/m 2,4 km/h (1 Bft) W-NW 291 0 min 0,000 mm 0,0 UV-I 49 W/m 15,4 C 24,5 C 6,4 km/h (2 Bft) 98,00 %
09.07.2016 20:18 24,4 C 57 % 1015,9 hPa 0,0 l/m 1,9 km/h (1 Bft) W-SW 250 0 min 0,000 mm 0,0 UV-I 42 W/m 15,3 C 24,4 C 4,8 km/h (1 Bft) 100,00 %
09.07.2016 20:20 24,3 C 58 % 1015,9 hPa 0,0 l/m 1,0 km/h (0 Bft) W 269 0 min 0,000 mm 0,0 UV-I 35 W/m 15,5 C 24,3 C 1,6 km/h (1 Bft) 100,00 %
09.07.2016 20:22 24,1 C 58 % 1015,9 hPa 0,0 l/m 2,0 km/h (1 Bft) N-NW 336 0 min 0,000 mm 0,0 UV-I 30 W/m 15,3 C 24,1 C 4,8 km/h (1 Bft) 100,00 %
09.07.2016 20:24 24,0 C 60 % 1015,9 hPa 0,0 l/m 0,4 km/h (0 Bft) N-NW 336 0 min 0,000 mm 0,0 UV-I 26 W/m 15,7 C 24,0 C 1,6 km/h (1 Bft) 97,37 %
09.07.2016 20:26 23,9 C 59 % 1015,9 hPa 0,0 l/m 0,3 km/h (0 Bft) N-NW 336 0 min 0,000 mm 0,0 UV-I 25 W/m 15,4 C 23,9 C 1,6 km/h (1 Bft) 100,00 %
09.07.2016 20:28 23,8 C 61 % 1015,9 hPa 0,0 l/m 0,9 km/h (0 Bft) N-NW 331 0 min 0,000 mm 0,0 UV-I 24 W/m 15,8 C 23,8 C 3,2 km/h (1 Bft) 100,00 %
09.07.2016 20:30 23,7 C 59 % 1016,0 hPa 0,0 l/m 1,5 km/h (1 Bft) NW 317 0 min 0,000 mm 0,0 UV-I 21 W/m 15,2 C 23,7 C 3,2 km/h (1 Bft) 100,00 %
09.07.2016 20:32 23,7 C 60 % 1015,9 hPa 0,0 l/m 0,3 km/h (0 Bft) NW 317 0 min 0,000 mm 0,0 UV-I 18 W/m 15,5 C 23,7 C 1,6 km/h (1 Bft) 100,00 %
09.07.2016 20:34 23,6 C 59 % 1016,0 hPa 0,0 l/m 1,4 km/h (1 Bft) NW 314 0 min 0,000 mm 0,0 UV-I 15 W/m 15,1 C 23,6 C 3,2 km/h (1 Bft) 100,00 %
09.07.2016 20:36 23,6 C 60 % 1016,0 hPa 0,0 l/m 0,4 km/h (0 Bft) NW 314 0 min 0,000 mm 0,0 UV-I 13 W/m 15,4 C 23,6 C 3,2 km/h (1 Bft) 98,08 %
09.07.2016 20:38 23,5 C 60 % 1016,0 hPa 0,0 l/m 0,3 km/h (0 Bft) NW 314 0 min 0,000 mm 0,0 UV-I 12 W/m 15,3 C 23,5 C 1,6 km/h (1 Bft) 100,00 %
09.07.2016 20:40 23,4 C 59 % 1016,1 hPa 0,0 l/m 0,3 km/h (0 Bft) NW 314 0 min 0,000 mm 0,0 UV-I 12 W/m 14,9 C 23,4 C 1,6 km/h (1 Bft) 100,00 %
09.07.2016 20:42 23,5 C 59 % 1016,0 hPa 0,0 l/m 0,6 km/h (0 Bft) NW 313 0 min 0,000 mm 0,0 UV-I 11 W/m 15,0 C 23,5 C 3,2 km/h (1 Bft) 100,00 %
09.07.2016 20:44 23,5 C 60 % 1016,0 hPa 0,0 l/m 0,7 km/h (0 Bft) NW 313 0 min 0,000 mm 0,0 UV-I 11 W/m 15,3 C 23,5 C 1,6 km/h (1 Bft) 100,00 %
09.07.2016 20:46 23,4 C 59 % 1016,1 hPa 0,0 l/m 0,3 km/h (0 Bft) NW 313 0 min 0,000 mm 0,0 UV-I 10 W/m 14,9 C 23,4 C 1,6 km/h (1 Bft) 100,00 %
09.07.2016 20:48 23,4 C 62 % 1016,1 hPa 0,0 l/m 0,0 km/h (0 Bft) NW 313 0 min 0,000 mm 0,0 UV-I 11 W/m 15,7 C 23,4 C 1,6 km/h (1 Bft) 97,14 %
09.07.2016 20:50 23,4 C 60 % 1016,1 hPa 0,0 l/m 0,3 km/h (0 Bft) NW 313 0 min 0,000 mm 0,0 UV-I 9 W/m 15,2 C 23,4 C 1,6 km/h (1 Bft) 100,00 %
09.07.2016 20:52 23,4 C 59 % 1016,1 hPa 0,0 l/m 0,7 km/h (0 Bft) NW 313 0 min 0,000 mm 0,0 UV-I 8 W/m 14,9 C 23,4 C 3,2 km/h (1 Bft) 98,00 %
09.07.2016 20:54 23,4 C 59 % 1016,2 hPa 0,0 l/m 0,9 km/h (0 Bft) NW 313 0 min 0,000 mm 0,0 UV-I 7 W/m 14,9 C 23,4 C 3,2 km/h (1 Bft) 100,00 %
09.07.2016 20:56 23,4 C 59 % 1016,1 hPa 0,0 l/m 0,8 km/h (0 Bft) NW 313 0 min 0,000 mm 0,0 UV-I 5 W/m 14,9 C 23,4 C 1,6 km/h (1 Bft) 97,37 %
09.07.2016 20:58 23,4 C 61 % 1016,2 hPa 0,0 l/m 0,7 km/h (0 Bft) NW 313 0 min 0,000 mm 0,0 UV-I 5 W/m 15,4 C 23,4 C 1,6 km/h (1 Bft) 98,00 %
09.07.2016 21:00 23,3 C 60 % 1016,2 hPa 0,0 l/m 1,0 km/h (0 Bft) NW 313 0 min 0,025 mm 0,0 UV-I 5 W/m 15,1 C 23,3 C 3,2 km/h (1 Bft) 100,00 %
09.07.2016 21:02 23,3 C 60 % 1016,2 hPa 0,0 l/m 0,6 km/h (0 Bft) NW 313 0 min 0,000 mm 0,0 UV-I 4 W/m 15,1 C 23,3 C 3,2 km/h (1 Bft) 98,00 %
09.07.2016 21:04 23,3 C 59 % 1016,2 hPa 0,0 l/m 0,7 km/h (0 Bft) NW 313 0 min 0,000 mm 0,0 UV-I 0 W/m 14,8 C 23,3 C 3,2 km/h (1 Bft) 100,00 %
09.07.2016 21:06 23,3 C 61 % 1016,2 hPa 0,0 l/m 0,0 km/h (0 Bft) NW 313 0 min 0,000 mm 0,0 UV-I 0 W/m 15,3 C 23,3 C 1,6 km/h (1 Bft) 100,00 %
09.07.2016 21:08 23,2 C 60 % 1016,2 hPa 0,0 l/m 1,1 km/h (1 Bft) NW 313 0 min 0,000 mm 0,0 UV-I 0 W/m 15,0 C 23,2 C 3,2 km/h (1 Bft) 97,37 %
09.07.2016 21:10 23,2 C 60 % 1016,2 hPa 0,0 l/m 0,7 km/h (0 Bft) NW 313 0 min 0,000 mm 0,0 UV-I 0 W/m 15,0 C 23,2 C 1,6 km/h (1 Bft) 100,00 %
09.07.2016 21:12 23,2 C 60 % 1016,2 hPa 0,0 l/m 1,0 km/h (0 Bft) NW 313 0 min 0,000 mm 0,0 UV-I 0 W/m 15,0 C 23,2 C 3,2 km/h (1 Bft) 100,00 %
09.07.2016 21:14 23,2 C 60 % 1016,3 hPa 0,0 l/m 1,0 km/h (0 Bft) NW 313 0 min 0,000 mm 0,0 UV-I 0 W/m 15,0 C 23,2 C 3,2 km/h (1 Bft) 100,00 %
09.07.2016 21:16 23,2 C 60 % 1016,3 hPa 0,0 l/m 0,0 km/h (0 Bft) NW 313 0 min 0,000 mm 0,0 UV-I 0 W/m 15,0 C 23,2 C 0,0 km/h (0 Bft) 95,74 %
09.07.2016 21:18 23,2 C 59 % 1016,3 hPa 0,0 l/m 0,4 km/h (0 Bft) NW 313 0 min 0,000 mm 0,0 UV-I 0 W/m 14,7 C 23,2 C 1,6 km/h (1 Bft) 100,00 %
09.07.2016 21:20 23,1 C 61 % 1016,3 hPa 0,0 l/m 0,2 km/h (0 Bft) NW 313 0 min 0,000 mm 0,0 UV-I 0 W/m 15,2 C 23,1 C 1,6 km/h (1 Bft) 97,87 %
09.07.2016 21:22 23,1 C 60 % 1016,3 hPa 0,0 l/m 0,1 km/h (0 Bft) NW 313 0 min 0,000 mm 0,0 UV-I 0 W/m 14,9 C 23,1 C 1,6 km/h (1 Bft) 98,00 %
09.07.2016 21:24 23,1 C 61 % 1016,3 hPa 0,0 l/m 0,3 km/h (0 Bft) NW 313 0 min 0,000 mm 0,0 UV-I 0 W/m 15,2 C 23,1 C 1,6 km/h (1 Bft) 97,37 %
09.07.2016 21:26 23,1 C 60 % 1016,4 hPa 0,0 l/m 0,1 km/h (0 Bft) NW 313 0 min 0,000 mm 0,0 UV-I 0 W/m 14,9 C 23,1 C 1,6 km/h (1 Bft) 100,00 %
09.07.2016 21:28 23,0 C 61 % 1016,3 hPa 0,0 l/m 0,6 km/h (0 Bft) NW 313 0 min 0,000 mm 0,0 UV-I 0 W/m 15,1 C 23,0 C 3,2 km/h (1 Bft) 98,00 %
09.07.2016 21:30 23,0 C 61 % 1016,4 hPa 0,0 l/m 0,9 km/h (0 Bft) NW 313 0 min 0,000 mm 0,0 UV-I 0 W/m 15,1 C 23,0 C 3,2 km/h (1 Bft) 100,00 %
09.07.2016 21:32 22,9 C 62 % 1016,4 hPa 0,0 l/m 0,4 km/h (0 Bft) NW 313 0 min 0,000 mm 0,0 UV-I 0 W/m 15,2 C 22,9 C 1,6 km/h (1 Bft) 100,00 %
09.07.2016 21:34 22,9 C 63 % 1016,4 hPa 0,0 l/m 0,0 km/h (0 Bft) NW 313 0 min 0,000 mm 0,0 UV-I 0 W/m 15,5 C 22,9 C 0,0 km/h (0 Bft) 100,00 %
09.07.2016 21:36 22,8 C 63 % 1016,4 hPa 0,0 l/m 0,0 km/h (0 Bft) NW 313 0 min 0,000 mm 0,0 UV-I 0 W/m 15,4 C 22,8 C 1,6 km/h (1 Bft) 100,00 %
09.07.2016 21:38 22,8 C 64 % 1016,5 hPa 0,0 l/m 0,1 km/h (0 Bft) NW 313 0 min 0,000 mm 0,0 UV-I 0 W/m 15,6 C 22,8 C 1,6 km/h (1 Bft) 100,00 %
09.07.2016 21:40 22,7 C 66 % 1016,5 hPa 0,0 l/m 1,2 km/h (1 Bft) NW 313 0 min 0,000 mm 0,0 UV-I 0 W/m 16,0 C 22,7 C 3,2 km/h (1 Bft) 98,00 %
09.07.2016 21:42 22,7 C 66 % 1016,5 hPa 0,0 l/m 1,0 km/h (0 Bft) NW 313 0 min 0,000 mm 0,0 UV-I 0 W/m 16,0 C 22,7 C 1,6 km/h (1 Bft) 97,37 %
09.07.2016 21:44 22,6 C 68 % 1016,5 hPa 0,0 l/m 0,7 km/h (0 Bft) NW 313 0 min 0,000 mm 0,0 UV-I 0 W/m 16,4 C 22,6 C 1,6 km/h (1 Bft) 96,23 %
09.07.2016 21:46 22,4 C 68 % 1016,6 hPa 0,0 l/m 0,1 km/h (0 Bft) NW 313 0 min 0,000 mm 0,0 UV-I 0 W/m 16,2 C 22,4 C 1,6 km/h (1 Bft) 95,74 %
09.07.2016 21:48 22,2 C 69 % 1016,6 hPa 0,0 l/m 0,2 km/h (0 Bft) NW 313 0 min 0,000 mm 0,0 UV-I 0 W/m 16,2 C 22,2 C 1,6 km/h (1 Bft) 97,44 %
09.07.2016 21:50 22,1 C 68 % 1016,6 hPa 0,0 l/m 0,2 km/h (0 Bft) NW 313 0 min 0,000 mm 0,0 UV-I 0 W/m 15,9 C 22,1 C 1,6 km/h (1 Bft) 98,11 %
09.07.2016 21:52 21,9 C 69 % 1016,7 hPa 0,0 l/m 0,3 km/h (0 Bft) NW 313 0 min 0,000 mm 0,0 UV-I 0 W/m 15,9 C 21,9 C 1,6 km/h (1 Bft) 96,00 %
09.07.2016 21:54 21,8 C 69 % 1016,7 hPa 0,0 l/m 0,4 km/h (0 Bft) NW 313 0 min 0,000 mm 0,0 UV-I 0 W/m 15,9 C 21,8 C 1,6 km/h (1 Bft) 100,00 %
09.07.2016 21:56 21,8 C 70 % 1016,6 hPa 0,0 l/m 0,2 km/h (0 Bft) NW 313 0 min 0,000 mm 0,0 UV-I 0 W/m 16,1 C 21,8 C 1,6 km/h (1 Bft) 96,00 %
09.07.2016 21:58 21,7 C 70 % 1016,7 hPa 0,0 l/m 0,7 km/h (0 Bft) NW 313 0 min 0,000 mm 0,0 UV-I 0 W/m 16,0 C 21,7 C 1,6 km/h (1 Bft) 97,56 %
09.07.2016 22:00 21,6 C 71 % 1016,7 hPa 0,0 l/m 1,0 km/h (0 Bft) NW 312 0 min 0,000 mm 0,0 UV-I 0 W/m 16,1 C 21,6 C 1,6 km/h (1 Bft) 98,11 %
09.07.2016 22:02 21,6 C 71 % 1016,7 hPa 0,0 l/m 0,9 km/h (0 Bft) W-NW 301 0 min 0,026 mm 0,0 UV-I 0 W/m 16,1 C 21,6 C 3,2 km/h (1 Bft) 97,87 %
09.07.2016 22:04 21,6 C 70 % 1016,7 hPa 0,0 l/m 0,5 km/h (0 Bft) W-SW 237 0 min 0,000 mm 0,0 UV-I 0 W/m 15,9 C 21,6 C 3,2 km/h (1 Bft) 97,87 %
09.07.2016 22:06 21,7 C 69 % 1016,7 hPa 0,0 l/m 1,2 km/h (1 Bft) W-SW 237 0 min 0,000 mm 0,0 UV-I 0 W/m 15,8 C 21,7 C 3,2 km/h (1 Bft) 98,11 %
09.07.2016 22:08 21,7 C 69 % 1016,7 hPa 0,0 l/m 1,1 km/h (1 Bft) SW 236 0 min 0,000 mm 0,0 UV-I 0 W/m 15,8 C 21,7 C 3,2 km/h (1 Bft) 97,37 %
09.07.2016 22:10 21,8 C 68 % 1016,7 hPa 0,0 l/m 1,2 km/h (1 Bft) SW 236 0 min 0,000 mm 0,0 UV-I 0 W/m 15,6 C 21,8 C 3,2 km/h (1 Bft) 98,00 %
09.07.2016 22:12 21,8 C 69 % 1016,8 hPa 0,0 l/m 1,0 km/h (0 Bft) SW 236 0 min 0,000 mm 0,0 UV-I 0 W/m 15,9 C 21,8 C 1,6 km/h (1 Bft) 96,23 %
09.07.2016 22:14 21,9 C 68 % 1016,8 hPa 0,0 l/m 0,9 km/h (0 Bft) SW 236 0 min 0,000 mm 0,0 UV-I 0 W/m 15,7 C 21,9 C 3,2 km/h (1 Bft) 100,00 %
09.07.2016 22:16 21,9 C 67 % 1016,8 hPa 0,0 l/m 1,0 km/h (0 Bft) SW 235 0 min 0,000 mm 0,0 UV-I 0 W/m 15,5 C 21,9 C 3,2 km/h (1 Bft) 98,00 %
09.07.2016 22:18 21,9 C 70 % 1016,8 hPa 0,0 l/m 0,9 km/h (0 Bft) SW 236 0 min 0,000 mm 0,0 UV-I 0 W/m 16,2 C 21,9 C 3,2 km/h (1 Bft) 100,00 %
09.07.2016 22:20 21,9 C 69 % 1016,8 hPa 0,0 l/m 0,7 km/h (0 Bft) SW 235 0 min 0,000 mm 0,0 UV-I 0 W/m 15,9 C 21,9 C 1,6 km/h (1 Bft) 98,00 %
09.07.2016 22:22 21,9 C 69 % 1016,8 hPa 0,0 l/m 0,0 km/h (0 Bft) SW 236 0 min 0,000 mm 0,0 UV-I 0 W/m 15,9 C 21,9 C 1,6 km/h (1 Bft) 100,00 %
09.07.2016 22:24 21,9 C 68 % 1016,8 hPa 0,0 l/m 0,1 km/h (0 Bft) SW 235 0 min 0,000 mm 0,0 UV-I 0 W/m 15,7 C 21,9 C 1,6 km/h (1 Bft) 100,00 %
09.07.2016 22:26 21,9 C 68 % 1016,7 hPa 0,0 l/m 0,5 km/h (0 Bft) SW 235 0 min 0,000 mm 0,0 UV-I 0 W/m 15,7 C 21,9 C 3,2 km/h (1 Bft) 98,08 %
09.07.2016 22:28 21,9 C 68 % 1016,8 hPa 0,0 l/m 1,2 km/h (1 Bft) SW 236 0 min 0,000 mm 0,0 UV-I 0 W/m 15,7 C 21,9 C 3,2 km/h (1 Bft) 100,00 %
09.07.2016 22:30 21,9 C 68 % 1016,8 hPa 0,0 l/m 1,2 km/h (1 Bft) SW 236 0 min 0,000 mm 0,0 UV-I 0 W/m 15,7 C 21,9 C 3,2 km/h (1 Bft) 98,00 %
09.07.2016 22:32 22,0 C 68 % 1016,8 hPa 0,0 l/m 1,7 km/h (1 Bft) SW 236 0 min 0,000 mm 0,0 UV-I 0 W/m 15,8 C 22,0 C 3,2 km/h (1 Bft) 100,00 %
09.07.2016 22:34 21,9 C 69 % 1016,8 hPa 0,0 l/m 0,3 km/h (0 Bft) SW 235 0 min 0,000 mm 0,0 UV-I 0 W/m 15,9 C 21,9 C 1,6 km/h (1 Bft) 97,44 %
09.07.2016 22:36 21,9 C 69 % 1016,8 hPa 0,0 l/m 0,3 km/h (0 Bft) SW 235 0 min 0,000 mm 0,0 UV-I 0 W/m 15,9 C 21,9 C 1,6 km/h (1 Bft) 100,00 %
09.07.2016 22:38 21,8 C 68 % 1016,8 hPa 0,0 l/m 0,8 km/h (0 Bft) SW 235 0 min 0,000 mm 0,0 UV-I 0 W/m 15,6 C 21,8 C 3,2 km/h (1 Bft) 100,00 %
09.07.2016 22:40 21,8 C 68 % 1016,8 hPa 0,0 l/m 1,0 km/h (0 Bft) SW 235 0 min 0,000 mm 0,0 UV-I 0 W/m 15,6 C 21,8 C 1,6 km/h (1 Bft) 100,00 %
09.07.2016 22:42 21,8 C 69 % 1016,8 hPa 0,0 l/m 1,0 km/h (0 Bft) SW 236 0 min 0,000 mm 0,0 UV-I 0 W/m 15,9 C 21,8 C 3,2 km/h (1 Bft) 100,00 %
09.07.2016 22:44 21,8 C 69 % 1016,7 hPa 0,0 l/m 0,6 km/h (0 Bft) SW 236 0 min 0,000 mm 0,0 UV-I 0 W/m 15,9 C 21,8 C 1,6 km/h (1 Bft) 100,00 %
09.07.2016 22:46 21,8 C 69 % 1016,7 hPa 0,0 l/m 2,2 km/h (1 Bft) SW 236 0 min 0,000 mm 0,0 UV-I 0 W/m 15,9 C 21,8 C 3,2 km/h (1 Bft) 100,00 %
09.07.2016 22:48 21,8 C 69 % 1016,7 hPa 0,0 l/m 1,8 km/h (1 Bft) SW 236 0 min 0,000 mm 0,0 UV-I 0 W/m 15,9 C 21,8 C 3,2 km/h (1 Bft) 100,00 %
09.07.2016 22:50 21,8 C 69 % 1016,7 hPa 0,0 l/m 2,6 km/h (1 Bft) SW 235 0 min 0,000 mm 0,0 UV-I 0 W/m 15,9 C 21,8 C 4,8 km/h (1 Bft) 100,00 %
09.07.2016 22:52 21,8 C 69 % 1016,7 hPa 0,0 l/m 2,5 km/h (1 Bft) SW 234 0 min 0,000 mm 0,0 UV-I 0 W/m 15,9 C 21,8 C 4,8 km/h (1 Bft) 97,87 %
09.07.2016 22:54 21,8 C 69 % 1016,7 hPa 0,0 l/m 1,5 km/h (1 Bft) SW 234 0 min 0,000 mm 0,0 UV-I 0 W/m 15,9 C 21,8 C 3,2 km/h (1 Bft) 100,00 %
09.07.2016 22:56 21,8 C 70 % 1016,7 hPa 0,0 l/m 1,7 km/h (1 Bft) SW 234 0 min 0,000 mm 0,0 UV-I 0 W/m 16,1 C 21,8 C 3,2 km/h (1 Bft) 95,45 %
09.07.2016 22:58 21,7 C 70 % 1016,8 hPa 0,0 l/m 2,3 km/h (1 Bft) SW 234 0 min 0,000 mm 0,0 UV-I 0 W/m 16,0 C 21,7 C 3,2 km/h (1 Bft) 100,00 %
09.07.2016 23:00 21,7 C 69 % 1016,8 hPa 0,0 l/m 2,2 km/h (1 Bft) SW 234 0 min 0,025 mm 0,0 UV-I 0 W/m 15,8 C 21,7 C 3,2 km/h (1 Bft) 96,00 %
09.07.2016 23:02 21,7 C 70 % 1016,8 hPa 0,0 l/m 2,6 km/h (1 Bft) SW 234 0 min 0,000 mm 0,0 UV-I 0 W/m 16,0 C 21,7 C 4,8 km/h (1 Bft) 97,87 %
09.07.2016 23:04 21,7 C 70 % 1016,8 hPa 0,0 l/m 1,6 km/h (1 Bft) SW 234 0 min 0,000 mm 0,0 UV-I 0 W/m 16,0 C 21,7 C 3,2 km/h (1 Bft) 100,00 %
09.07.2016 23:06 21,7 C 70 % 1016,8 hPa 0,0 l/m 1,6 km/h (1 Bft) SW 234 0 min 0,000 mm 0,0 UV-I 0 W/m 16,0 C 21,7 C 3,2 km/h (1 Bft) 100,00 %
09.07.2016 23:08 21,7 C 71 % 1016,9 hPa 0,0 l/m 1,2 km/h (1 Bft) SW 234 0 min 0,000 mm 0,0 UV-I 0 W/m 16,2 C 21,7 C 3,2 km/h (1 Bft) 100,00 %
09.07.2016 23:10 21,7 C 71 % 1016,9 hPa 0,0 l/m 1,9 km/h (1 Bft) SW 234 0 min 0,000 mm 0,0 UV-I 0 W/m 16,2 C 21,7 C 4,8 km/h (1 Bft) 100,00 %
09.07.2016 23:12 21,7 C 71 % 1016,9 hPa 0,0 l/m 1,8 km/h (1 Bft) SW 234 0 min 0,000 mm 0,0 UV-I 0 W/m 16,2 C 21,7 C 3,2 km/h (1 Bft) 100,00 %
09.07.2016 23:14 21,6 C 71 % 1016,9 hPa 0,0 l/m 3,1 km/h (1 Bft) SW 234 0 min 0,000 mm 0,0 UV-I 0 W/m 16,1 C 21,6 C 4,8 km/h (1 Bft) 98,00 %
09.07.2016 23:16 21,6 C 71 % 1016,9 hPa 0,0 l/m 2,5 km/h (1 Bft) SW 229 0 min 0,000 mm 0,0 UV-I 0 W/m 16,1 C 21,6 C 4,8 km/h (1 Bft) 100,00 %
09.07.2016 23:18 21,6 C 71 % 1016,9 hPa 0,0 l/m 1,9 km/h (1 Bft) SW 229 0 min 0,000 mm 0,0 UV-I 0 W/m 16,1 C 21,6 C 3,2 km/h (1 Bft) 100,00 %
09.07.2016 23:20 21,6 C 71 % 1016,9 hPa 0,0 l/m 1,7 km/h (1 Bft) SW 229 0 min 0,000 mm 0,0 UV-I 0 W/m 16,1 C 21,6 C 3,2 km/h (1 Bft) 100,00 %
09.07.2016 23:22 21,6 C 71 % 1016,9 hPa 0,0 l/m 1,7 km/h (1 Bft) SW 229 0 min 0,000 mm 0,0 UV-I 0 W/m 16,1 C 21,6 C 3,2 km/h (1 Bft) 100,00 %
09.07.2016 23:24 21,6 C 70 % 1016,9 hPa 0,0 l/m 2,8 km/h (1 Bft) SW 229 0 min 0,000 mm 0,0 UV-I 0 W/m 15,9 C 21,6 C 4,8 km/h (1 Bft) 100,00 %
09.07.2016 23:26 21,6 C 71 % 1016,9 hPa 0,0 l/m 1,6 km/h (1 Bft) SW 229 0 min 0,000 mm 0,0 UV-I 0 W/m 16,1 C 21,6 C 4,8 km/h (1 Bft) 100,00 %
09.07.2016 23:28 21,6 C 71 % 1016,9 hPa 0,0 l/m 2,2 km/h (1 Bft) SW 229 0 min 0,000 mm 0,0 UV-I 0 W/m 16,1 C 21,6 C 3,2 km/h (1 Bft) 100,00 %
09.07.2016 23:30 21,6 C 72 % 1016,9 hPa 0,0 l/m 1,3 km/h (1 Bft) SW 229 0 min 0,000 mm 0,0 UV-I 0 W/m 16,3 C 21,6 C 3,2 km/h (1 Bft) 100,00 %
09.07.2016 23:32 21,6 C 71 % 1016,9 hPa 0,0 l/m 1,8 km/h (1 Bft) SW 229 0 min 0,000 mm 0,0 UV-I 0 W/m 16,1 C 21,6 C 3,2 km/h (1 Bft) 100,00 %
09.07.2016 23:34 21,6 C 72 % 1017,0 hPa 0,0 l/m 1,4 km/h (1 Bft) SW 229 0 min 0,000 mm 0,0 UV-I 0 W/m 16,3 C 21,6 C 3,2 km/h (1 Bft) 100,00 %
09.07.2016 23:36 21,5 C 72 % 1016,9 hPa 0,0 l/m 2,6 km/h (1 Bft) SW 229 0 min 0,000 mm 0,0 UV-I 0 W/m 16,2 C 21,5 C 4,8 km/h (1 Bft) 100,00 %
09.07.2016 23:38 21,5 C 73 % 1016,9 hPa 0,0 l/m 2,9 km/h (1 Bft) SW 229 0 min 0,000 mm 0,0 UV-I 0 W/m 16,4 C 21,5 C 4,8 km/h (1 Bft) 97,87 %
09.07.2016 23:40 21,4 C 73 % 1016,9 hPa 0,0 l/m 1,8 km/h (1 Bft) SW 229 0 min 0,000 mm 0,0 UV-I 0 W/m 16,4 C 21,4 C 3,2 km/h (1 Bft) 98,00 %
09.07.2016 23:42 21,4 C 74 % 1016,9 hPa 0,0 l/m 1,8 km/h (1 Bft) SW 229 0 min 0,000 mm 0,0 UV-I 0 W/m 16,6 C 21,4 C 3,2 km/h (1 Bft) 97,56 %
09.07.2016 23:44 21,3 C 74 % 1016,9 hPa 0,0 l/m 1,7 km/h (1 Bft) SW 229 0 min 0,000 mm 0,0 UV-I 0 W/m 16,5 C 21,3 C 3,2 km/h (1 Bft) 98,00 %
09.07.2016 23:46 21,3 C 74 % 1016,9 hPa 0,0 l/m 1,6 km/h (1 Bft) SW 229 0 min 0,000 mm 0,0 UV-I 0 W/m 16,5 C 21,3 C 3,2 km/h (1 Bft) 98,00 %
09.07.2016 23:48 21,3 C 74 % 1016,8 hPa 0,0 l/m 1,4 km/h (1 Bft) SW 229 0 min 0,000 mm 0,0 UV-I 0 W/m 16,5 C 21,3 C 3,2 km/h (1 Bft) 97,44 %
09.07.2016 23:50 21,2 C 74 % 1016,8 hPa 0,0 l/m 1,2 km/h (1 Bft) SW 229 0 min 0,000 mm 0,0 UV-I 0 W/m 16,4 C 21,2 C 3,2 km/h (1 Bft) 97,87 %
09.07.2016 23:52 21,2 C 73 % 1016,9 hPa 0,0 l/m 1,7 km/h (1 Bft) SW 229 0 min 0,000 mm 0,0 UV-I 0 W/m 16,2 C 21,2 C 3,2 km/h (1 Bft) 98,11 %
09.07.2016 23:54 21,2 C 73 % 1016,9 hPa 0,0 l/m 1,7 km/h (1 Bft) SW 229 0 min 0,000 mm 0,0 UV-I 0 W/m 16,2 C 21,2 C 3,2 km/h (1 Bft) 97,37 %
09.07.2016 23:56 21,2 C 73 % 1016,9 hPa 0,0 l/m 1,9 km/h (1 Bft) SW 229 0 min 0,000 mm 0,0 UV-I 0 W/m 16,2 C 21,2 C 3,2 km/h (1 Bft) 94,00 %
09.07.2016 23:58 21,2 C 73 % 1016,9 hPa 0,0 l/m 1,0 km/h (0 Bft) SW 229 0 min 0,000 mm 0,0 UV-I 0 W/m 16,2 C 21,2 C 1,6 km/h (1 Bft) 94,34 %
_ Min-Zeit 06:50 16:18 00:10 - 20:48 - - - - - - 16:18 03:52 21:16 04:02
Minimum _ 17,2 C 44 % 1014,9 hPa - 0,0 km/h (0 Bft) - - - - - - 13,6 C 15,7 C 0,0 km/h (0 Bft) 90,32 %
_ Max-Zeit 16:34 07:10 08:28 03:00 14:48 - - 09:14 14:02 12:30 12:46 12:10 16:36 12:04 00:00
Maximum _ 27,3 C 93 % 1017,9 hPa 0,4 l/m 17,4 km/h
W-SW (3 Bft)
- - 2 min 0,584 mm 6,8 UV-I 1072 W/m 17,8 C 27,3 C 25,7 km/h
W (4 Bft)
100,00 %
Durchschnitt _ 22,1 C 69 % 1016,6 hPa #1,0 l/m 6,2 km/h (2 Bft) SW - #9:14 h #4,826 mm 3,5 UV-I 431 W/m 15,6 C 21,7 C 11,1 km/h (2 Bft) 98,59 %